<?xml version="1.0" encoding="UTF-8" standalone="no" ?>
<gpx xmlns="http://www.topografix.com/GPX/1/1" xmlns:xsi="http://www.w3.org/2001/XMLSchema-instance" xsi:schemaLocation="http://www.topografix.com/GPX/1/1 http://www.topografix.com/GPX/1/1/gpx.xsd" version="1.1" creator="VisuGPX - https://www.visugpx.com">
  <metadata>
    <name>Saverne Boucle de 14 Km</name>
    <desc><![CDATA[Au départ du réstautant 'Le clos de la garenne']]></desc>
  </metadata>
  <trk>
    <name><![CDATA[ADi2010/08/29_13:59]]></name>
    <trkseg>
      <trkpt lat="48.73278" lon="7.34756">
        <ele>274.756104</ele>
        <time>2010-08-29T12:15:11Z</time>
      </trkpt>
      <trkpt lat="48.7297" lon="7.34273">
        <ele>303.607666</ele>
        <time>2010-08-29T12:19:18Z</time>
      </trkpt>
      <trkpt lat="48.72697" lon="7.33626">
        <ele>313.279541</ele>
        <time>2010-08-29T12:21:49Z</time>
      </trkpt>
      <trkpt lat="48.72693" lon="7.33621">
        <ele>313.138916</ele>
        <time>2010-08-29T12:21:51Z</time>
      </trkpt>
      <trkpt lat="48.72689" lon="7.33617">
        <ele>313.232666</ele>
        <time>2010-08-29T12:21:53Z</time>
      </trkpt>
      <trkpt lat="48.72684" lon="7.33611">
        <ele>313.170166</ele>
        <time>2010-08-29T12:21:56Z</time>
      </trkpt>
      <trkpt lat="48.7268" lon="7.33606">
        <ele>313.224854</ele>
        <time>2010-08-29T12:21:58Z</time>
      </trkpt>
      <trkpt lat="48.72676" lon="7.33601">
        <ele>313.326416</ele>
        <time>2010-08-29T12:22:00Z</time>
      </trkpt>
      <trkpt lat="48.72672" lon="7.33596">
        <ele>313.342041</ele>
        <time>2010-08-29T12:22:02Z</time>
      </trkpt>
      <trkpt lat="48.72668" lon="7.33591">
        <ele>313.295166</ele>
        <time>2010-08-29T12:22:04Z</time>
      </trkpt>
      <trkpt lat="48.72664" lon="7.33586">
        <ele>313.115479</ele>
        <time>2010-08-29T12:22:06Z</time>
      </trkpt>
      <trkpt lat="48.7266" lon="7.33582">
        <ele>312.912354</ele>
        <time>2010-08-29T12:22:08Z</time>
      </trkpt>
      <trkpt lat="48.72656" lon="7.33577">
        <ele>312.857666</ele>
        <time>2010-08-29T12:22:10Z</time>
      </trkpt>
      <trkpt lat="48.72651" lon="7.33572">
        <ele>313.185791</ele>
        <time>2010-08-29T12:22:12Z</time>
      </trkpt>
      <trkpt lat="48.72644" lon="7.33567">
        <ele>313.006104</ele>
        <time>2010-08-29T12:22:14Z</time>
      </trkpt>
      <trkpt lat="48.72638" lon="7.33561">
        <ele>313.498291</ele>
        <time>2010-08-29T12:22:16Z</time>
      </trkpt>
      <trkpt lat="48.72632" lon="7.33554">
        <ele>313.099854</ele>
        <time>2010-08-29T12:22:18Z</time>
      </trkpt>
      <trkpt lat="48.72627" lon="7.33549">
        <ele>313.552979</ele>
        <time>2010-08-29T12:22:20Z</time>
      </trkpt>
      <trkpt lat="48.72622" lon="7.33544">
        <ele>313.623291</ele>
        <time>2010-08-29T12:22:22Z</time>
      </trkpt>
      <trkpt lat="48.72618" lon="7.3354">
        <ele>314.006104</ele>
        <time>2010-08-29T12:22:25Z</time>
      </trkpt>
      <trkpt lat="48.72614" lon="7.33536">
        <ele>314.420166</ele>
        <time>2010-08-29T12:22:27Z</time>
      </trkpt>
      <trkpt lat="48.72609" lon="7.33532">
        <ele>314.342041</ele>
        <time>2010-08-29T12:22:29Z</time>
      </trkpt>
      <trkpt lat="48.72605" lon="7.33528">
        <ele>314.498291</ele>
        <time>2010-08-29T12:22:31Z</time>
      </trkpt>
      <trkpt lat="48.726" lon="7.33523">
        <ele>314.123291</ele>
        <time>2010-08-29T12:22:34Z</time>
      </trkpt>
      <trkpt lat="48.72595" lon="7.33519">
        <ele>314.248291</ele>
        <time>2010-08-29T12:22:37Z</time>
      </trkpt>
      <trkpt lat="48.72591" lon="7.33516">
        <ele>314.427979</ele>
        <time>2010-08-29T12:22:39Z</time>
      </trkpt>
      <trkpt lat="48.72585" lon="7.3351">
        <ele>314.607666</ele>
        <time>2010-08-29T12:22:41Z</time>
      </trkpt>
      <trkpt lat="48.7258" lon="7.33507">
        <ele>314.427979</ele>
        <time>2010-08-29T12:22:42Z</time>
      </trkpt>
      <trkpt lat="48.72576" lon="7.33503">
        <ele>314.310791</ele>
        <time>2010-08-29T12:22:43Z</time>
      </trkpt>
      <trkpt lat="48.72572" lon="7.335">
        <ele>314.115479</ele>
        <time>2010-08-29T12:22:44Z</time>
      </trkpt>
      <trkpt lat="48.72568" lon="7.33497">
        <ele>313.888916</ele>
        <time>2010-08-29T12:22:45Z</time>
      </trkpt>
      <trkpt lat="48.72561" lon="7.33491">
        <ele>314.099854</ele>
        <time>2010-08-29T12:22:47Z</time>
      </trkpt>
      <trkpt lat="48.72553" lon="7.33486">
        <ele>314.443604</ele>
        <time>2010-08-29T12:22:49Z</time>
      </trkpt>
      <trkpt lat="48.72548" lon="7.33481">
        <ele>314.576416</ele>
        <time>2010-08-29T12:22:51Z</time>
      </trkpt>
      <trkpt lat="48.72542" lon="7.33476">
        <ele>314.373291</ele>
        <time>2010-08-29T12:22:53Z</time>
      </trkpt>
      <trkpt lat="48.72535" lon="7.3347">
        <ele>313.693604</ele>
        <time>2010-08-29T12:22:55Z</time>
      </trkpt>
      <trkpt lat="48.72529" lon="7.33466">
        <ele>313.615479</ele>
        <time>2010-08-29T12:22:57Z</time>
      </trkpt>
      <trkpt lat="48.72524" lon="7.33464">
        <ele>313.771729</ele>
        <time>2010-08-29T12:23:02Z</time>
      </trkpt>
      <trkpt lat="48.7252" lon="7.33461">
        <ele>315.388916</ele>
        <time>2010-08-29T12:23:12Z</time>
      </trkpt>
      <trkpt lat="48.72515" lon="7.33458">
        <ele>315.592041</ele>
        <time>2010-08-29T12:23:15Z</time>
      </trkpt>
      <trkpt lat="48.72511" lon="7.33453">
        <ele>316.248291</ele>
        <time>2010-08-29T12:23:24Z</time>
      </trkpt>
      <trkpt lat="48.72506" lon="7.33449">
        <ele>316.615479</ele>
        <time>2010-08-29T12:23:26Z</time>
      </trkpt>
      <trkpt lat="48.72501" lon="7.33446">
        <ele>317.006104</ele>
        <time>2010-08-29T12:23:28Z</time>
      </trkpt>
      <trkpt lat="48.72496" lon="7.33443">
        <ele>316.818604</ele>
        <time>2010-08-29T12:23:30Z</time>
      </trkpt>
      <trkpt lat="48.7249" lon="7.33439">
        <ele>317.474854</ele>
        <time>2010-08-29T12:23:33Z</time>
      </trkpt>
      <trkpt lat="48.72484" lon="7.33434">
        <ele>317.560791</ele>
        <time>2010-08-29T12:23:35Z</time>
      </trkpt>
      <trkpt lat="48.72479" lon="7.33431">
        <ele>317.318604</ele>
        <time>2010-08-29T12:23:37Z</time>
      </trkpt>
      <trkpt lat="48.72473" lon="7.33428">
        <ele>316.857666</ele>
        <time>2010-08-29T12:23:39Z</time>
      </trkpt>
      <trkpt lat="48.72468" lon="7.33423">
        <ele>319.232666</ele>
        <time>2010-08-29T12:23:41Z</time>
      </trkpt>
      <trkpt lat="48.72463" lon="7.3342">
        <ele>319.802979</ele>
        <time>2010-08-29T12:23:43Z</time>
      </trkpt>
      <trkpt lat="48.72456" lon="7.33415">
        <ele>319.677979</ele>
        <time>2010-08-29T12:23:45Z</time>
      </trkpt>
      <trkpt lat="48.72451" lon="7.3341">
        <ele>319.498291</ele>
        <time>2010-08-29T12:23:47Z</time>
      </trkpt>
      <trkpt lat="48.72447" lon="7.33405">
        <ele>319.584229</ele>
        <time>2010-08-29T12:23:49Z</time>
      </trkpt>
      <trkpt lat="48.72442" lon="7.33401">
        <ele>318.951416</ele>
        <time>2010-08-29T12:23:51Z</time>
      </trkpt>
      <trkpt lat="48.72436" lon="7.33396">
        <ele>319.021729</ele>
        <time>2010-08-29T12:23:53Z</time>
      </trkpt>
      <trkpt lat="48.72431" lon="7.33392">
        <ele>317.943604</ele>
        <time>2010-08-29T12:23:55Z</time>
      </trkpt>
      <trkpt lat="48.72427" lon="7.33388">
        <ele>317.740479</ele>
        <time>2010-08-29T12:23:57Z</time>
      </trkpt>
      <trkpt lat="48.72423" lon="7.33383">
        <ele>317.732666</ele>
        <time>2010-08-29T12:23:59Z</time>
      </trkpt>
      <trkpt lat="48.72419" lon="7.3338">
        <ele>317.552979</ele>
        <time>2010-08-29T12:24:00Z</time>
      </trkpt>
      <trkpt lat="48.72411" lon="7.33375">
        <ele>317.802979</ele>
        <time>2010-08-29T12:24:02Z</time>
      </trkpt>
      <trkpt lat="48.72408" lon="7.33368">
        <ele>317.490479</ele>
        <time>2010-08-29T12:24:04Z</time>
      </trkpt>
      <trkpt lat="48.72403" lon="7.33361">
        <ele>317.560791</ele>
        <time>2010-08-29T12:24:06Z</time>
      </trkpt>
      <trkpt lat="48.72397" lon="7.33356">
        <ele>318.467041</ele>
        <time>2010-08-29T12:24:08Z</time>
      </trkpt>
      <trkpt lat="48.72392" lon="7.33352">
        <ele>318.248291</ele>
        <time>2010-08-29T12:24:10Z</time>
      </trkpt>
      <trkpt lat="48.72387" lon="7.33347">
        <ele>318.170166</ele>
        <time>2010-08-29T12:24:12Z</time>
      </trkpt>
      <trkpt lat="48.72381" lon="7.33342">
        <ele>317.232666</ele>
        <time>2010-08-29T12:24:14Z</time>
      </trkpt>
      <trkpt lat="48.72377" lon="7.33336">
        <ele>317.670166</ele>
        <time>2010-08-29T12:24:16Z</time>
      </trkpt>
      <trkpt lat="48.72372" lon="7.33331">
        <ele>317.381104</ele>
        <time>2010-08-29T12:24:18Z</time>
      </trkpt>
      <trkpt lat="48.72367" lon="7.33326">
        <ele>317.826416</ele>
        <time>2010-08-29T12:24:20Z</time>
      </trkpt>
      <trkpt lat="48.72362" lon="7.3332">
        <ele>318.170166</ele>
        <time>2010-08-29T12:24:22Z</time>
      </trkpt>
      <trkpt lat="48.72357" lon="7.33313">
        <ele>318.287354</ele>
        <time>2010-08-29T12:24:24Z</time>
      </trkpt>
      <trkpt lat="48.72352" lon="7.33309">
        <ele>318.482666</ele>
        <time>2010-08-29T12:24:27Z</time>
      </trkpt>
      <trkpt lat="48.72347" lon="7.33305">
        <ele>317.834229</ele>
        <time>2010-08-29T12:24:28Z</time>
      </trkpt>
      <trkpt lat="48.7234" lon="7.33299">
        <ele>316.584229</ele>
        <time>2010-08-29T12:24:34Z</time>
      </trkpt>
      <trkpt lat="48.72333" lon="7.33293">
        <ele>317.248291</ele>
        <time>2010-08-29T12:24:36Z</time>
      </trkpt>
      <trkpt lat="48.72327" lon="7.33288">
        <ele>317.092041</ele>
        <time>2010-08-29T12:24:38Z</time>
      </trkpt>
      <trkpt lat="48.72321" lon="7.33284">
        <ele>316.834229</ele>
        <time>2010-08-29T12:24:40Z</time>
      </trkpt>
      <trkpt lat="48.72315" lon="7.3328">
        <ele>317.287354</ele>
        <time>2010-08-29T12:24:42Z</time>
      </trkpt>
      <trkpt lat="48.72307" lon="7.33278">
        <ele>315.795166</ele>
        <time>2010-08-29T12:24:43Z</time>
      </trkpt>
      <trkpt lat="48.72298" lon="7.33274">
        <ele>315.248291</ele>
        <time>2010-08-29T12:24:45Z</time>
      </trkpt>
      <trkpt lat="48.7229" lon="7.33272">
        <ele>314.896729</ele>
        <time>2010-08-29T12:24:47Z</time>
      </trkpt>
      <trkpt lat="48.72285" lon="7.33267">
        <ele>314.810791</ele>
        <time>2010-08-29T12:24:48Z</time>
      </trkpt>
      <trkpt lat="48.72279" lon="7.33262">
        <ele>314.693604</ele>
        <time>2010-08-29T12:24:49Z</time>
      </trkpt>
      <trkpt lat="48.72273" lon="7.33261">
        <ele>315.256104</ele>
        <time>2010-08-29T12:24:51Z</time>
      </trkpt>
      <trkpt lat="48.72265" lon="7.33258">
        <ele>315.092041</ele>
        <time>2010-08-29T12:24:53Z</time>
      </trkpt>
      <trkpt lat="48.72257" lon="7.33257">
        <ele>315.381104</ele>
        <time>2010-08-29T12:24:55Z</time>
      </trkpt>
      <trkpt lat="48.72252" lon="7.33255">
        <ele>315.873291</ele>
        <time>2010-08-29T12:24:57Z</time>
      </trkpt>
      <trkpt lat="48.72245" lon="7.33252">
        <ele>315.357666</ele>
        <time>2010-08-29T12:25:00Z</time>
      </trkpt>
      <trkpt lat="48.72239" lon="7.3325">
        <ele>315.092041</ele>
        <time>2010-08-29T12:25:02Z</time>
      </trkpt>
      <trkpt lat="48.72234" lon="7.3325">
        <ele>314.670166</ele>
        <time>2010-08-29T12:25:04Z</time>
      </trkpt>
      <trkpt lat="48.7223" lon="7.33249">
        <ele>314.568604</ele>
        <time>2010-08-29T12:25:05Z</time>
      </trkpt>
      <trkpt lat="48.7222" lon="7.33249">
        <ele>314.334229</ele>
        <time>2010-08-29T12:25:07Z</time>
      </trkpt>
      <trkpt lat="48.72215" lon="7.33251">
        <ele>315.076416</ele>
        <time>2010-08-29T12:25:09Z</time>
      </trkpt>
      <trkpt lat="48.7221" lon="7.3325">
        <ele>315.193604</ele>
        <time>2010-08-29T12:25:12Z</time>
      </trkpt>
      <trkpt lat="48.72206" lon="7.33244">
        <ele>314.865479</ele>
        <time>2010-08-29T12:25:29Z</time>
      </trkpt>
      <trkpt lat="48.72201" lon="7.33243">
        <ele>315.521729</ele>
        <time>2010-08-29T12:25:33Z</time>
      </trkpt>
      <trkpt lat="48.72199" lon="7.33237">
        <ele>317.810791</ele>
        <time>2010-08-29T12:25:40Z</time>
      </trkpt>
      <trkpt lat="48.72195" lon="7.33232">
        <ele>319.092041</ele>
        <time>2010-08-29T12:25:44Z</time>
      </trkpt>
      <trkpt lat="48.72192" lon="7.33227">
        <ele>320.076416</ele>
        <time>2010-08-29T12:25:46Z</time>
      </trkpt>
      <trkpt lat="48.72188" lon="7.33226">
        <ele>321.474854</ele>
        <time>2010-08-29T12:25:49Z</time>
      </trkpt>
      <trkpt lat="48.72183" lon="7.3322">
        <ele>322.279541</ele>
        <time>2010-08-29T12:25:51Z</time>
      </trkpt>
      <trkpt lat="48.72179" lon="7.33217">
        <ele>322.482666</ele>
        <time>2010-08-29T12:25:52Z</time>
      </trkpt>
      <trkpt lat="48.72174" lon="7.33209">
        <ele>323.576416</ele>
        <time>2010-08-29T12:25:55Z</time>
      </trkpt>
      <trkpt lat="48.72171" lon="7.33202">
        <ele>324.834229</ele>
        <time>2010-08-29T12:25:57Z</time>
      </trkpt>
      <trkpt lat="48.72166" lon="7.33194">
        <ele>324.842041</ele>
        <time>2010-08-29T12:25:59Z</time>
      </trkpt>
      <trkpt lat="48.72162" lon="7.33187">
        <ele>324.842041</ele>
        <time>2010-08-29T12:26:01Z</time>
      </trkpt>
      <trkpt lat="48.72158" lon="7.33181">
        <ele>325.045166</ele>
        <time>2010-08-29T12:26:02Z</time>
      </trkpt>
      <trkpt lat="48.72154" lon="7.33175">
        <ele>325.615479</ele>
        <time>2010-08-29T12:26:04Z</time>
      </trkpt>
      <trkpt lat="48.72151" lon="7.3317">
        <ele>326.295166</ele>
        <time>2010-08-29T12:26:06Z</time>
      </trkpt>
      <trkpt lat="48.72148" lon="7.33164">
        <ele>326.834229</ele>
        <time>2010-08-29T12:26:09Z</time>
      </trkpt>
      <trkpt lat="48.72145" lon="7.33158">
        <ele>328.435791</ele>
        <time>2010-08-29T12:26:12Z</time>
      </trkpt>
      <trkpt lat="48.72142" lon="7.33152">
        <ele>328.474854</ele>
        <time>2010-08-29T12:26:16Z</time>
      </trkpt>
      <trkpt lat="48.72139" lon="7.33144">
        <ele>329.420166</ele>
        <time>2010-08-29T12:26:19Z</time>
      </trkpt>
      <trkpt lat="48.72138" lon="7.33135">
        <ele>329.537354</ele>
        <time>2010-08-29T12:26:21Z</time>
      </trkpt>
      <trkpt lat="48.72136" lon="7.33125">
        <ele>329.654541</ele>
        <time>2010-08-29T12:26:23Z</time>
      </trkpt>
      <trkpt lat="48.72135" lon="7.33114">
        <ele>330.146729</ele>
        <time>2010-08-29T12:26:25Z</time>
      </trkpt>
      <trkpt lat="48.72134" lon="7.33101">
        <ele>331.498291</ele>
        <time>2010-08-29T12:26:27Z</time>
      </trkpt>
      <trkpt lat="48.72135" lon="7.33091">
        <ele>332.013916</ele>
        <time>2010-08-29T12:26:29Z</time>
      </trkpt>
      <trkpt lat="48.72135" lon="7.3308">
        <ele>331.068604</ele>
        <time>2010-08-29T12:26:31Z</time>
      </trkpt>
      <trkpt lat="48.72135" lon="7.33069">
        <ele>331.092041</ele>
        <time>2010-08-29T12:26:33Z</time>
      </trkpt>
      <trkpt lat="48.72134" lon="7.33058">
        <ele>331.560791</ele>
        <time>2010-08-29T12:26:35Z</time>
      </trkpt>
      <trkpt lat="48.72135" lon="7.33048">
        <ele>331.412354</ele>
        <time>2010-08-29T12:26:37Z</time>
      </trkpt>
      <trkpt lat="48.72135" lon="7.33036">
        <ele>331.513916</ele>
        <time>2010-08-29T12:26:39Z</time>
      </trkpt>
      <trkpt lat="48.72136" lon="7.33025">
        <ele>331.357666</ele>
        <time>2010-08-29T12:26:41Z</time>
      </trkpt>
      <trkpt lat="48.72136" lon="7.33014">
        <ele>331.185791</ele>
        <time>2010-08-29T12:26:43Z</time>
      </trkpt>
      <trkpt lat="48.72136" lon="7.33003">
        <ele>331.412354</ele>
        <time>2010-08-29T12:26:45Z</time>
      </trkpt>
      <trkpt lat="48.72135" lon="7.32993">
        <ele>330.709229</ele>
        <time>2010-08-29T12:26:47Z</time>
      </trkpt>
      <trkpt lat="48.72136" lon="7.32983">
        <ele>331.427979</ele>
        <time>2010-08-29T12:26:49Z</time>
      </trkpt>
      <trkpt lat="48.72134" lon="7.32973">
        <ele>331.295166</ele>
        <time>2010-08-29T12:26:51Z</time>
      </trkpt>
      <trkpt lat="48.72134" lon="7.32962">
        <ele>331.474854</ele>
        <time>2010-08-29T12:26:53Z</time>
      </trkpt>
      <trkpt lat="48.72134" lon="7.32953">
        <ele>331.185791</ele>
        <time>2010-08-29T12:26:55Z</time>
      </trkpt>
      <trkpt lat="48.72135" lon="7.32942">
        <ele>331.107666</ele>
        <time>2010-08-29T12:26:57Z</time>
      </trkpt>
      <trkpt lat="48.72136" lon="7.32932">
        <ele>331.271729</ele>
        <time>2010-08-29T12:26:59Z</time>
      </trkpt>
      <trkpt lat="48.72137" lon="7.3292">
        <ele>331.529541</ele>
        <time>2010-08-29T12:27:01Z</time>
      </trkpt>
      <trkpt lat="48.72137" lon="7.32908">
        <ele>331.974854</ele>
        <time>2010-08-29T12:27:03Z</time>
      </trkpt>
      <trkpt lat="48.72139" lon="7.32897">
        <ele>331.443604</ele>
        <time>2010-08-29T12:27:05Z</time>
      </trkpt>
      <trkpt lat="48.72139" lon="7.3289">
        <ele>330.748291</ele>
        <time>2010-08-29T12:27:06Z</time>
      </trkpt>
      <trkpt lat="48.72137" lon="7.32878">
        <ele>331.756104</ele>
        <time>2010-08-29T12:27:08Z</time>
      </trkpt>
      <trkpt lat="48.72137" lon="7.32868">
        <ele>332.451416</ele>
        <time>2010-08-29T12:27:10Z</time>
      </trkpt>
      <trkpt lat="48.72135" lon="7.32856">
        <ele>332.568604</ele>
        <time>2010-08-29T12:27:12Z</time>
      </trkpt>
      <trkpt lat="48.72134" lon="7.32844">
        <ele>333.076416</ele>
        <time>2010-08-29T12:27:14Z</time>
      </trkpt>
      <trkpt lat="48.72131" lon="7.32833">
        <ele>333.920166</ele>
        <time>2010-08-29T12:27:16Z</time>
      </trkpt>
      <trkpt lat="48.72128" lon="7.32823">
        <ele>334.248291</ele>
        <time>2010-08-29T12:27:18Z</time>
      </trkpt>
      <trkpt lat="48.72123" lon="7.32814">
        <ele>334.224854</ele>
        <time>2010-08-29T12:27:20Z</time>
      </trkpt>
      <trkpt lat="48.72119" lon="7.32804">
        <ele>334.615479</ele>
        <time>2010-08-29T12:27:22Z</time>
      </trkpt>
      <trkpt lat="48.72115" lon="7.32794">
        <ele>334.631104</ele>
        <time>2010-08-29T12:27:24Z</time>
      </trkpt>
      <trkpt lat="48.7211" lon="7.32785">
        <ele>334.365479</ele>
        <time>2010-08-29T12:27:26Z</time>
      </trkpt>
      <trkpt lat="48.72105" lon="7.32775">
        <ele>334.552979</ele>
        <time>2010-08-29T12:27:28Z</time>
      </trkpt>
      <trkpt lat="48.721" lon="7.32768">
        <ele>334.263916</ele>
        <time>2010-08-29T12:27:30Z</time>
      </trkpt>
      <trkpt lat="48.72096" lon="7.32763">
        <ele>334.467041</ele>
        <time>2010-08-29T12:27:32Z</time>
      </trkpt>
      <trkpt lat="48.72092" lon="7.32759">
        <ele>334.685791</ele>
        <time>2010-08-29T12:27:34Z</time>
      </trkpt>
      <trkpt lat="48.72088" lon="7.32754">
        <ele>334.849854</ele>
        <time>2010-08-29T12:27:37Z</time>
      </trkpt>
      <trkpt lat="48.72084" lon="7.32749">
        <ele>334.802979</ele>
        <time>2010-08-29T12:29:00Z</time>
      </trkpt>
      <trkpt lat="48.72084" lon="7.32737">
        <ele>333.888916</ele>
        <time>2010-08-29T12:29:20Z</time>
      </trkpt>
      <trkpt lat="48.72081" lon="7.32727">
        <ele>332.724854</ele>
        <time>2010-08-29T12:29:22Z</time>
      </trkpt>
      <trkpt lat="48.72078" lon="7.32719">
        <ele>332.256104</ele>
        <time>2010-08-29T12:29:24Z</time>
      </trkpt>
      <trkpt lat="48.72075" lon="7.32709">
        <ele>330.107666</ele>
        <time>2010-08-29T12:29:30Z</time>
      </trkpt>
      <trkpt lat="48.7207" lon="7.32702">
        <ele>329.084229</ele>
        <time>2010-08-29T12:29:32Z</time>
      </trkpt>
      <trkpt lat="48.72065" lon="7.32695">
        <ele>328.420166</ele>
        <time>2010-08-29T12:29:34Z</time>
      </trkpt>
      <trkpt lat="48.72062" lon="7.32688">
        <ele>327.123291</ele>
        <time>2010-08-29T12:29:35Z</time>
      </trkpt>
      <trkpt lat="48.72059" lon="7.32682">
        <ele>326.013916</ele>
        <time>2010-08-29T12:29:36Z</time>
      </trkpt>
      <trkpt lat="48.72055" lon="7.32674">
        <ele>326.115479</ele>
        <time>2010-08-29T12:29:38Z</time>
      </trkpt>
      <trkpt lat="48.72051" lon="7.32666">
        <ele>324.818604</ele>
        <time>2010-08-29T12:29:40Z</time>
      </trkpt>
      <trkpt lat="48.72045" lon="7.32659">
        <ele>323.170166</ele>
        <time>2010-08-29T12:29:42Z</time>
      </trkpt>
      <trkpt lat="48.72038" lon="7.32651">
        <ele>323.506104</ele>
        <time>2010-08-29T12:29:44Z</time>
      </trkpt>
      <trkpt lat="48.72031" lon="7.32645">
        <ele>322.662354</ele>
        <time>2010-08-29T12:29:46Z</time>
      </trkpt>
      <trkpt lat="48.72025" lon="7.32639">
        <ele>322.052979</ele>
        <time>2010-08-29T12:29:48Z</time>
      </trkpt>
      <trkpt lat="48.72022" lon="7.32633">
        <ele>321.349854</ele>
        <time>2010-08-29T12:29:50Z</time>
      </trkpt>
      <trkpt lat="48.72018" lon="7.32628">
        <ele>320.427979</ele>
        <time>2010-08-29T12:29:52Z</time>
      </trkpt>
      <trkpt lat="48.72013" lon="7.32624">
        <ele>319.904541</ele>
        <time>2010-08-29T12:29:54Z</time>
      </trkpt>
      <trkpt lat="48.72007" lon="7.32619">
        <ele>319.443604</ele>
        <time>2010-08-29T12:29:56Z</time>
      </trkpt>
      <trkpt lat="48.72002" lon="7.32615">
        <ele>317.568604</ele>
        <time>2010-08-29T12:29:58Z</time>
      </trkpt>
      <trkpt lat="48.71996" lon="7.32611">
        <ele>316.756104</ele>
        <time>2010-08-29T12:30:00Z</time>
      </trkpt>
      <trkpt lat="48.71991" lon="7.32606">
        <ele>315.967041</ele>
        <time>2010-08-29T12:30:02Z</time>
      </trkpt>
      <trkpt lat="48.71987" lon="7.32598">
        <ele>315.224854</ele>
        <time>2010-08-29T12:30:05Z</time>
      </trkpt>
      <trkpt lat="48.71979" lon="7.32591">
        <ele>313.287354</ele>
        <time>2010-08-29T12:30:07Z</time>
      </trkpt>
      <trkpt lat="48.71972" lon="7.32589">
        <ele>313.240479</ele>
        <time>2010-08-29T12:30:09Z</time>
      </trkpt>
      <trkpt lat="48.71965" lon="7.32589">
        <ele>312.318604</ele>
        <time>2010-08-29T12:30:11Z</time>
      </trkpt>
      <trkpt lat="48.71958" lon="7.32586">
        <ele>311.357666</ele>
        <time>2010-08-29T12:30:13Z</time>
      </trkpt>
      <trkpt lat="48.71954" lon="7.32584">
        <ele>309.263916</ele>
        <time>2010-08-29T12:30:14Z</time>
      </trkpt>
      <trkpt lat="48.71949" lon="7.32581">
        <ele>308.560791</ele>
        <time>2010-08-29T12:30:15Z</time>
      </trkpt>
      <trkpt lat="48.71944" lon="7.32578">
        <ele>309.349854</ele>
        <time>2010-08-29T12:30:16Z</time>
      </trkpt>
      <trkpt lat="48.71936" lon="7.32575">
        <ele>306.302979</ele>
        <time>2010-08-29T12:30:18Z</time>
      </trkpt>
      <trkpt lat="48.71927" lon="7.32571">
        <ele>307.857666</ele>
        <time>2010-08-29T12:30:20Z</time>
      </trkpt>
      <trkpt lat="48.71923" lon="7.32569">
        <ele>306.998291</ele>
        <time>2010-08-29T12:30:21Z</time>
      </trkpt>
      <trkpt lat="48.71918" lon="7.32568">
        <ele>306.677979</ele>
        <time>2010-08-29T12:30:22Z</time>
      </trkpt>
      <trkpt lat="48.7191" lon="7.32567">
        <ele>304.779541</ele>
        <time>2010-08-29T12:30:24Z</time>
      </trkpt>
      <trkpt lat="48.71905" lon="7.32566">
        <ele>306.177979</ele>
        <time>2010-08-29T12:30:25Z</time>
      </trkpt>
      <trkpt lat="48.719" lon="7.32566">
        <ele>305.131104</ele>
        <time>2010-08-29T12:30:26Z</time>
      </trkpt>
      <trkpt lat="48.71895" lon="7.32566">
        <ele>304.170166</ele>
        <time>2010-08-29T12:30:27Z</time>
      </trkpt>
      <trkpt lat="48.7189" lon="7.32566">
        <ele>303.349854</ele>
        <time>2010-08-29T12:30:28Z</time>
      </trkpt>
      <trkpt lat="48.71884" lon="7.32567">
        <ele>302.506104</ele>
        <time>2010-08-29T12:30:29Z</time>
      </trkpt>
      <trkpt lat="48.71878" lon="7.32567">
        <ele>301.771729</ele>
        <time>2010-08-29T12:30:30Z</time>
      </trkpt>
      <trkpt lat="48.71872" lon="7.32568">
        <ele>300.888916</ele>
        <time>2010-08-29T12:30:31Z</time>
      </trkpt>
      <trkpt lat="48.71867" lon="7.3257">
        <ele>300.092041</ele>
        <time>2010-08-29T12:30:32Z</time>
      </trkpt>
      <trkpt lat="48.71863" lon="7.32571">
        <ele>299.138916</ele>
        <time>2010-08-29T12:30:33Z</time>
      </trkpt>
      <trkpt lat="48.71854" lon="7.32572">
        <ele>300.443604</ele>
        <time>2010-08-29T12:30:35Z</time>
      </trkpt>
      <trkpt lat="48.71846" lon="7.32577">
        <ele>300.506104</ele>
        <time>2010-08-29T12:30:37Z</time>
      </trkpt>
      <trkpt lat="48.71838" lon="7.32583">
        <ele>300.552979</ele>
        <time>2010-08-29T12:30:39Z</time>
      </trkpt>
      <trkpt lat="48.71833" lon="7.32587">
        <ele>300.763916</ele>
        <time>2010-08-29T12:30:40Z</time>
      </trkpt>
      <trkpt lat="48.71829" lon="7.32591">
        <ele>300.873291</ele>
        <time>2010-08-29T12:30:41Z</time>
      </trkpt>
      <trkpt lat="48.71824" lon="7.32595">
        <ele>300.506104</ele>
        <time>2010-08-29T12:30:42Z</time>
      </trkpt>
      <trkpt lat="48.71819" lon="7.32598">
        <ele>300.388916</ele>
        <time>2010-08-29T12:30:43Z</time>
      </trkpt>
      <trkpt lat="48.71814" lon="7.32601">
        <ele>300.177979</ele>
        <time>2010-08-29T12:30:44Z</time>
      </trkpt>
      <trkpt lat="48.71809" lon="7.32603">
        <ele>299.912354</ele>
        <time>2010-08-29T12:30:45Z</time>
      </trkpt>
      <trkpt lat="48.71801" lon="7.32604">
        <ele>300.443604</ele>
        <time>2010-08-29T12:30:47Z</time>
      </trkpt>
      <trkpt lat="48.71797" lon="7.32602">
        <ele>300.482666</ele>
        <time>2010-08-29T12:30:48Z</time>
      </trkpt>
      <trkpt lat="48.71793" lon="7.32597">
        <ele>299.881104</ele>
        <time>2010-08-29T12:30:49Z</time>
      </trkpt>
      <trkpt lat="48.71787" lon="7.32593">
        <ele>299.795166</ele>
        <time>2010-08-29T12:30:50Z</time>
      </trkpt>
      <trkpt lat="48.71782" lon="7.32589">
        <ele>299.693604</ele>
        <time>2010-08-29T12:30:51Z</time>
      </trkpt>
      <trkpt lat="48.71779" lon="7.32582">
        <ele>299.326416</ele>
        <time>2010-08-29T12:30:52Z</time>
      </trkpt>
      <trkpt lat="48.71775" lon="7.32575">
        <ele>299.021729</ele>
        <time>2010-08-29T12:30:53Z</time>
      </trkpt>
      <trkpt lat="48.71771" lon="7.32568">
        <ele>298.662354</ele>
        <time>2010-08-29T12:30:54Z</time>
      </trkpt>
      <trkpt lat="48.71767" lon="7.32563">
        <ele>298.427979</ele>
        <time>2010-08-29T12:30:55Z</time>
      </trkpt>
      <trkpt lat="48.71763" lon="7.32557">
        <ele>298.263916</ele>
        <time>2010-08-29T12:30:56Z</time>
      </trkpt>
      <trkpt lat="48.71758" lon="7.3255">
        <ele>297.834229</ele>
        <time>2010-08-29T12:30:57Z</time>
      </trkpt>
      <trkpt lat="48.71753" lon="7.32546">
        <ele>297.552979</ele>
        <time>2010-08-29T12:30:58Z</time>
      </trkpt>
      <trkpt lat="48.71749" lon="7.32542">
        <ele>297.279541</ele>
        <time>2010-08-29T12:30:59Z</time>
      </trkpt>
      <trkpt lat="48.71743" lon="7.32534">
        <ele>296.693604</ele>
        <time>2010-08-29T12:31:01Z</time>
      </trkpt>
      <trkpt lat="48.71737" lon="7.3253">
        <ele>296.240479</ele>
        <time>2010-08-29T12:31:03Z</time>
      </trkpt>
      <trkpt lat="48.71731" lon="7.32528">
        <ele>295.920166</ele>
        <time>2010-08-29T12:31:04Z</time>
      </trkpt>
      <trkpt lat="48.71727" lon="7.32524">
        <ele>295.443604</ele>
        <time>2010-08-29T12:31:05Z</time>
      </trkpt>
      <trkpt lat="48.71721" lon="7.32521">
        <ele>294.709229</ele>
        <time>2010-08-29T12:31:07Z</time>
      </trkpt>
      <trkpt lat="48.71717" lon="7.32515">
        <ele>293.279541</ele>
        <time>2010-08-29T12:31:08Z</time>
      </trkpt>
      <trkpt lat="48.71712" lon="7.32511">
        <ele>292.849854</ele>
        <time>2010-08-29T12:31:09Z</time>
      </trkpt>
      <trkpt lat="48.71703" lon="7.32507">
        <ele>292.029541</ele>
        <time>2010-08-29T12:31:11Z</time>
      </trkpt>
      <trkpt lat="48.71696" lon="7.32506">
        <ele>291.552979</ele>
        <time>2010-08-29T12:31:12Z</time>
      </trkpt>
      <trkpt lat="48.71688" lon="7.32505">
        <ele>290.802979</ele>
        <time>2010-08-29T12:31:13Z</time>
      </trkpt>
      <trkpt lat="48.71683" lon="7.32502">
        <ele>290.271729</ele>
        <time>2010-08-29T12:31:14Z</time>
      </trkpt>
      <trkpt lat="48.71676" lon="7.32502">
        <ele>288.826416</ele>
        <time>2010-08-29T12:31:16Z</time>
      </trkpt>
      <trkpt lat="48.71669" lon="7.32499">
        <ele>287.310791</ele>
        <time>2010-08-29T12:31:18Z</time>
      </trkpt>
      <trkpt lat="48.71665" lon="7.32499">
        <ele>286.498291</ele>
        <time>2010-08-29T12:31:19Z</time>
      </trkpt>
      <trkpt lat="48.7166" lon="7.32498">
        <ele>285.802979</ele>
        <time>2010-08-29T12:31:20Z</time>
      </trkpt>
      <trkpt lat="48.71652" lon="7.32498">
        <ele>285.131104</ele>
        <time>2010-08-29T12:31:21Z</time>
      </trkpt>
      <trkpt lat="48.71646" lon="7.32496">
        <ele>284.490479</ele>
        <time>2010-08-29T12:31:22Z</time>
      </trkpt>
      <trkpt lat="48.71641" lon="7.32495">
        <ele>283.865479</ele>
        <time>2010-08-29T12:31:23Z</time>
      </trkpt>
      <trkpt lat="48.71635" lon="7.32494">
        <ele>283.318604</ele>
        <time>2010-08-29T12:31:24Z</time>
      </trkpt>
      <trkpt lat="48.71626" lon="7.32495">
        <ele>282.263916</ele>
        <time>2010-08-29T12:31:25Z</time>
      </trkpt>
      <trkpt lat="48.7162" lon="7.32494">
        <ele>281.638916</ele>
        <time>2010-08-29T12:31:26Z</time>
      </trkpt>
      <trkpt lat="48.71616" lon="7.32494">
        <ele>281.084229</ele>
        <time>2010-08-29T12:31:27Z</time>
      </trkpt>
      <trkpt lat="48.71608" lon="7.32491">
        <ele>280.068604</ele>
        <time>2010-08-29T12:31:28Z</time>
      </trkpt>
      <trkpt lat="48.71603" lon="7.3249">
        <ele>279.802979</ele>
        <time>2010-08-29T12:31:29Z</time>
      </trkpt>
      <trkpt lat="48.71598" lon="7.32488">
        <ele>279.013916</ele>
        <time>2010-08-29T12:31:30Z</time>
      </trkpt>
      <trkpt lat="48.71591" lon="7.32483">
        <ele>276.959229</ele>
        <time>2010-08-29T12:31:32Z</time>
      </trkpt>
      <trkpt lat="48.71586" lon="7.32482">
        <ele>276.310791</ele>
        <time>2010-08-29T12:31:33Z</time>
      </trkpt>
      <trkpt lat="48.71577" lon="7.32482">
        <ele>275.701416</ele>
        <time>2010-08-29T12:31:35Z</time>
      </trkpt>
      <trkpt lat="48.7157" lon="7.32484">
        <ele>275.545166</ele>
        <time>2010-08-29T12:31:36Z</time>
      </trkpt>
      <trkpt lat="48.71565" lon="7.32486">
        <ele>275.771729</ele>
        <time>2010-08-29T12:31:37Z</time>
      </trkpt>
      <trkpt lat="48.7156" lon="7.32487">
        <ele>275.732666</ele>
        <time>2010-08-29T12:31:38Z</time>
      </trkpt>
      <trkpt lat="48.71555" lon="7.32489">
        <ele>275.873291</ele>
        <time>2010-08-29T12:31:39Z</time>
      </trkpt>
      <trkpt lat="48.71547" lon="7.32493">
        <ele>275.709229</ele>
        <time>2010-08-29T12:31:41Z</time>
      </trkpt>
      <trkpt lat="48.71543" lon="7.32496">
        <ele>275.607666</ele>
        <time>2010-08-29T12:31:42Z</time>
      </trkpt>
      <trkpt lat="48.71536" lon="7.32499">
        <ele>275.138916</ele>
        <time>2010-08-29T12:31:44Z</time>
      </trkpt>
      <trkpt lat="48.71529" lon="7.32502">
        <ele>273.795166</ele>
        <time>2010-08-29T12:31:46Z</time>
      </trkpt>
      <trkpt lat="48.71521" lon="7.32501">
        <ele>272.099854</ele>
        <time>2010-08-29T12:31:48Z</time>
      </trkpt>
      <trkpt lat="48.71513" lon="7.32495">
        <ele>271.342041</ele>
        <time>2010-08-29T12:31:50Z</time>
      </trkpt>
      <trkpt lat="48.7151" lon="7.32489">
        <ele>271.490479</ele>
        <time>2010-08-29T12:31:51Z</time>
      </trkpt>
      <trkpt lat="48.71507" lon="7.32481">
        <ele>269.060791</ele>
        <time>2010-08-29T12:31:53Z</time>
      </trkpt>
      <trkpt lat="48.71508" lon="7.32483">
        <ele>262.302979</ele>
        <time>2010-08-29T12:31:54Z</time>
      </trkpt>
      <trkpt lat="48.71514" lon="7.32478">
        <ele>258.217041</ele>
        <time>2010-08-29T12:31:56Z</time>
      </trkpt>
      <trkpt lat="48.71518" lon="7.32477">
        <ele>256.677979</ele>
        <time>2010-08-29T12:31:57Z</time>
      </trkpt>
      <trkpt lat="48.71523" lon="7.32475">
        <ele>255.467896</ele>
        <time>2010-08-29T12:31:58Z</time>
      </trkpt>
      <trkpt lat="48.71529" lon="7.32473">
        <ele>254.667114</ele>
        <time>2010-08-29T12:31:59Z</time>
      </trkpt>
      <trkpt lat="48.71533" lon="7.32472">
        <ele>253.866333</ele>
        <time>2010-08-29T12:32:00Z</time>
      </trkpt>
      <trkpt lat="48.71541" lon="7.32472">
        <ele>253.038208</ele>
        <time>2010-08-29T12:32:01Z</time>
      </trkpt>
      <trkpt lat="48.71547" lon="7.3247">
        <ele>252.475708</ele>
        <time>2010-08-29T12:32:02Z</time>
      </trkpt>
      <trkpt lat="48.71553" lon="7.32467">
        <ele>252.116333</ele>
        <time>2010-08-29T12:32:03Z</time>
      </trkpt>
      <trkpt lat="48.7156" lon="7.32465">
        <ele>252.284302</ele>
        <time>2010-08-29T12:32:04Z</time>
      </trkpt>
      <trkpt lat="48.71568" lon="7.32463">
        <ele>251.905396</ele>
        <time>2010-08-29T12:32:05Z</time>
      </trkpt>
      <trkpt lat="48.71575" lon="7.3246">
        <ele>251.147583</ele>
        <time>2010-08-29T12:32:06Z</time>
      </trkpt>
      <trkpt lat="48.71582" lon="7.32458">
        <ele>250.167114</ele>
        <time>2010-08-29T12:32:07Z</time>
      </trkpt>
      <trkpt lat="48.71589" lon="7.32456">
        <ele>249.499146</ele>
        <time>2010-08-29T12:32:08Z</time>
      </trkpt>
      <trkpt lat="48.71596" lon="7.32454">
        <ele>249.182739</ele>
        <time>2010-08-29T12:32:09Z</time>
      </trkpt>
      <trkpt lat="48.71604" lon="7.32452">
        <ele>248.284302</ele>
        <time>2010-08-29T12:32:10Z</time>
      </trkpt>
      <trkpt lat="48.71611" lon="7.32449">
        <ele>248.065552</ele>
        <time>2010-08-29T12:32:11Z</time>
      </trkpt>
      <trkpt lat="48.71619" lon="7.32447">
        <ele>247.085083</ele>
        <time>2010-08-29T12:32:12Z</time>
      </trkpt>
      <trkpt lat="48.71626" lon="7.32445">
        <ele>246.182739</ele>
        <time>2010-08-29T12:32:13Z</time>
      </trkpt>
      <trkpt lat="48.71633" lon="7.32443">
        <ele>245.397583</ele>
        <time>2010-08-29T12:32:14Z</time>
      </trkpt>
      <trkpt lat="48.7164" lon="7.3244">
        <ele>244.987427</ele>
        <time>2010-08-29T12:32:15Z</time>
      </trkpt>
      <trkpt lat="48.71649" lon="7.32438">
        <ele>244.147583</ele>
        <time>2010-08-29T12:32:16Z</time>
      </trkpt>
      <trkpt lat="48.71656" lon="7.32436">
        <ele>243.553833</ele>
        <time>2010-08-29T12:32:17Z</time>
      </trkpt>
      <trkpt lat="48.71664" lon="7.32435">
        <ele>241.960083</ele>
        <time>2010-08-29T12:32:18Z</time>
      </trkpt>
      <trkpt lat="48.71671" lon="7.32433">
        <ele>240.780396</ele>
        <time>2010-08-29T12:32:19Z</time>
      </trkpt>
      <trkpt lat="48.71684" lon="7.32431">
        <ele>238.268677</ele>
        <time>2010-08-29T12:32:20Z</time>
      </trkpt>
      <trkpt lat="48.71693" lon="7.32428">
        <ele>237.092896</ele>
        <time>2010-08-29T12:32:21Z</time>
      </trkpt>
      <trkpt lat="48.71706" lon="7.32425">
        <ele>237.003052</ele>
        <time>2010-08-29T12:32:22Z</time>
      </trkpt>
      <trkpt lat="48.71714" lon="7.32421">
        <ele>236.135864</ele>
        <time>2010-08-29T12:32:23Z</time>
      </trkpt>
      <trkpt lat="48.71721" lon="7.32417">
        <ele>238.893677</ele>
        <time>2010-08-29T12:32:24Z</time>
      </trkpt>
      <trkpt lat="48.71729" lon="7.32412">
        <ele>238.233521</ele>
        <time>2010-08-29T12:32:25Z</time>
      </trkpt>
      <trkpt lat="48.71738" lon="7.32406">
        <ele>237.635864</ele>
        <time>2010-08-29T12:32:26Z</time>
      </trkpt>
      <trkpt lat="48.71746" lon="7.32402">
        <ele>235.897583</ele>
        <time>2010-08-29T12:32:27Z</time>
      </trkpt>
      <trkpt lat="48.71753" lon="7.32396">
        <ele>235.393677</ele>
        <time>2010-08-29T12:32:28Z</time>
      </trkpt>
      <trkpt lat="48.7176" lon="7.32388">
        <ele>234.913208</ele>
        <time>2010-08-29T12:32:29Z</time>
      </trkpt>
      <trkpt lat="48.71767" lon="7.32381">
        <ele>234.112427</ele>
        <time>2010-08-29T12:32:30Z</time>
      </trkpt>
      <trkpt lat="48.71774" lon="7.32374">
        <ele>233.288208</ele>
        <time>2010-08-29T12:32:31Z</time>
      </trkpt>
      <trkpt lat="48.71782" lon="7.32367">
        <ele>232.667114</ele>
        <time>2010-08-29T12:32:32Z</time>
      </trkpt>
      <trkpt lat="48.71792" lon="7.32359">
        <ele>231.065552</ele>
        <time>2010-08-29T12:32:33Z</time>
      </trkpt>
      <trkpt lat="48.718" lon="7.32351">
        <ele>228.909302</ele>
        <time>2010-08-29T12:32:34Z</time>
      </trkpt>
      <trkpt lat="48.71806" lon="7.32344">
        <ele>228.303833</ele>
        <time>2010-08-29T12:32:35Z</time>
      </trkpt>
      <trkpt lat="48.71811" lon="7.32337">
        <ele>227.764771</ele>
        <time>2010-08-29T12:32:36Z</time>
      </trkpt>
      <trkpt lat="48.71816" lon="7.3233">
        <ele>227.456177</ele>
        <time>2010-08-29T12:32:37Z</time>
      </trkpt>
      <trkpt lat="48.71823" lon="7.32325">
        <ele>226.561646</ele>
        <time>2010-08-29T12:32:38Z</time>
      </trkpt>
      <trkpt lat="48.7183" lon="7.32319">
        <ele>225.335083</ele>
        <time>2010-08-29T12:32:39Z</time>
      </trkpt>
      <trkpt lat="48.71835" lon="7.32313">
        <ele>224.874146</ele>
        <time>2010-08-29T12:32:40Z</time>
      </trkpt>
      <trkpt lat="48.7184" lon="7.32307">
        <ele>224.885864</ele>
        <time>2010-08-29T12:32:41Z</time>
      </trkpt>
      <trkpt lat="48.71845" lon="7.32302">
        <ele>224.272583</ele>
        <time>2010-08-29T12:32:42Z</time>
      </trkpt>
      <trkpt lat="48.71848" lon="7.32296">
        <ele>224.077271</ele>
        <time>2010-08-29T12:32:43Z</time>
      </trkpt>
      <trkpt lat="48.71852" lon="7.32291">
        <ele>223.772583</ele>
        <time>2010-08-29T12:32:44Z</time>
      </trkpt>
      <trkpt lat="48.71856" lon="7.32286">
        <ele>223.561646</ele>
        <time>2010-08-29T12:32:45Z</time>
      </trkpt>
      <trkpt lat="48.71861" lon="7.32282">
        <ele>223.506958</ele>
        <time>2010-08-29T12:32:47Z</time>
      </trkpt>
      <trkpt lat="48.71865" lon="7.32277">
        <ele>224.307739</ele>
        <time>2010-08-29T12:33:03Z</time>
      </trkpt>
      <trkpt lat="48.7187" lon="7.32273">
        <ele>224.233521</ele>
        <time>2010-08-29T12:33:07Z</time>
      </trkpt>
      <trkpt lat="48.71874" lon="7.32269">
        <ele>222.163208</ele>
        <time>2010-08-29T12:33:09Z</time>
      </trkpt>
      <trkpt lat="48.71889" lon="7.32267">
        <ele>250.768677</ele>
        <time>2010-08-29T12:43:23Z</time>
      </trkpt>
      <trkpt lat="48.71897" lon="7.32266">
        <ele>251.768677</ele>
        <time>2010-08-29T12:43:26Z</time>
      </trkpt>
      <trkpt lat="48.71915" lon="7.3227">
        <ele>247.600708</ele>
        <time>2010-08-29T12:45:49Z</time>
      </trkpt>
      <trkpt lat="48.7191" lon="7.32268">
        <ele>245.327271</ele>
        <time>2010-08-29T12:46:17Z</time>
      </trkpt>
      <trkpt lat="48.71921" lon="7.3227">
        <ele>242.881958</ele>
        <time>2010-08-29T12:46:39Z</time>
      </trkpt>
      <trkpt lat="48.71922" lon="7.3227">
        <ele>266.115479</ele>
        <time>2010-08-29T13:34:00Z</time>
      </trkpt>
      <trkpt lat="48.71927" lon="7.3227">
        <ele>266.271729</ele>
        <time>2010-08-29T13:34:01Z</time>
      </trkpt>
      <trkpt lat="48.71933" lon="7.32268">
        <ele>266.638916</ele>
        <time>2010-08-29T13:34:03Z</time>
      </trkpt>
      <trkpt lat="48.71935" lon="7.32267">
        <ele>267.474854</ele>
        <time>2010-08-29T13:34:05Z</time>
      </trkpt>
      <trkpt lat="48.71941" lon="7.32261">
        <ele>267.076416</ele>
        <time>2010-08-29T13:34:07Z</time>
      </trkpt>
      <trkpt lat="48.71948" lon="7.32256">
        <ele>267.240479</ele>
        <time>2010-08-29T13:34:09Z</time>
      </trkpt>
      <trkpt lat="48.71956" lon="7.3225">
        <ele>266.974854</ele>
        <time>2010-08-29T13:34:11Z</time>
      </trkpt>
      <trkpt lat="48.71963" lon="7.32241">
        <ele>266.865479</ele>
        <time>2010-08-29T13:34:13Z</time>
      </trkpt>
      <trkpt lat="48.71969" lon="7.32232">
        <ele>266.685791</ele>
        <time>2010-08-29T13:34:15Z</time>
      </trkpt>
      <trkpt lat="48.71974" lon="7.32222">
        <ele>266.443604</ele>
        <time>2010-08-29T13:34:17Z</time>
      </trkpt>
      <trkpt lat="48.71978" lon="7.3221">
        <ele>266.146729</ele>
        <time>2010-08-29T13:34:19Z</time>
      </trkpt>
      <trkpt lat="48.71981" lon="7.32204">
        <ele>265.935791</ele>
        <time>2010-08-29T13:34:20Z</time>
      </trkpt>
      <trkpt lat="48.71984" lon="7.32199">
        <ele>265.560791</ele>
        <time>2010-08-29T13:34:21Z</time>
      </trkpt>
      <trkpt lat="48.71987" lon="7.32193">
        <ele>265.256104</ele>
        <time>2010-08-29T13:34:22Z</time>
      </trkpt>
      <trkpt lat="48.7199" lon="7.32187">
        <ele>264.779541</ele>
        <time>2010-08-29T13:34:23Z</time>
      </trkpt>
      <trkpt lat="48.71994" lon="7.32182">
        <ele>264.490479</ele>
        <time>2010-08-29T13:34:24Z</time>
      </trkpt>
      <trkpt lat="48.71997" lon="7.32178">
        <ele>264.131104</ele>
        <time>2010-08-29T13:34:25Z</time>
      </trkpt>
      <trkpt lat="48.72002" lon="7.32173">
        <ele>263.795166</ele>
        <time>2010-08-29T13:34:26Z</time>
      </trkpt>
      <trkpt lat="48.72006" lon="7.3217">
        <ele>263.693604</ele>
        <time>2010-08-29T13:34:27Z</time>
      </trkpt>
      <trkpt lat="48.7201" lon="7.32165">
        <ele>263.318604</ele>
        <time>2010-08-29T13:34:28Z</time>
      </trkpt>
      <trkpt lat="48.72016" lon="7.32158">
        <ele>262.521729</ele>
        <time>2010-08-29T13:34:30Z</time>
      </trkpt>
      <trkpt lat="48.72024" lon="7.32152">
        <ele>261.935791</ele>
        <time>2010-08-29T13:34:32Z</time>
      </trkpt>
      <trkpt lat="48.72027" lon="7.32147">
        <ele>261.638916</ele>
        <time>2010-08-29T13:34:33Z</time>
      </trkpt>
      <trkpt lat="48.72032" lon="7.32142">
        <ele>261.334229</ele>
        <time>2010-08-29T13:34:34Z</time>
      </trkpt>
      <trkpt lat="48.72038" lon="7.32138">
        <ele>260.810791</ele>
        <time>2010-08-29T13:34:35Z</time>
      </trkpt>
      <trkpt lat="48.72043" lon="7.32133">
        <ele>260.560791</ele>
        <time>2010-08-29T13:34:36Z</time>
      </trkpt>
      <trkpt lat="48.72048" lon="7.32128">
        <ele>260.365479</ele>
        <time>2010-08-29T13:34:37Z</time>
      </trkpt>
      <trkpt lat="48.72052" lon="7.32121">
        <ele>259.842041</ele>
        <time>2010-08-29T13:34:38Z</time>
      </trkpt>
      <trkpt lat="48.72052" lon="7.32113">
        <ele>259.607666</ele>
        <time>2010-08-29T13:34:39Z</time>
      </trkpt>
      <trkpt lat="48.72056" lon="7.32106">
        <ele>259.310791</ele>
        <time>2010-08-29T13:34:40Z</time>
      </trkpt>
      <trkpt lat="48.7206" lon="7.32101">
        <ele>259.123291</ele>
        <time>2010-08-29T13:34:41Z</time>
      </trkpt>
      <trkpt lat="48.72063" lon="7.32096">
        <ele>259.060791</ele>
        <time>2010-08-29T13:34:42Z</time>
      </trkpt>
      <trkpt lat="48.72069" lon="7.32085">
        <ele>258.920166</ele>
        <time>2010-08-29T13:34:44Z</time>
      </trkpt>
      <trkpt lat="48.72072" lon="7.32074">
        <ele>258.888916</ele>
        <time>2010-08-29T13:34:46Z</time>
      </trkpt>
      <trkpt lat="48.72072" lon="7.32067">
        <ele>258.592041</ele>
        <time>2010-08-29T13:34:47Z</time>
      </trkpt>
      <trkpt lat="48.72073" lon="7.32057">
        <ele>258.123291</ele>
        <time>2010-08-29T13:34:49Z</time>
      </trkpt>
      <trkpt lat="48.72075" lon="7.3205">
        <ele>257.138916</ele>
        <time>2010-08-29T13:34:51Z</time>
      </trkpt>
      <trkpt lat="48.72078" lon="7.32044">
        <ele>256.138916</ele>
        <time>2010-08-29T13:34:53Z</time>
      </trkpt>
      <trkpt lat="48.72077" lon="7.32043">
        <ele>246.553833</ele>
        <time>2010-08-29T13:34:54Z</time>
      </trkpt>
      <trkpt lat="48.72081" lon="7.32036">
        <ele>245.147583</ele>
        <time>2010-08-29T13:34:56Z</time>
      </trkpt>
      <trkpt lat="48.72082" lon="7.3203">
        <ele>239.046021</ele>
        <time>2010-08-29T13:34:59Z</time>
      </trkpt>
      <trkpt lat="48.72084" lon="7.32024">
        <ele>234.792114</ele>
        <time>2010-08-29T13:35:01Z</time>
      </trkpt>
      <trkpt lat="48.72084" lon="7.32018">
        <ele>230.733521</ele>
        <time>2010-08-29T13:35:03Z</time>
      </trkpt>
      <trkpt lat="48.72089" lon="7.32009">
        <ele>229.440552</ele>
        <time>2010-08-29T13:35:05Z</time>
      </trkpt>
      <trkpt lat="48.72092" lon="7.32005">
        <ele>228.694458</ele>
        <time>2010-08-29T13:35:06Z</time>
      </trkpt>
      <trkpt lat="48.72096" lon="7.32001">
        <ele>226.995239</ele>
        <time>2010-08-29T13:35:07Z</time>
      </trkpt>
      <trkpt lat="48.72098" lon="7.31992">
        <ele>224.760864</ele>
        <time>2010-08-29T13:35:09Z</time>
      </trkpt>
      <trkpt lat="48.721" lon="7.31982">
        <ele>223.108521</ele>
        <time>2010-08-29T13:35:11Z</time>
      </trkpt>
      <trkpt lat="48.72103" lon="7.31973">
        <ele>221.862427</ele>
        <time>2010-08-29T13:35:13Z</time>
      </trkpt>
      <trkpt lat="48.72104" lon="7.31963">
        <ele>219.038208</ele>
        <time>2010-08-29T13:35:15Z</time>
      </trkpt>
      <trkpt lat="48.72104" lon="7.31954">
        <ele>217.592896</ele>
        <time>2010-08-29T13:35:17Z</time>
      </trkpt>
      <trkpt lat="48.72103" lon="7.31946">
        <ele>215.792114</ele>
        <time>2010-08-29T13:35:19Z</time>
      </trkpt>
      <trkpt lat="48.72099" lon="7.31939">
        <ele>213.819458</ele>
        <time>2010-08-29T13:35:21Z</time>
      </trkpt>
      <trkpt lat="48.72098" lon="7.31931">
        <ele>213.077271</ele>
        <time>2010-08-29T13:35:23Z</time>
      </trkpt>
      <trkpt lat="48.72098" lon="7.31924">
        <ele>212.944458</ele>
        <time>2010-08-29T13:35:25Z</time>
      </trkpt>
      <trkpt lat="48.72097" lon="7.31916">
        <ele>212.874146</ele>
        <time>2010-08-29T13:35:28Z</time>
      </trkpt>
      <trkpt lat="48.72097" lon="7.31922">
        <ele>211.592896</ele>
        <time>2010-08-29T13:35:38Z</time>
      </trkpt>
      <trkpt lat="48.72097" lon="7.31932">
        <ele>210.815552</ele>
        <time>2010-08-29T13:35:42Z</time>
      </trkpt>
      <trkpt lat="48.72104" lon="7.31934">
        <ele>210.983521</ele>
        <time>2010-08-29T13:35:43Z</time>
      </trkpt>
      <trkpt lat="48.72109" lon="7.31941">
        <ele>211.378052</ele>
        <time>2010-08-29T13:35:45Z</time>
      </trkpt>
      <trkpt lat="48.72107" lon="7.31949">
        <ele>211.370239</ele>
        <time>2010-08-29T13:35:47Z</time>
      </trkpt>
      <trkpt lat="48.72107" lon="7.31958">
        <ele>211.499146</ele>
        <time>2010-08-29T13:35:49Z</time>
      </trkpt>
      <trkpt lat="48.72099" lon="7.31965">
        <ele>212.311646</ele>
        <time>2010-08-29T13:35:51Z</time>
      </trkpt>
      <trkpt lat="48.72093" lon="7.31966">
        <ele>213.022583</ele>
        <time>2010-08-29T13:35:52Z</time>
      </trkpt>
      <trkpt lat="48.72088" lon="7.31969">
        <ele>214.030396</ele>
        <time>2010-08-29T13:35:53Z</time>
      </trkpt>
      <trkpt lat="48.72083" lon="7.31974">
        <ele>215.155396</ele>
        <time>2010-08-29T13:35:55Z</time>
      </trkpt>
      <trkpt lat="48.72081" lon="7.31981">
        <ele>215.678833</ele>
        <time>2010-08-29T13:35:57Z</time>
      </trkpt>
      <trkpt lat="48.7208" lon="7.31991">
        <ele>214.499146</ele>
        <time>2010-08-29T13:35:59Z</time>
      </trkpt>
      <trkpt lat="48.72077" lon="7.31998">
        <ele>214.788208</ele>
        <time>2010-08-29T13:36:01Z</time>
      </trkpt>
      <trkpt lat="48.72073" lon="7.32003">
        <ele>213.131958</ele>
        <time>2010-08-29T13:36:02Z</time>
      </trkpt>
      <trkpt lat="48.72069" lon="7.32009">
        <ele>213.838989</ele>
        <time>2010-08-29T13:36:05Z</time>
      </trkpt>
      <trkpt lat="48.72064" lon="7.32017">
        <ele>214.131958</ele>
        <time>2010-08-29T13:36:07Z</time>
      </trkpt>
      <trkpt lat="48.72057" lon="7.32016">
        <ele>214.624146</ele>
        <time>2010-08-29T13:36:09Z</time>
      </trkpt>
      <trkpt lat="48.72053" lon="7.32021">
        <ele>214.120239</ele>
        <time>2010-08-29T13:36:11Z</time>
      </trkpt>
      <trkpt lat="48.72047" lon="7.32028">
        <ele>216.393677</ele>
        <time>2010-08-29T13:36:14Z</time>
      </trkpt>
      <trkpt lat="48.72043" lon="7.32038">
        <ele>218.026489</ele>
        <time>2010-08-29T13:36:16Z</time>
      </trkpt>
      <trkpt lat="48.72041" lon="7.32044">
        <ele>218.784302</ele>
        <time>2010-08-29T13:36:17Z</time>
      </trkpt>
      <trkpt lat="48.72043" lon="7.32051">
        <ele>219.249146</ele>
        <time>2010-08-29T13:36:18Z</time>
      </trkpt>
      <trkpt lat="48.72048" lon="7.32061">
        <ele>219.663208</ele>
        <time>2010-08-29T13:36:20Z</time>
      </trkpt>
      <trkpt lat="48.72054" lon="7.32069">
        <ele>220.022583</ele>
        <time>2010-08-29T13:36:22Z</time>
      </trkpt>
      <trkpt lat="48.72061" lon="7.32071">
        <ele>219.995239</ele>
        <time>2010-08-29T13:36:24Z</time>
      </trkpt>
      <trkpt lat="48.72065" lon="7.32067">
        <ele>220.397583</ele>
        <time>2010-08-29T13:36:26Z</time>
      </trkpt>
      <trkpt lat="48.72071" lon="7.32065">
        <ele>220.483521</ele>
        <time>2010-08-29T13:36:27Z</time>
      </trkpt>
      <trkpt lat="48.72077" lon="7.3206">
        <ele>221.424927</ele>
        <time>2010-08-29T13:36:29Z</time>
      </trkpt>
      <trkpt lat="48.72081" lon="7.32056">
        <ele>222.186646</ele>
        <time>2010-08-29T13:36:31Z</time>
      </trkpt>
      <trkpt lat="48.72085" lon="7.32051">
        <ele>222.842896</ele>
        <time>2010-08-29T13:36:33Z</time>
      </trkpt>
      <trkpt lat="48.72089" lon="7.32048">
        <ele>223.397583</ele>
        <time>2010-08-29T13:36:35Z</time>
      </trkpt>
      <trkpt lat="48.72094" lon="7.32044">
        <ele>224.014771</ele>
        <time>2010-08-29T13:36:37Z</time>
      </trkpt>
      <trkpt lat="48.721" lon="7.32039">
        <ele>224.682739</ele>
        <time>2010-08-29T13:36:39Z</time>
      </trkpt>
      <trkpt lat="48.72106" lon="7.32038">
        <ele>225.487427</ele>
        <time>2010-08-29T13:36:41Z</time>
      </trkpt>
      <trkpt lat="48.72111" lon="7.32038">
        <ele>226.366333</ele>
        <time>2010-08-29T13:36:43Z</time>
      </trkpt>
      <trkpt lat="48.72117" lon="7.32038">
        <ele>227.467896</ele>
        <time>2010-08-29T13:36:45Z</time>
      </trkpt>
      <trkpt lat="48.72124" lon="7.32039">
        <ele>230.053833</ele>
        <time>2010-08-29T13:36:47Z</time>
      </trkpt>
      <trkpt lat="48.72129" lon="7.32039">
        <ele>230.128052</ele>
        <time>2010-08-29T13:36:48Z</time>
      </trkpt>
      <trkpt lat="48.72133" lon="7.3204">
        <ele>230.737427</ele>
        <time>2010-08-29T13:36:49Z</time>
      </trkpt>
      <trkpt lat="48.72144" lon="7.32042">
        <ele>229.128052</ele>
        <time>2010-08-29T13:36:50Z</time>
      </trkpt>
      <trkpt lat="48.72149" lon="7.32044">
        <ele>228.924927</ele>
        <time>2010-08-29T13:36:51Z</time>
      </trkpt>
      <trkpt lat="48.72153" lon="7.32047">
        <ele>230.354614</ele>
        <time>2010-08-29T13:36:54Z</time>
      </trkpt>
      <trkpt lat="48.72157" lon="7.32054">
        <ele>230.585083</ele>
        <time>2010-08-29T13:36:58Z</time>
      </trkpt>
      <trkpt lat="48.72157" lon="7.32062">
        <ele>230.315552</ele>
        <time>2010-08-29T13:37:00Z</time>
      </trkpt>
      <trkpt lat="48.72156" lon="7.3207">
        <ele>230.268677</ele>
        <time>2010-08-29T13:37:02Z</time>
      </trkpt>
      <trkpt lat="48.72158" lon="7.32077">
        <ele>229.588989</ele>
        <time>2010-08-29T13:37:05Z</time>
      </trkpt>
      <trkpt lat="48.72161" lon="7.32084">
        <ele>229.424927</ele>
        <time>2010-08-29T13:37:08Z</time>
      </trkpt>
      <trkpt lat="48.72157" lon="7.3209">
        <ele>226.096802</ele>
        <time>2010-08-29T13:37:10Z</time>
      </trkpt>
      <trkpt lat="48.72159" lon="7.32097">
        <ele>226.424927</ele>
        <time>2010-08-29T13:37:13Z</time>
      </trkpt>
      <trkpt lat="48.72162" lon="7.32105">
        <ele>227.077271</ele>
        <time>2010-08-29T13:37:17Z</time>
      </trkpt>
      <trkpt lat="48.72165" lon="7.32112">
        <ele>226.803833</ele>
        <time>2010-08-29T13:37:20Z</time>
      </trkpt>
      <trkpt lat="48.7217" lon="7.32116">
        <ele>225.194458</ele>
        <time>2010-08-29T13:37:21Z</time>
      </trkpt>
      <trkpt lat="48.72174" lon="7.3212">
        <ele>224.413208</ele>
        <time>2010-08-29T13:37:22Z</time>
      </trkpt>
      <trkpt lat="48.72177" lon="7.32125">
        <ele>224.190552</ele>
        <time>2010-08-29T13:37:24Z</time>
      </trkpt>
      <trkpt lat="48.72181" lon="7.32129">
        <ele>223.745239</ele>
        <time>2010-08-29T13:37:26Z</time>
      </trkpt>
      <trkpt lat="48.72182" lon="7.32137">
        <ele>223.663208</ele>
        <time>2010-08-29T13:37:29Z</time>
      </trkpt>
      <trkpt lat="48.72184" lon="7.32145">
        <ele>223.522583</ele>
        <time>2010-08-29T13:37:32Z</time>
      </trkpt>
      <trkpt lat="48.72186" lon="7.32155">
        <ele>223.491333</ele>
        <time>2010-08-29T13:37:35Z</time>
      </trkpt>
      <trkpt lat="48.72187" lon="7.32162">
        <ele>222.815552</ele>
        <time>2010-08-29T13:37:37Z</time>
      </trkpt>
      <trkpt lat="48.72186" lon="7.32169">
        <ele>222.842896</ele>
        <time>2010-08-29T13:37:38Z</time>
      </trkpt>
      <trkpt lat="48.72187" lon="7.32182">
        <ele>222.264771</ele>
        <time>2010-08-29T13:37:40Z</time>
      </trkpt>
      <trkpt lat="48.72189" lon="7.32196">
        <ele>221.671021</ele>
        <time>2010-08-29T13:37:42Z</time>
      </trkpt>
      <trkpt lat="48.7219" lon="7.32203">
        <ele>221.858521</ele>
        <time>2010-08-29T13:37:43Z</time>
      </trkpt>
      <trkpt lat="48.72192" lon="7.3221">
        <ele>221.663208</ele>
        <time>2010-08-29T13:37:44Z</time>
      </trkpt>
      <trkpt lat="48.72194" lon="7.32216">
        <ele>221.510864</ele>
        <time>2010-08-29T13:37:45Z</time>
      </trkpt>
      <trkpt lat="48.72196" lon="7.32229">
        <ele>221.358521</ele>
        <time>2010-08-29T13:37:47Z</time>
      </trkpt>
      <trkpt lat="48.72197" lon="7.32241">
        <ele>221.049927</ele>
        <time>2010-08-29T13:37:49Z</time>
      </trkpt>
      <trkpt lat="48.722" lon="7.32246">
        <ele>221.108521</ele>
        <time>2010-08-29T13:37:50Z</time>
      </trkpt>
      <trkpt lat="48.72203" lon="7.32252">
        <ele>220.842896</ele>
        <time>2010-08-29T13:37:51Z</time>
      </trkpt>
      <trkpt lat="48.72205" lon="7.32258">
        <ele>220.776489</ele>
        <time>2010-08-29T13:37:52Z</time>
      </trkpt>
      <trkpt lat="48.72209" lon="7.32271">
        <ele>220.264771</ele>
        <time>2010-08-29T13:37:54Z</time>
      </trkpt>
      <trkpt lat="48.72212" lon="7.32277">
        <ele>220.128052</ele>
        <time>2010-08-29T13:37:55Z</time>
      </trkpt>
      <trkpt lat="48.72218" lon="7.32282">
        <ele>219.768677</ele>
        <time>2010-08-29T13:37:56Z</time>
      </trkpt>
      <trkpt lat="48.72227" lon="7.32287">
        <ele>219.194458</ele>
        <time>2010-08-29T13:37:57Z</time>
      </trkpt>
      <trkpt lat="48.72233" lon="7.32293">
        <ele>218.862427</ele>
        <time>2010-08-29T13:37:58Z</time>
      </trkpt>
      <trkpt lat="48.72237" lon="7.32299">
        <ele>218.780396</ele>
        <time>2010-08-29T13:37:59Z</time>
      </trkpt>
      <trkpt lat="48.7224" lon="7.32305">
        <ele>218.698364</ele>
        <time>2010-08-29T13:38:00Z</time>
      </trkpt>
      <trkpt lat="48.72244" lon="7.3231">
        <ele>218.397583</ele>
        <time>2010-08-29T13:38:01Z</time>
      </trkpt>
      <trkpt lat="48.72248" lon="7.32316">
        <ele>218.135864</ele>
        <time>2010-08-29T13:38:02Z</time>
      </trkpt>
      <trkpt lat="48.72252" lon="7.32322">
        <ele>217.897583</ele>
        <time>2010-08-29T13:38:03Z</time>
      </trkpt>
      <trkpt lat="48.72258" lon="7.32326">
        <ele>217.463989</ele>
        <time>2010-08-29T13:38:04Z</time>
      </trkpt>
      <trkpt lat="48.7226" lon="7.32333">
        <ele>217.256958</ele>
        <time>2010-08-29T13:38:05Z</time>
      </trkpt>
      <trkpt lat="48.72264" lon="7.32339">
        <ele>216.878052</ele>
        <time>2010-08-29T13:38:06Z</time>
      </trkpt>
      <trkpt lat="48.72265" lon="7.32347">
        <ele>216.241333</ele>
        <time>2010-08-29T13:38:07Z</time>
      </trkpt>
      <trkpt lat="48.72268" lon="7.32353">
        <ele>216.057739</ele>
        <time>2010-08-29T13:38:08Z</time>
      </trkpt>
      <trkpt lat="48.72272" lon="7.32359">
        <ele>216.217896</ele>
        <time>2010-08-29T13:38:09Z</time>
      </trkpt>
      <trkpt lat="48.72275" lon="7.32366">
        <ele>216.003052</ele>
        <time>2010-08-29T13:38:10Z</time>
      </trkpt>
      <trkpt lat="48.72278" lon="7.32371">
        <ele>215.835083</ele>
        <time>2010-08-29T13:38:11Z</time>
      </trkpt>
      <trkpt lat="48.72281" lon="7.32378">
        <ele>215.780396</ele>
        <time>2010-08-29T13:38:12Z</time>
      </trkpt>
      <trkpt lat="48.72284" lon="7.32384">
        <ele>215.549927</ele>
        <time>2010-08-29T13:38:13Z</time>
      </trkpt>
      <trkpt lat="48.72286" lon="7.32391">
        <ele>215.393677</ele>
        <time>2010-08-29T13:38:14Z</time>
      </trkpt>
      <trkpt lat="48.72289" lon="7.32399">
        <ele>215.456177</ele>
        <time>2010-08-29T13:38:15Z</time>
      </trkpt>
      <trkpt lat="48.72292" lon="7.32405">
        <ele>215.534302</ele>
        <time>2010-08-29T13:38:16Z</time>
      </trkpt>
      <trkpt lat="48.72297" lon="7.32412">
        <ele>216.077271</ele>
        <time>2010-08-29T13:38:17Z</time>
      </trkpt>
      <trkpt lat="48.723" lon="7.32418">
        <ele>216.042114</ele>
        <time>2010-08-29T13:38:18Z</time>
      </trkpt>
      <trkpt lat="48.72304" lon="7.32423">
        <ele>215.815552</ele>
        <time>2010-08-29T13:38:19Z</time>
      </trkpt>
      <trkpt lat="48.72308" lon="7.32429">
        <ele>216.057739</ele>
        <time>2010-08-29T13:38:20Z</time>
      </trkpt>
      <trkpt lat="48.72313" lon="7.32435">
        <ele>216.370239</ele>
        <time>2010-08-29T13:38:21Z</time>
      </trkpt>
      <trkpt lat="48.72317" lon="7.32442">
        <ele>217.999146</ele>
        <time>2010-08-29T13:38:22Z</time>
      </trkpt>
      <trkpt lat="48.7232" lon="7.32448">
        <ele>218.913208</ele>
        <time>2010-08-29T13:38:23Z</time>
      </trkpt>
      <trkpt lat="48.72324" lon="7.32454">
        <ele>219.924927</ele>
        <time>2010-08-29T13:38:24Z</time>
      </trkpt>
      <trkpt lat="48.72327" lon="7.3246">
        <ele>219.448364</ele>
        <time>2010-08-29T13:38:25Z</time>
      </trkpt>
      <trkpt lat="48.7233" lon="7.32466">
        <ele>220.538208</ele>
        <time>2010-08-29T13:38:26Z</time>
      </trkpt>
      <trkpt lat="48.72334" lon="7.32472">
        <ele>221.210083</ele>
        <time>2010-08-29T13:38:27Z</time>
      </trkpt>
      <trkpt lat="48.72337" lon="7.32478">
        <ele>221.811646</ele>
        <time>2010-08-29T13:38:28Z</time>
      </trkpt>
      <trkpt lat="48.72342" lon="7.32489">
        <ele>221.788208</ele>
        <time>2010-08-29T13:38:30Z</time>
      </trkpt>
      <trkpt lat="48.72346" lon="7.32494">
        <ele>222.674927</ele>
        <time>2010-08-29T13:38:31Z</time>
      </trkpt>
      <trkpt lat="48.72353" lon="7.32503">
        <ele>222.495239</ele>
        <time>2010-08-29T13:38:33Z</time>
      </trkpt>
      <trkpt lat="48.72358" lon="7.32512">
        <ele>222.737427</ele>
        <time>2010-08-29T13:38:35Z</time>
      </trkpt>
      <trkpt lat="48.7236" lon="7.32524">
        <ele>222.444458</ele>
        <time>2010-08-29T13:38:37Z</time>
      </trkpt>
      <trkpt lat="48.72368" lon="7.32532">
        <ele>221.835083</ele>
        <time>2010-08-29T13:38:39Z</time>
      </trkpt>
      <trkpt lat="48.72372" lon="7.32536">
        <ele>221.854614</ele>
        <time>2010-08-29T13:38:40Z</time>
      </trkpt>
      <trkpt lat="48.72376" lon="7.3254">
        <ele>221.866333</ele>
        <time>2010-08-29T13:38:41Z</time>
      </trkpt>
      <trkpt lat="48.72381" lon="7.32545">
        <ele>221.772583</ele>
        <time>2010-08-29T13:38:42Z</time>
      </trkpt>
      <trkpt lat="48.72385" lon="7.32551">
        <ele>221.553833</ele>
        <time>2010-08-29T13:38:43Z</time>
      </trkpt>
      <trkpt lat="48.72388" lon="7.32557">
        <ele>221.561646</ele>
        <time>2010-08-29T13:38:44Z</time>
      </trkpt>
      <trkpt lat="48.72392" lon="7.32563">
        <ele>221.475708</ele>
        <time>2010-08-29T13:38:45Z</time>
      </trkpt>
      <trkpt lat="48.72395" lon="7.32569">
        <ele>221.276489</ele>
        <time>2010-08-29T13:38:46Z</time>
      </trkpt>
      <trkpt lat="48.72399" lon="7.32574">
        <ele>221.100708</ele>
        <time>2010-08-29T13:38:47Z</time>
      </trkpt>
      <trkpt lat="48.72402" lon="7.3258">
        <ele>221.049927</ele>
        <time>2010-08-29T13:38:48Z</time>
      </trkpt>
      <trkpt lat="48.72405" lon="7.32587">
        <ele>221.635864</ele>
        <time>2010-08-29T13:38:49Z</time>
      </trkpt>
      <trkpt lat="48.72407" lon="7.32595">
        <ele>220.991333</ele>
        <time>2010-08-29T13:38:50Z</time>
      </trkpt>
      <trkpt lat="48.72412" lon="7.32602">
        <ele>220.440552</ele>
        <time>2010-08-29T13:38:51Z</time>
      </trkpt>
      <trkpt lat="48.72414" lon="7.3261">
        <ele>219.635864</ele>
        <time>2010-08-29T13:38:52Z</time>
      </trkpt>
      <trkpt lat="48.72417" lon="7.32617">
        <ele>219.463989</ele>
        <time>2010-08-29T13:38:53Z</time>
      </trkpt>
      <trkpt lat="48.72421" lon="7.32623">
        <ele>219.147583</ele>
        <time>2010-08-29T13:38:54Z</time>
      </trkpt>
      <trkpt lat="48.72425" lon="7.32629">
        <ele>218.878052</ele>
        <time>2010-08-29T13:38:55Z</time>
      </trkpt>
      <trkpt lat="48.72428" lon="7.32635">
        <ele>219.014771</ele>
        <time>2010-08-29T13:38:56Z</time>
      </trkpt>
      <trkpt lat="48.72431" lon="7.32641">
        <ele>218.838989</ele>
        <time>2010-08-29T13:38:57Z</time>
      </trkpt>
      <trkpt lat="48.72434" lon="7.32647">
        <ele>218.870239</ele>
        <time>2010-08-29T13:38:58Z</time>
      </trkpt>
      <trkpt lat="48.72438" lon="7.32653">
        <ele>218.811646</ele>
        <time>2010-08-29T13:38:59Z</time>
      </trkpt>
      <trkpt lat="48.72442" lon="7.3266">
        <ele>218.393677</ele>
        <time>2010-08-29T13:39:00Z</time>
      </trkpt>
      <trkpt lat="48.72446" lon="7.32667">
        <ele>217.706177</ele>
        <time>2010-08-29T13:39:01Z</time>
      </trkpt>
      <trkpt lat="48.72449" lon="7.32674">
        <ele>217.202271</ele>
        <time>2010-08-29T13:39:02Z</time>
      </trkpt>
      <trkpt lat="48.72453" lon="7.32682">
        <ele>216.506958</ele>
        <time>2010-08-29T13:39:03Z</time>
      </trkpt>
      <trkpt lat="48.72455" lon="7.32689">
        <ele>216.463989</ele>
        <time>2010-08-29T13:39:04Z</time>
      </trkpt>
      <trkpt lat="48.72458" lon="7.32696">
        <ele>216.049927</ele>
        <time>2010-08-29T13:39:05Z</time>
      </trkpt>
      <trkpt lat="48.7246" lon="7.32704">
        <ele>215.706177</ele>
        <time>2010-08-29T13:39:06Z</time>
      </trkpt>
      <trkpt lat="48.72464" lon="7.32712">
        <ele>215.225708</ele>
        <time>2010-08-29T13:39:07Z</time>
      </trkpt>
      <trkpt lat="48.72467" lon="7.3272">
        <ele>214.702271</ele>
        <time>2010-08-29T13:39:08Z</time>
      </trkpt>
      <trkpt lat="48.72471" lon="7.32727">
        <ele>214.229614</ele>
        <time>2010-08-29T13:39:09Z</time>
      </trkpt>
      <trkpt lat="48.72475" lon="7.32734">
        <ele>213.694458</ele>
        <time>2010-08-29T13:39:10Z</time>
      </trkpt>
      <trkpt lat="48.72479" lon="7.32741">
        <ele>213.174927</ele>
        <time>2010-08-29T13:39:11Z</time>
      </trkpt>
      <trkpt lat="48.72482" lon="7.32748">
        <ele>212.686646</ele>
        <time>2010-08-29T13:39:12Z</time>
      </trkpt>
      <trkpt lat="48.72484" lon="7.32757">
        <ele>213.022583</ele>
        <time>2010-08-29T13:39:13Z</time>
      </trkpt>
      <trkpt lat="48.72487" lon="7.32763">
        <ele>212.620239</ele>
        <time>2010-08-29T13:39:14Z</time>
      </trkpt>
      <trkpt lat="48.7249" lon="7.32771">
        <ele>212.147583</ele>
        <time>2010-08-29T13:39:15Z</time>
      </trkpt>
      <trkpt lat="48.72493" lon="7.32778">
        <ele>211.842896</ele>
        <time>2010-08-29T13:39:16Z</time>
      </trkpt>
      <trkpt lat="48.72494" lon="7.3279">
        <ele>211.780396</ele>
        <time>2010-08-29T13:39:17Z</time>
      </trkpt>
      <trkpt lat="48.72497" lon="7.32798">
        <ele>210.823364</ele>
        <time>2010-08-29T13:39:18Z</time>
      </trkpt>
      <trkpt lat="48.72501" lon="7.32805">
        <ele>210.440552</ele>
        <time>2010-08-29T13:39:19Z</time>
      </trkpt>
      <trkpt lat="48.72506" lon="7.32812">
        <ele>210.538208</ele>
        <time>2010-08-29T13:39:20Z</time>
      </trkpt>
      <trkpt lat="48.7251" lon="7.32818">
        <ele>210.452271</ele>
        <time>2010-08-29T13:39:21Z</time>
      </trkpt>
      <trkpt lat="48.72514" lon="7.32824">
        <ele>209.772583</ele>
        <time>2010-08-29T13:39:22Z</time>
      </trkpt>
      <trkpt lat="48.72519" lon="7.3283">
        <ele>211.049927</ele>
        <time>2010-08-29T13:39:23Z</time>
      </trkpt>
      <trkpt lat="48.72523" lon="7.32836">
        <ele>211.737427</ele>
        <time>2010-08-29T13:39:24Z</time>
      </trkpt>
      <trkpt lat="48.72527" lon="7.32842">
        <ele>212.253052</ele>
        <time>2010-08-29T13:39:25Z</time>
      </trkpt>
      <trkpt lat="48.72531" lon="7.32847">
        <ele>212.905396</ele>
        <time>2010-08-29T13:39:26Z</time>
      </trkpt>
      <trkpt lat="48.72535" lon="7.32853">
        <ele>212.409302</ele>
        <time>2010-08-29T13:39:27Z</time>
      </trkpt>
      <trkpt lat="48.72538" lon="7.32859">
        <ele>212.569458</ele>
        <time>2010-08-29T13:39:28Z</time>
      </trkpt>
      <trkpt lat="48.72541" lon="7.32866">
        <ele>212.546021</ele>
        <time>2010-08-29T13:39:29Z</time>
      </trkpt>
      <trkpt lat="48.72544" lon="7.32872">
        <ele>212.229614</ele>
        <time>2010-08-29T13:39:30Z</time>
      </trkpt>
      <trkpt lat="48.72548" lon="7.3288">
        <ele>212.366333</ele>
        <time>2010-08-29T13:39:31Z</time>
      </trkpt>
      <trkpt lat="48.7255" lon="7.32887">
        <ele>212.936646</ele>
        <time>2010-08-29T13:39:32Z</time>
      </trkpt>
      <trkpt lat="48.72553" lon="7.32895">
        <ele>213.092896</ele>
        <time>2010-08-29T13:39:33Z</time>
      </trkpt>
      <trkpt lat="48.72555" lon="7.32903">
        <ele>212.530396</ele>
        <time>2010-08-29T13:39:34Z</time>
      </trkpt>
      <trkpt lat="48.72557" lon="7.32911">
        <ele>211.823364</ele>
        <time>2010-08-29T13:39:35Z</time>
      </trkpt>
      <trkpt lat="48.72559" lon="7.32919">
        <ele>211.417114</ele>
        <time>2010-08-29T13:39:36Z</time>
      </trkpt>
      <trkpt lat="48.72561" lon="7.32928">
        <ele>210.741333</ele>
        <time>2010-08-29T13:39:37Z</time>
      </trkpt>
      <trkpt lat="48.72562" lon="7.32937">
        <ele>210.171021</ele>
        <time>2010-08-29T13:39:38Z</time>
      </trkpt>
      <trkpt lat="48.72564" lon="7.32946">
        <ele>209.854614</ele>
        <time>2010-08-29T13:39:39Z</time>
      </trkpt>
      <trkpt lat="48.72564" lon="7.32955">
        <ele>209.823364</ele>
        <time>2010-08-29T13:39:40Z</time>
      </trkpt>
      <trkpt lat="48.72566" lon="7.32963">
        <ele>210.280396</ele>
        <time>2010-08-29T13:39:41Z</time>
      </trkpt>
      <trkpt lat="48.72567" lon="7.32971">
        <ele>210.921021</ele>
        <time>2010-08-29T13:39:42Z</time>
      </trkpt>
      <trkpt lat="48.72567" lon="7.32978">
        <ele>211.088989</ele>
        <time>2010-08-29T13:39:43Z</time>
      </trkpt>
      <trkpt lat="48.72567" lon="7.32986">
        <ele>211.327271</ele>
        <time>2010-08-29T13:39:44Z</time>
      </trkpt>
      <trkpt lat="48.72567" lon="7.32993">
        <ele>211.331177</ele>
        <time>2010-08-29T13:39:45Z</time>
      </trkpt>
      <trkpt lat="48.72567" lon="7.33001">
        <ele>211.487427</ele>
        <time>2010-08-29T13:39:46Z</time>
      </trkpt>
      <trkpt lat="48.72568" lon="7.33008">
        <ele>211.342896</ele>
        <time>2010-08-29T13:39:47Z</time>
      </trkpt>
      <trkpt lat="48.72568" lon="7.33016">
        <ele>211.413208</ele>
        <time>2010-08-29T13:39:48Z</time>
      </trkpt>
      <trkpt lat="48.72568" lon="7.33024">
        <ele>211.600708</ele>
        <time>2010-08-29T13:39:49Z</time>
      </trkpt>
      <trkpt lat="48.72568" lon="7.33031">
        <ele>211.503052</ele>
        <time>2010-08-29T13:39:50Z</time>
      </trkpt>
      <trkpt lat="48.72569" lon="7.33039">
        <ele>211.018677</ele>
        <time>2010-08-29T13:39:51Z</time>
      </trkpt>
      <trkpt lat="48.7257" lon="7.33047">
        <ele>211.147583</ele>
        <time>2010-08-29T13:39:52Z</time>
      </trkpt>
      <trkpt lat="48.72571" lon="7.33055">
        <ele>211.428833</ele>
        <time>2010-08-29T13:39:53Z</time>
      </trkpt>
      <trkpt lat="48.72572" lon="7.33062">
        <ele>211.463989</ele>
        <time>2010-08-29T13:39:54Z</time>
      </trkpt>
      <trkpt lat="48.72573" lon="7.3307">
        <ele>211.186646</ele>
        <time>2010-08-29T13:39:55Z</time>
      </trkpt>
      <trkpt lat="48.72575" lon="7.33077">
        <ele>211.319458</ele>
        <time>2010-08-29T13:39:56Z</time>
      </trkpt>
      <trkpt lat="48.72577" lon="7.33085">
        <ele>211.225708</ele>
        <time>2010-08-29T13:39:57Z</time>
      </trkpt>
      <trkpt lat="48.72579" lon="7.33091">
        <ele>210.878052</ele>
        <time>2010-08-29T13:39:58Z</time>
      </trkpt>
      <trkpt lat="48.72582" lon="7.33098">
        <ele>211.436646</ele>
        <time>2010-08-29T13:39:59Z</time>
      </trkpt>
      <trkpt lat="48.72585" lon="7.33104">
        <ele>211.620239</ele>
        <time>2010-08-29T13:40:00Z</time>
      </trkpt>
      <trkpt lat="48.72588" lon="7.3311">
        <ele>211.350708</ele>
        <time>2010-08-29T13:40:01Z</time>
      </trkpt>
      <trkpt lat="48.72593" lon="7.33116">
        <ele>211.592896</ele>
        <time>2010-08-29T13:40:02Z</time>
      </trkpt>
      <trkpt lat="48.72596" lon="7.33121">
        <ele>211.710083</ele>
        <time>2010-08-29T13:40:03Z</time>
      </trkpt>
      <trkpt lat="48.72599" lon="7.33126">
        <ele>211.733521</ele>
        <time>2010-08-29T13:40:04Z</time>
      </trkpt>
      <trkpt lat="48.72603" lon="7.33131">
        <ele>211.628052</ele>
        <time>2010-08-29T13:40:05Z</time>
      </trkpt>
      <trkpt lat="48.72607" lon="7.33136">
        <ele>211.596802</ele>
        <time>2010-08-29T13:40:06Z</time>
      </trkpt>
      <trkpt lat="48.7261" lon="7.33141">
        <ele>211.870239</ele>
        <time>2010-08-29T13:40:07Z</time>
      </trkpt>
      <trkpt lat="48.72615" lon="7.33146">
        <ele>212.276489</ele>
        <time>2010-08-29T13:40:08Z</time>
      </trkpt>
      <trkpt lat="48.72618" lon="7.33151">
        <ele>212.460083</ele>
        <time>2010-08-29T13:40:09Z</time>
      </trkpt>
      <trkpt lat="48.72622" lon="7.33156">
        <ele>212.991333</ele>
        <time>2010-08-29T13:40:10Z</time>
      </trkpt>
      <trkpt lat="48.72626" lon="7.33161">
        <ele>212.835083</ele>
        <time>2010-08-29T13:40:11Z</time>
      </trkpt>
      <trkpt lat="48.7263" lon="7.33166">
        <ele>213.124146</ele>
        <time>2010-08-29T13:40:12Z</time>
      </trkpt>
      <trkpt lat="48.72633" lon="7.33178">
        <ele>214.432739</ele>
        <time>2010-08-29T13:40:14Z</time>
      </trkpt>
      <trkpt lat="48.72637" lon="7.33188">
        <ele>215.088989</ele>
        <time>2010-08-29T13:40:16Z</time>
      </trkpt>
      <trkpt lat="48.72644" lon="7.33198">
        <ele>216.358521</ele>
        <time>2010-08-29T13:40:18Z</time>
      </trkpt>
      <trkpt lat="48.72648" lon="7.33203">
        <ele>216.753052</ele>
        <time>2010-08-29T13:40:19Z</time>
      </trkpt>
      <trkpt lat="48.72651" lon="7.33207">
        <ele>217.256958</ele>
        <time>2010-08-29T13:40:20Z</time>
      </trkpt>
      <trkpt lat="48.72657" lon="7.33215">
        <ele>217.975708</ele>
        <time>2010-08-29T13:40:22Z</time>
      </trkpt>
      <trkpt lat="48.72663" lon="7.33222">
        <ele>217.952271</ele>
        <time>2010-08-29T13:40:24Z</time>
      </trkpt>
      <trkpt lat="48.72669" lon="7.3323">
        <ele>218.202271</ele>
        <time>2010-08-29T13:40:26Z</time>
      </trkpt>
      <trkpt lat="48.72673" lon="7.33237">
        <ele>218.030396</ele>
        <time>2010-08-29T13:40:28Z</time>
      </trkpt>
      <trkpt lat="48.72677" lon="7.33243">
        <ele>218.065552</ele>
        <time>2010-08-29T13:40:30Z</time>
      </trkpt>
      <trkpt lat="48.72681" lon="7.33249">
        <ele>218.030396</ele>
        <time>2010-08-29T13:40:32Z</time>
      </trkpt>
      <trkpt lat="48.72688" lon="7.33253">
        <ele>217.924927</ele>
        <time>2010-08-29T13:40:33Z</time>
      </trkpt>
      <trkpt lat="48.72695" lon="7.33258">
        <ele>218.721802</ele>
        <time>2010-08-29T13:40:35Z</time>
      </trkpt>
      <trkpt lat="48.72699" lon="7.33265">
        <ele>218.967896</ele>
        <time>2010-08-29T13:40:37Z</time>
      </trkpt>
      <trkpt lat="48.72706" lon="7.33268">
        <ele>219.620239</ele>
        <time>2010-08-29T13:40:39Z</time>
      </trkpt>
      <trkpt lat="48.7271" lon="7.33272">
        <ele>219.690552</ele>
        <time>2010-08-29T13:40:41Z</time>
      </trkpt>
      <trkpt lat="48.72715" lon="7.33276">
        <ele>220.436646</ele>
        <time>2010-08-29T13:40:42Z</time>
      </trkpt>
      <trkpt lat="48.72721" lon="7.33283">
        <ele>220.296021</ele>
        <time>2010-08-29T13:40:44Z</time>
      </trkpt>
      <trkpt lat="48.72726" lon="7.33288">
        <ele>220.561646</ele>
        <time>2010-08-29T13:40:46Z</time>
      </trkpt>
      <trkpt lat="48.72733" lon="7.33294">
        <ele>221.479614</ele>
        <time>2010-08-29T13:40:48Z</time>
      </trkpt>
      <trkpt lat="48.72738" lon="7.33299">
        <ele>221.354614</ele>
        <time>2010-08-29T13:40:50Z</time>
      </trkpt>
      <trkpt lat="48.72743" lon="7.33305">
        <ele>221.612427</ele>
        <time>2010-08-29T13:40:52Z</time>
      </trkpt>
      <trkpt lat="48.72747" lon="7.33309">
        <ele>222.100708</ele>
        <time>2010-08-29T13:40:55Z</time>
      </trkpt>
      <trkpt lat="48.72752" lon="7.33313">
        <ele>222.694458</ele>
        <time>2010-08-29T13:40:57Z</time>
      </trkpt>
      <trkpt lat="48.72756" lon="7.33317">
        <ele>223.335083</ele>
        <time>2010-08-29T13:41:00Z</time>
      </trkpt>
      <trkpt lat="48.72762" lon="7.33323">
        <ele>223.542114</ele>
        <time>2010-08-29T13:41:03Z</time>
      </trkpt>
      <trkpt lat="48.72766" lon="7.33327">
        <ele>223.690552</ele>
        <time>2010-08-29T13:41:05Z</time>
      </trkpt>
      <trkpt lat="48.7277" lon="7.33332">
        <ele>223.678833</ele>
        <time>2010-08-29T13:41:08Z</time>
      </trkpt>
      <trkpt lat="48.72774" lon="7.33334">
        <ele>224.088989</ele>
        <time>2010-08-29T13:41:10Z</time>
      </trkpt>
      <trkpt lat="48.72777" lon="7.3334">
        <ele>224.049927</ele>
        <time>2010-08-29T13:41:12Z</time>
      </trkpt>
      <trkpt lat="48.72781" lon="7.33344">
        <ele>224.331177</ele>
        <time>2010-08-29T13:41:14Z</time>
      </trkpt>
      <trkpt lat="48.72783" lon="7.33351">
        <ele>224.487427</ele>
        <time>2010-08-29T13:41:17Z</time>
      </trkpt>
      <trkpt lat="48.72788" lon="7.33356">
        <ele>224.573364</ele>
        <time>2010-08-29T13:41:19Z</time>
      </trkpt>
      <trkpt lat="48.72792" lon="7.33361">
        <ele>224.635864</ele>
        <time>2010-08-29T13:41:22Z</time>
      </trkpt>
      <trkpt lat="48.72797" lon="7.33365">
        <ele>224.331177</ele>
        <time>2010-08-29T13:41:25Z</time>
      </trkpt>
      <trkpt lat="48.728" lon="7.33369">
        <ele>224.631958</ele>
        <time>2010-08-29T13:41:29Z</time>
      </trkpt>
      <trkpt lat="48.72806" lon="7.33373">
        <ele>224.909302</ele>
        <time>2010-08-29T13:41:34Z</time>
      </trkpt>
      <trkpt lat="48.72812" lon="7.33378">
        <ele>227.143677</ele>
        <time>2010-08-29T13:41:38Z</time>
      </trkpt>
      <trkpt lat="48.72816" lon="7.33381">
        <ele>228.299927</ele>
        <time>2010-08-29T13:41:42Z</time>
      </trkpt>
      <trkpt lat="48.7282" lon="7.33386">
        <ele>230.241333</ele>
        <time>2010-08-29T13:41:48Z</time>
      </trkpt>
      <trkpt lat="48.72825" lon="7.33388">
        <ele>231.788208</ele>
        <time>2010-08-29T13:41:54Z</time>
      </trkpt>
      <trkpt lat="48.72829" lon="7.33393">
        <ele>232.327271</ele>
        <time>2010-08-29T13:42:03Z</time>
      </trkpt>
      <trkpt lat="48.72833" lon="7.33399">
        <ele>232.299927</ele>
        <time>2010-08-29T13:42:11Z</time>
      </trkpt>
      <trkpt lat="48.72837" lon="7.33406">
        <ele>232.577271</ele>
        <time>2010-08-29T13:42:14Z</time>
      </trkpt>
      <trkpt lat="48.72842" lon="7.33413">
        <ele>232.542114</ele>
        <time>2010-08-29T13:42:16Z</time>
      </trkpt>
      <trkpt lat="48.72848" lon="7.33418">
        <ele>233.143677</ele>
        <time>2010-08-29T13:42:18Z</time>
      </trkpt>
      <trkpt lat="48.72853" lon="7.33423">
        <ele>233.682739</ele>
        <time>2010-08-29T13:42:20Z</time>
      </trkpt>
      <trkpt lat="48.72857" lon="7.33426">
        <ele>234.272583</ele>
        <time>2010-08-29T13:42:22Z</time>
      </trkpt>
      <trkpt lat="48.72861" lon="7.33429">
        <ele>234.405396</ele>
        <time>2010-08-29T13:42:24Z</time>
      </trkpt>
      <trkpt lat="48.72866" lon="7.33433">
        <ele>234.698364</ele>
        <time>2010-08-29T13:42:27Z</time>
      </trkpt>
      <trkpt lat="48.7287" lon="7.33435">
        <ele>235.241333</ele>
        <time>2010-08-29T13:42:29Z</time>
      </trkpt>
      <trkpt lat="48.72876" lon="7.33437">
        <ele>236.139771</ele>
        <time>2010-08-29T13:42:32Z</time>
      </trkpt>
      <trkpt lat="48.7288" lon="7.33444">
        <ele>237.624146</ele>
        <time>2010-08-29T13:42:35Z</time>
      </trkpt>
      <trkpt lat="48.72885" lon="7.33447">
        <ele>238.702271</ele>
        <time>2010-08-29T13:42:38Z</time>
      </trkpt>
      <trkpt lat="48.72889" lon="7.33451">
        <ele>239.741333</ele>
        <time>2010-08-29T13:42:41Z</time>
      </trkpt>
      <trkpt lat="48.72894" lon="7.33455">
        <ele>240.987427</ele>
        <time>2010-08-29T13:42:44Z</time>
      </trkpt>
      <trkpt lat="48.729" lon="7.33461">
        <ele>241.432739</ele>
        <time>2010-08-29T13:42:47Z</time>
      </trkpt>
      <trkpt lat="48.72903" lon="7.33466">
        <ele>240.561646</ele>
        <time>2010-08-29T13:42:49Z</time>
      </trkpt>
      <trkpt lat="48.72908" lon="7.33471">
        <ele>237.987427</ele>
        <time>2010-08-29T13:42:51Z</time>
      </trkpt>
      <trkpt lat="48.72912" lon="7.33475">
        <ele>236.702271</ele>
        <time>2010-08-29T13:42:53Z</time>
      </trkpt>
      <trkpt lat="48.72915" lon="7.33481">
        <ele>237.057739</ele>
        <time>2010-08-29T13:42:56Z</time>
      </trkpt>
      <trkpt lat="48.72919" lon="7.33485">
        <ele>237.553833</ele>
        <time>2010-08-29T13:43:00Z</time>
      </trkpt>
      <trkpt lat="48.72923" lon="7.3349">
        <ele>238.198364</ele>
        <time>2010-08-29T13:43:03Z</time>
      </trkpt>
      <trkpt lat="48.72927" lon="7.33496">
        <ele>238.631958</ele>
        <time>2010-08-29T13:43:06Z</time>
      </trkpt>
      <trkpt lat="48.72931" lon="7.33501">
        <ele>240.592896</ele>
        <time>2010-08-29T13:43:09Z</time>
      </trkpt>
      <trkpt lat="48.72932" lon="7.33509">
        <ele>241.073364</ele>
        <time>2010-08-29T13:43:12Z</time>
      </trkpt>
      <trkpt lat="48.72935" lon="7.33515">
        <ele>240.897583</ele>
        <time>2010-08-29T13:43:16Z</time>
      </trkpt>
      <trkpt lat="48.72937" lon="7.33521">
        <ele>242.319458</ele>
        <time>2010-08-29T13:43:19Z</time>
      </trkpt>
      <trkpt lat="48.7294" lon="7.33526">
        <ele>243.585083</ele>
        <time>2010-08-29T13:43:22Z</time>
      </trkpt>
      <trkpt lat="48.72944" lon="7.33532">
        <ele>243.948364</ele>
        <time>2010-08-29T13:43:25Z</time>
      </trkpt>
      <trkpt lat="48.72947" lon="7.33537">
        <ele>244.104614</ele>
        <time>2010-08-29T13:43:28Z</time>
      </trkpt>
      <trkpt lat="48.72949" lon="7.33545">
        <ele>244.948364</ele>
        <time>2010-08-29T13:43:32Z</time>
      </trkpt>
      <trkpt lat="48.72952" lon="7.33551">
        <ele>244.460083</ele>
        <time>2010-08-29T13:43:34Z</time>
      </trkpt>
      <trkpt lat="48.72953" lon="7.33557">
        <ele>244.659302</ele>
        <time>2010-08-29T13:43:37Z</time>
      </trkpt>
      <trkpt lat="48.72956" lon="7.33564">
        <ele>244.678833</ele>
        <time>2010-08-29T13:43:40Z</time>
      </trkpt>
      <trkpt lat="48.72959" lon="7.33571">
        <ele>245.190552</ele>
        <time>2010-08-29T13:43:43Z</time>
      </trkpt>
      <trkpt lat="48.72963" lon="7.33578">
        <ele>244.510864</ele>
        <time>2010-08-29T13:43:46Z</time>
      </trkpt>
      <trkpt lat="48.72966" lon="7.33586">
        <ele>244.229614</ele>
        <time>2010-08-29T13:43:49Z</time>
      </trkpt>
      <trkpt lat="48.7297" lon="7.33593">
        <ele>244.174927</ele>
        <time>2010-08-29T13:43:52Z</time>
      </trkpt>
      <trkpt lat="48.72973" lon="7.336">
        <ele>244.756958</ele>
        <time>2010-08-29T13:43:55Z</time>
      </trkpt>
      <trkpt lat="48.72975" lon="7.33607">
        <ele>245.948364</ele>
        <time>2010-08-29T13:43:59Z</time>
      </trkpt>
      <trkpt lat="48.72977" lon="7.33616">
        <ele>246.471802</ele>
        <time>2010-08-29T13:44:02Z</time>
      </trkpt>
      <trkpt lat="48.72978" lon="7.33624">
        <ele>247.264771</ele>
        <time>2010-08-29T13:44:06Z</time>
      </trkpt>
      <trkpt lat="48.7298" lon="7.3363">
        <ele>248.190552</ele>
        <time>2010-08-29T13:44:09Z</time>
      </trkpt>
      <trkpt lat="48.72982" lon="7.33638">
        <ele>249.643677</ele>
        <time>2010-08-29T13:44:13Z</time>
      </trkpt>
      <trkpt lat="48.72985" lon="7.33646">
        <ele>251.151489</ele>
        <time>2010-08-29T13:44:16Z</time>
      </trkpt>
      <trkpt lat="48.72987" lon="7.33653">
        <ele>252.288208</ele>
        <time>2010-08-29T13:44:18Z</time>
      </trkpt>
      <trkpt lat="48.72989" lon="7.33662">
        <ele>253.975708</ele>
        <time>2010-08-29T13:44:21Z</time>
      </trkpt>
      <trkpt lat="48.72989" lon="7.33669">
        <ele>254.702271</ele>
        <time>2010-08-29T13:44:24Z</time>
      </trkpt>
      <trkpt lat="48.72991" lon="7.33676">
        <ele>256.107666</ele>
        <time>2010-08-29T13:44:27Z</time>
      </trkpt>
      <trkpt lat="48.72991" lon="7.33684">
        <ele>257.467041</ele>
        <time>2010-08-29T13:44:30Z</time>
      </trkpt>
      <trkpt lat="48.72989" lon="7.33692">
        <ele>256.584229</ele>
        <time>2010-08-29T13:44:34Z</time>
      </trkpt>
      <trkpt lat="48.72987" lon="7.337">
        <ele>255.229614</ele>
        <time>2010-08-29T13:44:37Z</time>
      </trkpt>
      <trkpt lat="48.72986" lon="7.33707">
        <ele>254.819458</ele>
        <time>2010-08-29T13:44:40Z</time>
      </trkpt>
      <trkpt lat="48.72978" lon="7.33708">
        <ele>254.342896</ele>
        <time>2010-08-29T13:45:03Z</time>
      </trkpt>
      <trkpt lat="48.72983" lon="7.33709">
        <ele>254.620239</ele>
        <time>2010-08-29T13:45:14Z</time>
      </trkpt>
      <trkpt lat="48.72982" lon="7.33717">
        <ele>255.237427</ele>
        <time>2010-08-29T13:45:27Z</time>
      </trkpt>
      <trkpt lat="48.72982" lon="7.33724">
        <ele>254.932739</ele>
        <time>2010-08-29T13:45:30Z</time>
      </trkpt>
      <trkpt lat="48.72979" lon="7.33731">
        <ele>254.167114</ele>
        <time>2010-08-29T13:45:34Z</time>
      </trkpt>
      <trkpt lat="48.72975" lon="7.33737">
        <ele>253.772583</ele>
        <time>2010-08-29T13:45:38Z</time>
      </trkpt>
      <trkpt lat="48.72976" lon="7.33745">
        <ele>254.667114</ele>
        <time>2010-08-29T13:45:42Z</time>
      </trkpt>
      <trkpt lat="48.72971" lon="7.33748">
        <ele>255.514771</ele>
        <time>2010-08-29T13:45:44Z</time>
      </trkpt>
      <trkpt lat="48.72971" lon="7.33757">
        <ele>256.677979</ele>
        <time>2010-08-29T13:45:47Z</time>
      </trkpt>
      <trkpt lat="48.72973" lon="7.33764">
        <ele>256.810791</ele>
        <time>2010-08-29T13:45:49Z</time>
      </trkpt>
      <trkpt lat="48.72971" lon="7.33771">
        <ele>257.631104</ele>
        <time>2010-08-29T13:45:52Z</time>
      </trkpt>
      <trkpt lat="48.72969" lon="7.33778">
        <ele>258.170166</ele>
        <time>2010-08-29T13:45:55Z</time>
      </trkpt>
      <trkpt lat="48.72969" lon="7.33786">
        <ele>259.545166</ele>
        <time>2010-08-29T13:45:58Z</time>
      </trkpt>
      <trkpt lat="48.72968" lon="7.33794">
        <ele>260.560791</ele>
        <time>2010-08-29T13:46:03Z</time>
      </trkpt>
      <trkpt lat="48.72966" lon="7.338">
        <ele>259.521729</ele>
        <time>2010-08-29T13:46:07Z</time>
      </trkpt>
      <trkpt lat="48.72964" lon="7.33807">
        <ele>259.326416</ele>
        <time>2010-08-29T13:46:10Z</time>
      </trkpt>
      <trkpt lat="48.72961" lon="7.33815">
        <ele>258.724854</ele>
        <time>2010-08-29T13:46:13Z</time>
      </trkpt>
      <trkpt lat="48.72959" lon="7.33823">
        <ele>259.217041</ele>
        <time>2010-08-29T13:46:16Z</time>
      </trkpt>
      <trkpt lat="48.72956" lon="7.33828">
        <ele>258.248291</ele>
        <time>2010-08-29T13:46:19Z</time>
      </trkpt>
      <trkpt lat="48.72953" lon="7.33835">
        <ele>257.263916</ele>
        <time>2010-08-29T13:46:23Z</time>
      </trkpt>
      <trkpt lat="48.7295" lon="7.33841">
        <ele>256.302979</ele>
        <time>2010-08-29T13:46:28Z</time>
      </trkpt>
      <trkpt lat="48.72943" lon="7.33838">
        <ele>254.249146</ele>
        <time>2010-08-29T13:46:32Z</time>
      </trkpt>
      <trkpt lat="48.72942" lon="7.33831">
        <ele>252.815552</ele>
        <time>2010-08-29T13:46:36Z</time>
      </trkpt>
      <trkpt lat="48.7294" lon="7.33824">
        <ele>251.108521</ele>
        <time>2010-08-29T13:46:46Z</time>
      </trkpt>
      <trkpt lat="48.72941" lon="7.33833">
        <ele>250.694458</ele>
        <time>2010-08-29T13:46:53Z</time>
      </trkpt>
      <trkpt lat="48.72942" lon="7.33842">
        <ele>250.143677</ele>
        <time>2010-08-29T13:46:56Z</time>
      </trkpt>
      <trkpt lat="48.72942" lon="7.33849">
        <ele>250.647583</ele>
        <time>2010-08-29T13:46:58Z</time>
      </trkpt>
      <trkpt lat="48.7294" lon="7.33857">
        <ele>252.131958</ele>
        <time>2010-08-29T13:47:01Z</time>
      </trkpt>
      <trkpt lat="48.72942" lon="7.33864">
        <ele>253.643677</ele>
        <time>2010-08-29T13:47:04Z</time>
      </trkpt>
      <trkpt lat="48.72944" lon="7.33873">
        <ele>254.026489</ele>
        <time>2010-08-29T13:47:08Z</time>
      </trkpt>
      <trkpt lat="48.72945" lon="7.3388">
        <ele>254.624146</ele>
        <time>2010-08-29T13:47:11Z</time>
      </trkpt>
      <trkpt lat="48.72948" lon="7.33887">
        <ele>257.115479</ele>
        <time>2010-08-29T13:47:15Z</time>
      </trkpt>
      <trkpt lat="48.7295" lon="7.33894">
        <ele>258.099854</ele>
        <time>2010-08-29T13:47:18Z</time>
      </trkpt>
      <trkpt lat="48.72951" lon="7.33902">
        <ele>259.240479</ele>
        <time>2010-08-29T13:47:22Z</time>
      </trkpt>
      <trkpt lat="48.72952" lon="7.3391">
        <ele>260.318604</ele>
        <time>2010-08-29T13:47:26Z</time>
      </trkpt>
      <trkpt lat="48.72953" lon="7.33918">
        <ele>260.849854</ele>
        <time>2010-08-29T13:47:29Z</time>
      </trkpt>
      <trkpt lat="48.72955" lon="7.33926">
        <ele>262.224854</ele>
        <time>2010-08-29T13:47:32Z</time>
      </trkpt>
      <trkpt lat="48.72957" lon="7.33934">
        <ele>263.006104</ele>
        <time>2010-08-29T13:47:36Z</time>
      </trkpt>
      <trkpt lat="48.72958" lon="7.33941">
        <ele>264.068604</ele>
        <time>2010-08-29T13:47:40Z</time>
      </trkpt>
      <trkpt lat="48.72959" lon="7.33948">
        <ele>264.443604</ele>
        <time>2010-08-29T13:47:44Z</time>
      </trkpt>
      <trkpt lat="48.72959" lon="7.33956">
        <ele>264.076416</ele>
        <time>2010-08-29T13:47:49Z</time>
      </trkpt>
      <trkpt lat="48.72958" lon="7.33964">
        <ele>262.802979</ele>
        <time>2010-08-29T13:47:54Z</time>
      </trkpt>
      <trkpt lat="48.72959" lon="7.33972">
        <ele>262.701416</ele>
        <time>2010-08-29T13:48:00Z</time>
      </trkpt>
      <trkpt lat="48.72961" lon="7.33979">
        <ele>263.662354</ele>
        <time>2010-08-29T13:48:03Z</time>
      </trkpt>
      <trkpt lat="48.72961" lon="7.33986">
        <ele>263.568604</ele>
        <time>2010-08-29T13:48:07Z</time>
      </trkpt>
      <trkpt lat="48.72962" lon="7.33993">
        <ele>263.396729</ele>
        <time>2010-08-29T13:48:11Z</time>
      </trkpt>
      <trkpt lat="48.72963" lon="7.34">
        <ele>263.357666</ele>
        <time>2010-08-29T13:48:15Z</time>
      </trkpt>
      <trkpt lat="48.72964" lon="7.34007">
        <ele>263.474854</ele>
        <time>2010-08-29T13:48:19Z</time>
      </trkpt>
      <trkpt lat="48.72965" lon="7.34014">
        <ele>264.029541</ele>
        <time>2010-08-29T13:48:23Z</time>
      </trkpt>
      <trkpt lat="48.72963" lon="7.34021">
        <ele>264.349854</ele>
        <time>2010-08-29T13:48:26Z</time>
      </trkpt>
      <trkpt lat="48.72964" lon="7.3403">
        <ele>264.271729</ele>
        <time>2010-08-29T13:48:32Z</time>
      </trkpt>
      <trkpt lat="48.72967" lon="7.34036">
        <ele>264.779541</ele>
        <time>2010-08-29T13:48:34Z</time>
      </trkpt>
      <trkpt lat="48.72971" lon="7.34042">
        <ele>264.998291</ele>
        <time>2010-08-29T13:48:37Z</time>
      </trkpt>
      <trkpt lat="48.72972" lon="7.3405">
        <ele>264.857666</ele>
        <time>2010-08-29T13:48:44Z</time>
      </trkpt>
      <trkpt lat="48.72969" lon="7.34056">
        <ele>265.381104</ele>
        <time>2010-08-29T13:48:48Z</time>
      </trkpt>
      <trkpt lat="48.72972" lon="7.34063">
        <ele>266.802979</ele>
        <time>2010-08-29T13:48:51Z</time>
      </trkpt>
      <trkpt lat="48.72975" lon="7.34069">
        <ele>267.834229</ele>
        <time>2010-08-29T13:48:54Z</time>
      </trkpt>
      <trkpt lat="48.72978" lon="7.34075">
        <ele>268.849854</ele>
        <time>2010-08-29T13:48:57Z</time>
      </trkpt>
      <trkpt lat="48.72981" lon="7.34082">
        <ele>269.467041</ele>
        <time>2010-08-29T13:49:00Z</time>
      </trkpt>
      <trkpt lat="48.72983" lon="7.34088">
        <ele>270.060791</ele>
        <time>2010-08-29T13:49:02Z</time>
      </trkpt>
      <trkpt lat="48.72985" lon="7.34095">
        <ele>272.592041</ele>
        <time>2010-08-29T13:49:10Z</time>
      </trkpt>
      <trkpt lat="48.72988" lon="7.341">
        <ele>274.599854</ele>
        <time>2010-08-29T13:49:15Z</time>
      </trkpt>
      <trkpt lat="48.72991" lon="7.34105">
        <ele>276.396729</ele>
        <time>2010-08-29T13:49:19Z</time>
      </trkpt>
      <trkpt lat="48.73001" lon="7.34111">
        <ele>277.974854</ele>
        <time>2010-08-29T13:49:24Z</time>
      </trkpt>
      <trkpt lat="48.73003" lon="7.34117">
        <ele>279.818604</ele>
        <time>2010-08-29T13:49:29Z</time>
      </trkpt>
      <trkpt lat="48.73005" lon="7.34124">
        <ele>280.935791</ele>
        <time>2010-08-29T13:49:32Z</time>
      </trkpt>
      <trkpt lat="48.73016" lon="7.34134">
        <ele>282.599854</ele>
        <time>2010-08-29T13:49:37Z</time>
      </trkpt>
      <trkpt lat="48.73021" lon="7.34137">
        <ele>283.193604</ele>
        <time>2010-08-29T13:49:38Z</time>
      </trkpt>
      <trkpt lat="48.73027" lon="7.34143">
        <ele>283.842041</ele>
        <time>2010-08-29T13:49:41Z</time>
      </trkpt>
      <trkpt lat="48.73026" lon="7.3415">
        <ele>284.115479</ele>
        <time>2010-08-29T13:49:44Z</time>
      </trkpt>
      <trkpt lat="48.7303" lon="7.34154">
        <ele>284.138916</ele>
        <time>2010-08-29T13:49:46Z</time>
      </trkpt>
      <trkpt lat="48.73034" lon="7.34158">
        <ele>284.443604</ele>
        <time>2010-08-29T13:49:49Z</time>
      </trkpt>
      <trkpt lat="48.73037" lon="7.34162">
        <ele>284.873291</ele>
        <time>2010-08-29T13:49:52Z</time>
      </trkpt>
      <trkpt lat="48.73038" lon="7.34171">
        <ele>285.584229</ele>
        <time>2010-08-29T13:49:55Z</time>
      </trkpt>
      <trkpt lat="48.73041" lon="7.34177">
        <ele>286.912354</ele>
        <time>2010-08-29T13:49:59Z</time>
      </trkpt>
      <trkpt lat="48.73043" lon="7.34184">
        <ele>287.623291</ele>
        <time>2010-08-29T13:50:03Z</time>
      </trkpt>
      <trkpt lat="48.73045" lon="7.34192">
        <ele>288.810791</ele>
        <time>2010-08-29T13:50:07Z</time>
      </trkpt>
      <trkpt lat="48.73049" lon="7.34199">
        <ele>289.826416</ele>
        <time>2010-08-29T13:50:10Z</time>
      </trkpt>
      <trkpt lat="48.73056" lon="7.34203">
        <ele>291.506104</ele>
        <time>2010-08-29T13:50:12Z</time>
      </trkpt>
      <trkpt lat="48.7306" lon="7.34206">
        <ele>292.693604</ele>
        <time>2010-08-29T13:50:14Z</time>
      </trkpt>
      <trkpt lat="48.73064" lon="7.3421">
        <ele>293.584229</ele>
        <time>2010-08-29T13:50:17Z</time>
      </trkpt>
      <trkpt lat="48.73069" lon="7.34215">
        <ele>294.865479</ele>
        <time>2010-08-29T13:50:21Z</time>
      </trkpt>
      <trkpt lat="48.73073" lon="7.34219">
        <ele>296.107666</ele>
        <time>2010-08-29T13:50:23Z</time>
      </trkpt>
      <trkpt lat="48.73077" lon="7.34225">
        <ele>297.224854</ele>
        <time>2010-08-29T13:50:26Z</time>
      </trkpt>
      <trkpt lat="48.73081" lon="7.34231">
        <ele>298.693604</ele>
        <time>2010-08-29T13:50:29Z</time>
      </trkpt>
      <trkpt lat="48.73085" lon="7.34237">
        <ele>299.498291</ele>
        <time>2010-08-29T13:50:32Z</time>
      </trkpt>
      <trkpt lat="48.73087" lon="7.34244">
        <ele>299.912354</ele>
        <time>2010-08-29T13:50:35Z</time>
      </trkpt>
      <trkpt lat="48.73091" lon="7.34249">
        <ele>300.326416</ele>
        <time>2010-08-29T13:50:38Z</time>
      </trkpt>
      <trkpt lat="48.73095" lon="7.34253">
        <ele>300.623291</ele>
        <time>2010-08-29T13:50:40Z</time>
      </trkpt>
      <trkpt lat="48.73098" lon="7.34259">
        <ele>301.162354</ele>
        <time>2010-08-29T13:50:42Z</time>
      </trkpt>
      <trkpt lat="48.73101" lon="7.34266">
        <ele>302.365479</ele>
        <time>2010-08-29T13:50:45Z</time>
      </trkpt>
      <trkpt lat="48.73104" lon="7.34273">
        <ele>303.599854</ele>
        <time>2010-08-29T13:50:48Z</time>
      </trkpt>
      <trkpt lat="48.73107" lon="7.34279">
        <ele>304.427979</ele>
        <time>2010-08-29T13:50:51Z</time>
      </trkpt>
      <trkpt lat="48.73109" lon="7.34286">
        <ele>305.193604</ele>
        <time>2010-08-29T13:50:53Z</time>
      </trkpt>
      <trkpt lat="48.73114" lon="7.34291">
        <ele>305.427979</ele>
        <time>2010-08-29T13:50:55Z</time>
      </trkpt>
      <trkpt lat="48.73116" lon="7.34298">
        <ele>306.592041</ele>
        <time>2010-08-29T13:50:58Z</time>
      </trkpt>
      <trkpt lat="48.73117" lon="7.34309">
        <ele>308.084229</ele>
        <time>2010-08-29T13:51:02Z</time>
      </trkpt>
      <trkpt lat="48.73117" lon="7.34316">
        <ele>308.670166</ele>
        <time>2010-08-29T13:51:04Z</time>
      </trkpt>
      <trkpt lat="48.73117" lon="7.34323">
        <ele>308.967041</ele>
        <time>2010-08-29T13:51:05Z</time>
      </trkpt>
      <trkpt lat="48.73118" lon="7.34331">
        <ele>309.787354</ele>
        <time>2010-08-29T13:51:07Z</time>
      </trkpt>
      <trkpt lat="48.73122" lon="7.34338">
        <ele>310.427979</ele>
        <time>2010-08-29T13:51:10Z</time>
      </trkpt>
      <trkpt lat="48.73122" lon="7.34345">
        <ele>310.334229</ele>
        <time>2010-08-29T13:51:12Z</time>
      </trkpt>
      <trkpt lat="48.73124" lon="7.34353">
        <ele>308.560791</ele>
        <time>2010-08-29T13:51:13Z</time>
      </trkpt>
      <trkpt lat="48.73126" lon="7.3436">
        <ele>308.662354</ele>
        <time>2010-08-29T13:51:14Z</time>
      </trkpt>
      <trkpt lat="48.73133" lon="7.34367">
        <ele>308.677979</ele>
        <time>2010-08-29T13:51:16Z</time>
      </trkpt>
      <trkpt lat="48.73137" lon="7.34376">
        <ele>308.802979</ele>
        <time>2010-08-29T13:51:19Z</time>
      </trkpt>
      <trkpt lat="48.73142" lon="7.34383">
        <ele>309.342041</ele>
        <time>2010-08-29T13:51:21Z</time>
      </trkpt>
      <trkpt lat="48.73143" lon="7.34389">
        <ele>310.029541</ele>
        <time>2010-08-29T13:51:23Z</time>
      </trkpt>
      <trkpt lat="48.73144" lon="7.344">
        <ele>311.146729</ele>
        <time>2010-08-29T13:51:25Z</time>
      </trkpt>
      <trkpt lat="48.73148" lon="7.34404">
        <ele>311.498291</ele>
        <time>2010-08-29T13:51:26Z</time>
      </trkpt>
      <trkpt lat="48.7315" lon="7.34411">
        <ele>312.435791</ele>
        <time>2010-08-29T13:51:28Z</time>
      </trkpt>
      <trkpt lat="48.73154" lon="7.34419">
        <ele>312.677979</ele>
        <time>2010-08-29T13:51:29Z</time>
      </trkpt>
      <trkpt lat="48.73154" lon="7.34427">
        <ele>313.420166</ele>
        <time>2010-08-29T13:51:31Z</time>
      </trkpt>
      <trkpt lat="48.73153" lon="7.34435">
        <ele>314.638916</ele>
        <time>2010-08-29T13:51:33Z</time>
      </trkpt>
      <trkpt lat="48.73154" lon="7.34443">
        <ele>315.107666</ele>
        <time>2010-08-29T13:51:35Z</time>
      </trkpt>
      <trkpt lat="48.73156" lon="7.34451">
        <ele>315.631104</ele>
        <time>2010-08-29T13:51:37Z</time>
      </trkpt>
      <trkpt lat="48.73158" lon="7.34459">
        <ele>316.435791</ele>
        <time>2010-08-29T13:51:39Z</time>
      </trkpt>
      <trkpt lat="48.73161" lon="7.3447">
        <ele>315.670166</ele>
        <time>2010-08-29T13:51:41Z</time>
      </trkpt>
      <trkpt lat="48.73163" lon="7.34477">
        <ele>314.779541</ele>
        <time>2010-08-29T13:51:42Z</time>
      </trkpt>
      <trkpt lat="48.73169" lon="7.34486">
        <ele>316.107666</ele>
        <time>2010-08-29T13:51:44Z</time>
      </trkpt>
      <trkpt lat="48.73174" lon="7.34496">
        <ele>317.521729</ele>
        <time>2010-08-29T13:51:46Z</time>
      </trkpt>
      <trkpt lat="48.73174" lon="7.34503">
        <ele>316.998291</ele>
        <time>2010-08-29T13:51:47Z</time>
      </trkpt>
      <trkpt lat="48.73181" lon="7.34509">
        <ele>316.263916</ele>
        <time>2010-08-29T13:51:48Z</time>
      </trkpt>
      <trkpt lat="48.73185" lon="7.34522">
        <ele>317.263916</ele>
        <time>2010-08-29T13:51:50Z</time>
      </trkpt>
      <trkpt lat="48.73185" lon="7.34535">
        <ele>317.826416</ele>
        <time>2010-08-29T13:51:52Z</time>
      </trkpt>
      <trkpt lat="48.73183" lon="7.34542">
        <ele>317.685791</ele>
        <time>2010-08-29T13:51:53Z</time>
      </trkpt>
      <trkpt lat="48.73183" lon="7.34554">
        <ele>317.967041</ele>
        <time>2010-08-29T13:51:55Z</time>
      </trkpt>
      <trkpt lat="48.73186" lon="7.34562">
        <ele>318.802979</ele>
        <time>2010-08-29T13:51:57Z</time>
      </trkpt>
      <trkpt lat="48.73189" lon="7.34567">
        <ele>318.568604</ele>
        <time>2010-08-29T13:51:58Z</time>
      </trkpt>
      <trkpt lat="48.7319" lon="7.34574">
        <ele>320.021729</ele>
        <time>2010-08-29T13:52:00Z</time>
      </trkpt>
      <trkpt lat="48.73193" lon="7.34581">
        <ele>320.927979</ele>
        <time>2010-08-29T13:52:02Z</time>
      </trkpt>
      <trkpt lat="48.73203" lon="7.34588">
        <ele>322.185791</ele>
        <time>2010-08-29T13:52:03Z</time>
      </trkpt>
      <trkpt lat="48.73206" lon="7.34595">
        <ele>321.584229</ele>
        <time>2010-08-29T13:52:06Z</time>
      </trkpt>
      <trkpt lat="48.73212" lon="7.34595">
        <ele>320.154541</ele>
        <time>2010-08-29T13:52:09Z</time>
      </trkpt>
      <trkpt lat="48.73218" lon="7.34597">
        <ele>319.654541</ele>
        <time>2010-08-29T13:52:14Z</time>
      </trkpt>
      <trkpt lat="48.73222" lon="7.34602">
        <ele>319.873291</ele>
        <time>2010-08-29T13:52:16Z</time>
      </trkpt>
      <trkpt lat="48.73227" lon="7.34609">
        <ele>318.943604</ele>
        <time>2010-08-29T13:52:19Z</time>
      </trkpt>
      <trkpt lat="48.7323" lon="7.34614">
        <ele>318.177979</ele>
        <time>2010-08-29T13:52:21Z</time>
      </trkpt>
      <trkpt lat="48.73237" lon="7.34611">
        <ele>315.342041</ele>
        <time>2010-08-29T13:52:22Z</time>
      </trkpt>
      <trkpt lat="48.73242" lon="7.3461">
        <ele>313.474854</ele>
        <time>2010-08-29T13:52:24Z</time>
      </trkpt>
      <trkpt lat="48.73254" lon="7.34613">
        <ele>309.560791</ele>
        <time>2010-08-29T13:52:41Z</time>
      </trkpt>
      <trkpt lat="48.73259" lon="7.34611">
        <ele>309.013916</ele>
        <time>2010-08-29T13:52:43Z</time>
      </trkpt>
      <trkpt lat="48.73264" lon="7.34612">
        <ele>306.521729</ele>
        <time>2010-08-29T13:53:06Z</time>
      </trkpt>
      <trkpt lat="48.73265" lon="7.34614">
        <ele>301.170166</ele>
        <time>2010-08-29T13:53:24Z</time>
      </trkpt>
      <trkpt lat="48.73262" lon="7.3461">
        <ele>297.623291</ele>
        <time>2010-08-29T13:53:54Z</time>
      </trkpt>
      <trkpt lat="48.73259" lon="7.34605">
        <ele>297.388916</ele>
        <time>2010-08-29T13:53:59Z</time>
      </trkpt>
      <trkpt lat="48.73254" lon="7.346">
        <ele>297.498291</ele>
        <time>2010-08-29T13:54:02Z</time>
      </trkpt>
      <trkpt lat="48.73251" lon="7.34595">
        <ele>296.537354</ele>
        <time>2010-08-29T13:54:04Z</time>
      </trkpt>
      <trkpt lat="48.73248" lon="7.34587">
        <ele>296.224854</ele>
        <time>2010-08-29T13:54:07Z</time>
      </trkpt>
      <trkpt lat="48.73245" lon="7.34581">
        <ele>296.310791</ele>
        <time>2010-08-29T13:54:09Z</time>
      </trkpt>
      <trkpt lat="48.73241" lon="7.34575">
        <ele>297.021729</ele>
        <time>2010-08-29T13:54:11Z</time>
      </trkpt>
      <trkpt lat="48.73239" lon="7.34569">
        <ele>298.631104</ele>
        <time>2010-08-29T13:54:13Z</time>
      </trkpt>
      <trkpt lat="48.73236" lon="7.34564">
        <ele>298.795166</ele>
        <time>2010-08-29T13:54:15Z</time>
      </trkpt>
      <trkpt lat="48.73232" lon="7.34555">
        <ele>299.459229</ele>
        <time>2010-08-29T13:54:18Z</time>
      </trkpt>
      <trkpt lat="48.73229" lon="7.34548">
        <ele>299.256104</ele>
        <time>2010-08-29T13:54:20Z</time>
      </trkpt>
      <trkpt lat="48.73226" lon="7.34542">
        <ele>299.107666</ele>
        <time>2010-08-29T13:54:22Z</time>
      </trkpt>
      <trkpt lat="48.73223" lon="7.34534">
        <ele>299.068604</ele>
        <time>2010-08-29T13:54:25Z</time>
      </trkpt>
      <trkpt lat="48.73219" lon="7.34528">
        <ele>299.232666</ele>
        <time>2010-08-29T13:54:27Z</time>
      </trkpt>
      <trkpt lat="48.73213" lon="7.34522">
        <ele>299.677979</ele>
        <time>2010-08-29T13:54:29Z</time>
      </trkpt>
      <trkpt lat="48.73208" lon="7.34515">
        <ele>300.318604</ele>
        <time>2010-08-29T13:54:31Z</time>
      </trkpt>
      <trkpt lat="48.73204" lon="7.34509">
        <ele>300.717041</ele>
        <time>2010-08-29T13:54:33Z</time>
      </trkpt>
      <trkpt lat="48.73201" lon="7.34503">
        <ele>301.217041</ele>
        <time>2010-08-29T13:54:35Z</time>
      </trkpt>
      <trkpt lat="48.73197" lon="7.34498">
        <ele>301.896729</ele>
        <time>2010-08-29T13:54:37Z</time>
      </trkpt>
      <trkpt lat="48.73193" lon="7.34491">
        <ele>301.873291</ele>
        <time>2010-08-29T13:54:40Z</time>
      </trkpt>
      <trkpt lat="48.73189" lon="7.34484">
        <ele>302.842041</ele>
        <time>2010-08-29T13:54:43Z</time>
      </trkpt>
      <trkpt lat="48.73185" lon="7.34479">
        <ele>303.451416</ele>
        <time>2010-08-29T13:54:45Z</time>
      </trkpt>
      <trkpt lat="48.73182" lon="7.34473">
        <ele>303.795166</ele>
        <time>2010-08-29T13:54:47Z</time>
      </trkpt>
      <trkpt lat="48.73178" lon="7.34467">
        <ele>304.334229</ele>
        <time>2010-08-29T13:54:49Z</time>
      </trkpt>
      <trkpt lat="48.73174" lon="7.34462">
        <ele>304.576416</ele>
        <time>2010-08-29T13:54:51Z</time>
      </trkpt>
      <trkpt lat="48.7317" lon="7.34456">
        <ele>304.818604</ele>
        <time>2010-08-29T13:54:53Z</time>
      </trkpt>
      <trkpt lat="48.73167" lon="7.34451">
        <ele>305.279541</ele>
        <time>2010-08-29T13:54:55Z</time>
      </trkpt>
      <trkpt lat="48.73163" lon="7.34446">
        <ele>305.779541</ele>
        <time>2010-08-29T13:54:57Z</time>
      </trkpt>
      <trkpt lat="48.73159" lon="7.34441">
        <ele>306.568604</ele>
        <time>2010-08-29T13:54:59Z</time>
      </trkpt>
      <trkpt lat="48.73155" lon="7.34436">
        <ele>306.623291</ele>
        <time>2010-08-29T13:55:01Z</time>
      </trkpt>
      <trkpt lat="48.73151" lon="7.34431">
        <ele>307.271729</ele>
        <time>2010-08-29T13:55:03Z</time>
      </trkpt>
      <trkpt lat="48.73148" lon="7.34426">
        <ele>307.256104</ele>
        <time>2010-08-29T13:55:05Z</time>
      </trkpt>
      <trkpt lat="48.73143" lon="7.34421">
        <ele>307.662354</ele>
        <time>2010-08-29T13:55:07Z</time>
      </trkpt>
      <trkpt lat="48.73139" lon="7.34416">
        <ele>307.670166</ele>
        <time>2010-08-29T13:55:09Z</time>
      </trkpt>
      <trkpt lat="48.73135" lon="7.34411">
        <ele>308.154541</ele>
        <time>2010-08-29T13:55:11Z</time>
      </trkpt>
      <trkpt lat="48.7313" lon="7.34405">
        <ele>308.084229</ele>
        <time>2010-08-29T13:55:14Z</time>
      </trkpt>
      <trkpt lat="48.73126" lon="7.344">
        <ele>308.295166</ele>
        <time>2010-08-29T13:55:16Z</time>
      </trkpt>
      <trkpt lat="48.73122" lon="7.34395">
        <ele>308.404541</ele>
        <time>2010-08-29T13:55:18Z</time>
      </trkpt>
      <trkpt lat="48.73118" lon="7.3439">
        <ele>308.888916</ele>
        <time>2010-08-29T13:55:20Z</time>
      </trkpt>
      <trkpt lat="48.73113" lon="7.34384">
        <ele>308.638916</ele>
        <time>2010-08-29T13:55:22Z</time>
      </trkpt>
      <trkpt lat="48.7311" lon="7.34377">
        <ele>308.443604</ele>
        <time>2010-08-29T13:55:24Z</time>
      </trkpt>
      <trkpt lat="48.73106" lon="7.34372">
        <ele>307.967041</ele>
        <time>2010-08-29T13:55:26Z</time>
      </trkpt>
      <trkpt lat="48.73101" lon="7.34368">
        <ele>307.420166</ele>
        <time>2010-08-29T13:55:30Z</time>
      </trkpt>
      <trkpt lat="48.73098" lon="7.34364">
        <ele>307.295166</ele>
        <time>2010-08-29T13:55:35Z</time>
      </trkpt>
      <trkpt lat="48.73092" lon="7.34359">
        <ele>307.099854</ele>
        <time>2010-08-29T13:55:37Z</time>
      </trkpt>
      <trkpt lat="48.73087" lon="7.34352">
        <ele>307.099854</ele>
        <time>2010-08-29T13:55:39Z</time>
      </trkpt>
      <trkpt lat="48.73082" lon="7.34347">
        <ele>307.795166</ele>
        <time>2010-08-29T13:55:41Z</time>
      </trkpt>
      <trkpt lat="48.73078" lon="7.34342">
        <ele>308.146729</ele>
        <time>2010-08-29T13:55:43Z</time>
      </trkpt>
      <trkpt lat="48.73073" lon="7.34337">
        <ele>308.381104</ele>
        <time>2010-08-29T13:55:46Z</time>
      </trkpt>
      <trkpt lat="48.73069" lon="7.3433">
        <ele>308.927979</ele>
        <time>2010-08-29T13:55:49Z</time>
      </trkpt>
      <trkpt lat="48.73065" lon="7.34325">
        <ele>310.146729</ele>
        <time>2010-08-29T13:55:53Z</time>
      </trkpt>
      <trkpt lat="48.73063" lon="7.34316">
        <ele>310.568604</ele>
        <time>2010-08-29T13:55:56Z</time>
      </trkpt>
      <trkpt lat="48.73058" lon="7.34312">
        <ele>310.795166</ele>
        <time>2010-08-29T13:55:58Z</time>
      </trkpt>
      <trkpt lat="48.73054" lon="7.34307">
        <ele>311.638916</ele>
        <time>2010-08-29T13:56:00Z</time>
      </trkpt>
      <trkpt lat="48.73052" lon="7.34301">
        <ele>312.881104</ele>
        <time>2010-08-29T13:56:04Z</time>
      </trkpt>
      <trkpt lat="48.73051" lon="7.34293">
        <ele>313.756104</ele>
        <time>2010-08-29T13:56:08Z</time>
      </trkpt>
      <trkpt lat="48.7305" lon="7.34286">
        <ele>314.474854</ele>
        <time>2010-08-29T13:56:12Z</time>
      </trkpt>
      <trkpt lat="48.7305" lon="7.34278">
        <ele>315.068604</ele>
        <time>2010-08-29T13:56:15Z</time>
      </trkpt>
      <trkpt lat="48.73047" lon="7.34272">
        <ele>316.334229</ele>
        <time>2010-08-29T13:56:18Z</time>
      </trkpt>
      <trkpt lat="48.73045" lon="7.34265">
        <ele>317.310791</ele>
        <time>2010-08-29T13:56:20Z</time>
      </trkpt>
      <trkpt lat="48.73045" lon="7.34257">
        <ele>318.029541</ele>
        <time>2010-08-29T13:56:22Z</time>
      </trkpt>
      <trkpt lat="48.73043" lon="7.34247">
        <ele>318.654541</ele>
        <time>2010-08-29T13:56:25Z</time>
      </trkpt>
      <trkpt lat="48.7304" lon="7.3424">
        <ele>319.006104</ele>
        <time>2010-08-29T13:56:27Z</time>
      </trkpt>
      <trkpt lat="48.73038" lon="7.34232">
        <ele>319.545166</ele>
        <time>2010-08-29T13:56:29Z</time>
      </trkpt>
      <trkpt lat="48.73032" lon="7.34223">
        <ele>320.318604</ele>
        <time>2010-08-29T13:56:31Z</time>
      </trkpt>
      <trkpt lat="48.7303" lon="7.34215">
        <ele>321.193604</ele>
        <time>2010-08-29T13:56:33Z</time>
      </trkpt>
      <trkpt lat="48.73027" lon="7.34209">
        <ele>321.021729</ele>
        <time>2010-08-29T13:56:35Z</time>
      </trkpt>
      <trkpt lat="48.73024" lon="7.34202">
        <ele>321.631104</ele>
        <time>2010-08-29T13:56:37Z</time>
      </trkpt>
      <trkpt lat="48.73019" lon="7.34195">
        <ele>322.224854</ele>
        <time>2010-08-29T13:56:39Z</time>
      </trkpt>
      <trkpt lat="48.72993" lon="7.34185">
        <ele>322.420166</ele>
        <time>2010-08-29T13:56:40Z</time>
      </trkpt>
      <trkpt lat="48.72988" lon="7.34178">
        <ele>322.810791</ele>
        <time>2010-08-29T13:56:42Z</time>
      </trkpt>
      <trkpt lat="48.72983" lon="7.3417">
        <ele>323.412354</ele>
        <time>2010-08-29T13:56:44Z</time>
      </trkpt>
      <trkpt lat="48.72979" lon="7.34164">
        <ele>323.677979</ele>
        <time>2010-08-29T13:56:46Z</time>
      </trkpt>
      <trkpt lat="48.72972" lon="7.34156">
        <ele>324.052979</ele>
        <time>2010-08-29T13:56:48Z</time>
      </trkpt>
      <trkpt lat="48.72966" lon="7.34152">
        <ele>324.318604</ele>
        <time>2010-08-29T13:56:49Z</time>
      </trkpt>
      <trkpt lat="48.72958" lon="7.34147">
        <ele>324.310791</ele>
        <time>2010-08-29T13:56:50Z</time>
      </trkpt>
      <trkpt lat="48.72951" lon="7.34143">
        <ele>324.396729</ele>
        <time>2010-08-29T13:56:51Z</time>
      </trkpt>
      <trkpt lat="48.72947" lon="7.3414">
        <ele>324.388916</ele>
        <time>2010-08-29T13:56:52Z</time>
      </trkpt>
      <trkpt lat="48.72943" lon="7.34137">
        <ele>324.771729</ele>
        <time>2010-08-29T13:56:53Z</time>
      </trkpt>
      <trkpt lat="48.72938" lon="7.3413">
        <ele>325.357666</ele>
        <time>2010-08-29T13:56:55Z</time>
      </trkpt>
      <trkpt lat="48.72934" lon="7.34123">
        <ele>325.467041</ele>
        <time>2010-08-29T13:56:57Z</time>
      </trkpt>
      <trkpt lat="48.72927" lon="7.34115">
        <ele>324.920166</ele>
        <time>2010-08-29T13:56:59Z</time>
      </trkpt>
      <trkpt lat="48.72924" lon="7.34108">
        <ele>324.943604</ele>
        <time>2010-08-29T13:57:01Z</time>
      </trkpt>
      <trkpt lat="48.7292" lon="7.34101">
        <ele>324.849854</ele>
        <time>2010-08-29T13:57:03Z</time>
      </trkpt>
      <trkpt lat="48.72916" lon="7.34095">
        <ele>325.451416</ele>
        <time>2010-08-29T13:57:05Z</time>
      </trkpt>
      <trkpt lat="48.72914" lon="7.34089">
        <ele>324.615479</ele>
        <time>2010-08-29T13:57:08Z</time>
      </trkpt>
      <trkpt lat="48.72909" lon="7.34081">
        <ele>324.881104</ele>
        <time>2010-08-29T13:57:19Z</time>
      </trkpt>
      <trkpt lat="48.72905" lon="7.34077">
        <ele>325.006104</ele>
        <time>2010-08-29T13:57:21Z</time>
      </trkpt>
      <trkpt lat="48.72903" lon="7.3407">
        <ele>324.506104</ele>
        <time>2010-08-29T13:57:24Z</time>
      </trkpt>
      <trkpt lat="48.72904" lon="7.34061">
        <ele>324.318604</ele>
        <time>2010-08-29T13:57:27Z</time>
      </trkpt>
      <trkpt lat="48.72902" lon="7.34055">
        <ele>324.146729</ele>
        <time>2010-08-29T13:57:29Z</time>
      </trkpt>
      <trkpt lat="48.72898" lon="7.34048">
        <ele>324.677979</ele>
        <time>2010-08-29T13:57:32Z</time>
      </trkpt>
      <trkpt lat="48.72897" lon="7.3404">
        <ele>325.115479</ele>
        <time>2010-08-29T13:57:36Z</time>
      </trkpt>
      <trkpt lat="48.72897" lon="7.34033">
        <ele>325.045166</ele>
        <time>2010-08-29T13:57:38Z</time>
      </trkpt>
      <trkpt lat="48.729" lon="7.34019">
        <ele>324.451416</ele>
        <time>2010-08-29T13:57:40Z</time>
      </trkpt>
      <trkpt lat="48.72903" lon="7.3401">
        <ele>323.904541</ele>
        <time>2010-08-29T13:57:42Z</time>
      </trkpt>
      <trkpt lat="48.729" lon="7.34004">
        <ele>323.240479</ele>
        <time>2010-08-29T13:57:46Z</time>
      </trkpt>
      <trkpt lat="48.72899" lon="7.33996">
        <ele>323.076416</ele>
        <time>2010-08-29T13:57:49Z</time>
      </trkpt>
      <trkpt lat="48.72901" lon="7.33987">
        <ele>322.521729</ele>
        <time>2010-08-29T13:57:50Z</time>
      </trkpt>
      <trkpt lat="48.72902" lon="7.33976">
        <ele>321.584229</ele>
        <time>2010-08-29T13:57:52Z</time>
      </trkpt>
      <trkpt lat="48.72901" lon="7.33967">
        <ele>321.420166</ele>
        <time>2010-08-29T13:57:54Z</time>
      </trkpt>
      <trkpt lat="48.72902" lon="7.33959">
        <ele>321.123291</ele>
        <time>2010-08-29T13:57:56Z</time>
      </trkpt>
      <trkpt lat="48.72903" lon="7.33951">
        <ele>320.920166</ele>
        <time>2010-08-29T13:57:58Z</time>
      </trkpt>
      <trkpt lat="48.72899" lon="7.33942">
        <ele>320.592041</ele>
        <time>2010-08-29T13:58:00Z</time>
      </trkpt>
      <trkpt lat="48.72895" lon="7.33936">
        <ele>321.138916</ele>
        <time>2010-08-29T13:58:01Z</time>
      </trkpt>
      <trkpt lat="48.72889" lon="7.33925">
        <ele>321.451416</ele>
        <time>2010-08-29T13:58:03Z</time>
      </trkpt>
      <trkpt lat="48.72885" lon="7.33921">
        <ele>321.802979</ele>
        <time>2010-08-29T13:58:04Z</time>
      </trkpt>
      <trkpt lat="48.72881" lon="7.33909">
        <ele>322.623291</ele>
        <time>2010-08-29T13:58:06Z</time>
      </trkpt>
      <trkpt lat="48.72878" lon="7.33904">
        <ele>323.029541</ele>
        <time>2010-08-29T13:58:07Z</time>
      </trkpt>
      <trkpt lat="48.72872" lon="7.33898">
        <ele>322.927979</ele>
        <time>2010-08-29T13:58:08Z</time>
      </trkpt>
      <trkpt lat="48.72862" lon="7.33891">
        <ele>323.029541</ele>
        <time>2010-08-29T13:58:09Z</time>
      </trkpt>
      <trkpt lat="48.72849" lon="7.3388">
        <ele>322.818604</ele>
        <time>2010-08-29T13:58:11Z</time>
      </trkpt>
      <trkpt lat="48.72836" lon="7.33868">
        <ele>322.959229</ele>
        <time>2010-08-29T13:58:13Z</time>
      </trkpt>
      <trkpt lat="48.72832" lon="7.33862">
        <ele>322.623291</ele>
        <time>2010-08-29T13:58:14Z</time>
      </trkpt>
      <trkpt lat="48.72829" lon="7.33856">
        <ele>322.732666</ele>
        <time>2010-08-29T13:58:16Z</time>
      </trkpt>
      <trkpt lat="48.72826" lon="7.33851">
        <ele>324.295166</ele>
        <time>2010-08-29T13:58:18Z</time>
      </trkpt>
      <trkpt lat="48.72823" lon="7.33844">
        <ele>324.717041</ele>
        <time>2010-08-29T13:58:21Z</time>
      </trkpt>
      <trkpt lat="48.72817" lon="7.33838">
        <ele>324.506104</ele>
        <time>2010-08-29T13:58:23Z</time>
      </trkpt>
      <trkpt lat="48.72815" lon="7.33831">
        <ele>324.865479</ele>
        <time>2010-08-29T13:58:26Z</time>
      </trkpt>
      <trkpt lat="48.72814" lon="7.33823">
        <ele>325.881104</ele>
        <time>2010-08-29T13:58:28Z</time>
      </trkpt>
      <trkpt lat="48.72812" lon="7.33818">
        <ele>325.920166</ele>
        <time>2010-08-29T13:58:29Z</time>
      </trkpt>
      <trkpt lat="48.72808" lon="7.33806">
        <ele>327.334229</ele>
        <time>2010-08-29T13:58:31Z</time>
      </trkpt>
      <trkpt lat="48.72805" lon="7.33799">
        <ele>327.810791</ele>
        <time>2010-08-29T13:58:33Z</time>
      </trkpt>
      <trkpt lat="48.72804" lon="7.33789">
        <ele>328.435791</ele>
        <time>2010-08-29T13:58:36Z</time>
      </trkpt>
      <trkpt lat="48.72803" lon="7.33782">
        <ele>328.443604</ele>
        <time>2010-08-29T13:58:38Z</time>
      </trkpt>
      <trkpt lat="48.72799" lon="7.33775">
        <ele>328.467041</ele>
        <time>2010-08-29T13:58:41Z</time>
      </trkpt>
      <trkpt lat="48.72795" lon="7.33769">
        <ele>328.177979</ele>
        <time>2010-08-29T13:58:45Z</time>
      </trkpt>
      <trkpt lat="48.72791" lon="7.33765">
        <ele>327.834229</ele>
        <time>2010-08-29T13:58:48Z</time>
      </trkpt>
      <trkpt lat="48.72788" lon="7.33759">
        <ele>328.662354</ele>
        <time>2010-08-29T13:58:52Z</time>
      </trkpt>
      <trkpt lat="48.72785" lon="7.33752">
        <ele>328.552979</ele>
        <time>2010-08-29T13:58:55Z</time>
      </trkpt>
      <trkpt lat="48.72783" lon="7.33744">
        <ele>329.302979</ele>
        <time>2010-08-29T13:58:58Z</time>
      </trkpt>
      <trkpt lat="48.72781" lon="7.33738">
        <ele>328.037354</ele>
        <time>2010-08-29T13:59:00Z</time>
      </trkpt>
      <trkpt lat="48.72776" lon="7.33733">
        <ele>327.279541</ele>
        <time>2010-08-29T13:59:02Z</time>
      </trkpt>
      <trkpt lat="48.72773" lon="7.33727">
        <ele>326.381104</ele>
        <time>2010-08-29T13:59:04Z</time>
      </trkpt>
      <trkpt lat="48.7277" lon="7.3372">
        <ele>326.349854</ele>
        <time>2010-08-29T13:59:06Z</time>
      </trkpt>
      <trkpt lat="48.72766" lon="7.33712">
        <ele>326.912354</ele>
        <time>2010-08-29T13:59:08Z</time>
      </trkpt>
      <trkpt lat="48.72761" lon="7.33704">
        <ele>328.373291</ele>
        <time>2010-08-29T13:59:10Z</time>
      </trkpt>
      <trkpt lat="48.72756" lon="7.33697">
        <ele>328.537354</ele>
        <time>2010-08-29T13:59:12Z</time>
      </trkpt>
      <trkpt lat="48.72751" lon="7.33691">
        <ele>328.396729</ele>
        <time>2010-08-29T13:59:14Z</time>
      </trkpt>
      <trkpt lat="48.72746" lon="7.33683">
        <ele>328.802979</ele>
        <time>2010-08-29T13:59:16Z</time>
      </trkpt>
      <trkpt lat="48.72741" lon="7.33675">
        <ele>329.248291</ele>
        <time>2010-08-29T13:59:18Z</time>
      </trkpt>
      <trkpt lat="48.72738" lon="7.33671">
        <ele>331.123291</ele>
        <time>2010-08-29T13:59:19Z</time>
      </trkpt>
      <trkpt lat="48.72732" lon="7.33664">
        <ele>331.240479</ele>
        <time>2010-08-29T13:59:21Z</time>
      </trkpt>
      <trkpt lat="48.72727" lon="7.33657">
        <ele>332.334229</ele>
        <time>2010-08-29T13:59:23Z</time>
      </trkpt>
      <trkpt lat="48.72721" lon="7.3365">
        <ele>333.654541</ele>
        <time>2010-08-29T13:59:25Z</time>
      </trkpt>
      <trkpt lat="48.72717" lon="7.33643">
        <ele>335.810791</ele>
        <time>2010-08-29T13:59:27Z</time>
      </trkpt>
      <trkpt lat="48.72712" lon="7.33635">
        <ele>334.677979</ele>
        <time>2010-08-29T13:59:29Z</time>
      </trkpt>
      <trkpt lat="48.72707" lon="7.33627">
        <ele>334.021729</ele>
        <time>2010-08-29T13:59:31Z</time>
      </trkpt>
      <trkpt lat="48.72701" lon="7.3362">
        <ele>334.412354</ele>
        <time>2010-08-29T13:59:33Z</time>
      </trkpt>
      <trkpt lat="48.72696" lon="7.33613">
        <ele>334.959229</ele>
        <time>2010-08-29T13:59:35Z</time>
      </trkpt>
      <trkpt lat="48.72689" lon="7.33607">
        <ele>335.560791</ele>
        <time>2010-08-29T13:59:37Z</time>
      </trkpt>
      <trkpt lat="48.72685" lon="7.33602">
        <ele>335.857666</ele>
        <time>2010-08-29T13:59:39Z</time>
      </trkpt>
      <trkpt lat="48.7268" lon="7.33596">
        <ele>336.076416</ele>
        <time>2010-08-29T13:59:41Z</time>
      </trkpt>
      <trkpt lat="48.72675" lon="7.3359">
        <ele>335.842041</ele>
        <time>2010-08-29T13:59:43Z</time>
      </trkpt>
      <trkpt lat="48.72669" lon="7.33584">
        <ele>335.388916</ele>
        <time>2010-08-29T13:59:45Z</time>
      </trkpt>
      <trkpt lat="48.72662" lon="7.33578">
        <ele>334.443604</ele>
        <time>2010-08-29T13:59:47Z</time>
      </trkpt>
      <trkpt lat="48.72657" lon="7.33573">
        <ele>334.154541</ele>
        <time>2010-08-29T13:59:49Z</time>
      </trkpt>
      <trkpt lat="48.72653" lon="7.33568">
        <ele>334.545166</ele>
        <time>2010-08-29T13:59:51Z</time>
      </trkpt>
      <trkpt lat="48.72648" lon="7.33563">
        <ele>333.381104</ele>
        <time>2010-08-29T13:59:53Z</time>
      </trkpt>
      <trkpt lat="48.72642" lon="7.33556">
        <ele>333.287354</ele>
        <time>2010-08-29T13:59:55Z</time>
      </trkpt>
      <trkpt lat="48.72636" lon="7.3355">
        <ele>333.904541</ele>
        <time>2010-08-29T13:59:57Z</time>
      </trkpt>
      <trkpt lat="48.72631" lon="7.33545">
        <ele>334.248291</ele>
        <time>2010-08-29T13:59:59Z</time>
      </trkpt>
      <trkpt lat="48.72626" lon="7.33541">
        <ele>334.115479</ele>
        <time>2010-08-29T14:00:01Z</time>
      </trkpt>
      <trkpt lat="48.7262" lon="7.33536">
        <ele>334.263916</ele>
        <time>2010-08-29T14:00:03Z</time>
      </trkpt>
      <trkpt lat="48.72615" lon="7.33531">
        <ele>335.013916</ele>
        <time>2010-08-29T14:00:05Z</time>
      </trkpt>
      <trkpt lat="48.7261" lon="7.33527">
        <ele>334.420166</ele>
        <time>2010-08-29T14:00:07Z</time>
      </trkpt>
      <trkpt lat="48.72604" lon="7.33521">
        <ele>333.740479</ele>
        <time>2010-08-29T14:00:09Z</time>
      </trkpt>
      <trkpt lat="48.726" lon="7.33517">
        <ele>333.951416</ele>
        <time>2010-08-29T14:00:10Z</time>
      </trkpt>
      <trkpt lat="48.72593" lon="7.33511">
        <ele>334.396729</ele>
        <time>2010-08-29T14:00:12Z</time>
      </trkpt>
      <trkpt lat="48.72586" lon="7.33506">
        <ele>334.076416</ele>
        <time>2010-08-29T14:00:14Z</time>
      </trkpt>
      <trkpt lat="48.72578" lon="7.335">
        <ele>334.506104</ele>
        <time>2010-08-29T14:00:16Z</time>
      </trkpt>
      <trkpt lat="48.72574" lon="7.33497">
        <ele>335.373291</ele>
        <time>2010-08-29T14:00:17Z</time>
      </trkpt>
      <trkpt lat="48.7257" lon="7.33494">
        <ele>335.482666</ele>
        <time>2010-08-29T14:00:18Z</time>
      </trkpt>
      <trkpt lat="48.72563" lon="7.33489">
        <ele>334.920166</ele>
        <time>2010-08-29T14:00:20Z</time>
      </trkpt>
      <trkpt lat="48.72558" lon="7.33485">
        <ele>333.920166</ele>
        <time>2010-08-29T14:00:22Z</time>
      </trkpt>
      <trkpt lat="48.72552" lon="7.33481">
        <ele>334.295166</ele>
        <time>2010-08-29T14:00:24Z</time>
      </trkpt>
      <trkpt lat="48.72545" lon="7.33476">
        <ele>334.232666</ele>
        <time>2010-08-29T14:00:26Z</time>
      </trkpt>
      <trkpt lat="48.72538" lon="7.33471">
        <ele>334.576416</ele>
        <time>2010-08-29T14:00:28Z</time>
      </trkpt>
      <trkpt lat="48.72534" lon="7.33469">
        <ele>335.232666</ele>
        <time>2010-08-29T14:00:30Z</time>
      </trkpt>
      <trkpt lat="48.72529" lon="7.33465">
        <ele>334.638916</ele>
        <time>2010-08-29T14:00:34Z</time>
      </trkpt>
      <trkpt lat="48.72525" lon="7.33463">
        <ele>333.607666</ele>
        <time>2010-08-29T14:00:52Z</time>
      </trkpt>
      <trkpt lat="48.7252" lon="7.33459">
        <ele>333.623291</ele>
        <time>2010-08-29T14:00:56Z</time>
      </trkpt>
      <trkpt lat="48.72514" lon="7.33454">
        <ele>333.037354</ele>
        <time>2010-08-29T14:00:59Z</time>
      </trkpt>
      <trkpt lat="48.72509" lon="7.3345">
        <ele>333.232666</ele>
        <time>2010-08-29T14:01:01Z</time>
      </trkpt>
      <trkpt lat="48.72504" lon="7.33445">
        <ele>333.263916</ele>
        <time>2010-08-29T14:01:03Z</time>
      </trkpt>
      <trkpt lat="48.72499" lon="7.33441">
        <ele>333.920166</ele>
        <time>2010-08-29T14:01:05Z</time>
      </trkpt>
      <trkpt lat="48.72493" lon="7.33437">
        <ele>334.185791</ele>
        <time>2010-08-29T14:01:07Z</time>
      </trkpt>
      <trkpt lat="48.72487" lon="7.33432">
        <ele>334.115479</ele>
        <time>2010-08-29T14:01:10Z</time>
      </trkpt>
      <trkpt lat="48.72482" lon="7.33429">
        <ele>334.459229</ele>
        <time>2010-08-29T14:01:13Z</time>
      </trkpt>
      <trkpt lat="48.72478" lon="7.33424">
        <ele>335.006104</ele>
        <time>2010-08-29T14:01:16Z</time>
      </trkpt>
      <trkpt lat="48.72474" lon="7.33417">
        <ele>335.490479</ele>
        <time>2010-08-29T14:01:19Z</time>
      </trkpt>
      <trkpt lat="48.72471" lon="7.33411">
        <ele>335.677979</ele>
        <time>2010-08-29T14:01:21Z</time>
      </trkpt>
      <trkpt lat="48.72467" lon="7.33407">
        <ele>335.756104</ele>
        <time>2010-08-29T14:01:23Z</time>
      </trkpt>
      <trkpt lat="48.72462" lon="7.33403">
        <ele>335.318604</ele>
        <time>2010-08-29T14:01:25Z</time>
      </trkpt>
      <trkpt lat="48.72456" lon="7.33398">
        <ele>334.927979</ele>
        <time>2010-08-29T14:01:27Z</time>
      </trkpt>
      <trkpt lat="48.7245" lon="7.33393">
        <ele>334.592041</ele>
        <time>2010-08-29T14:01:29Z</time>
      </trkpt>
      <trkpt lat="48.72446" lon="7.33389">
        <ele>334.615479</ele>
        <time>2010-08-29T14:01:31Z</time>
      </trkpt>
      <trkpt lat="48.72441" lon="7.33383">
        <ele>334.545166</ele>
        <time>2010-08-29T14:01:34Z</time>
      </trkpt>
      <trkpt lat="48.72438" lon="7.33378">
        <ele>334.810791</ele>
        <time>2010-08-29T14:01:37Z</time>
      </trkpt>
      <trkpt lat="48.72434" lon="7.33371">
        <ele>335.037354</ele>
        <time>2010-08-29T14:01:40Z</time>
      </trkpt>
      <trkpt lat="48.7243" lon="7.33365">
        <ele>335.318604</ele>
        <time>2010-08-29T14:01:42Z</time>
      </trkpt>
      <trkpt lat="48.72422" lon="7.33358">
        <ele>334.576416</ele>
        <time>2010-08-29T14:01:44Z</time>
      </trkpt>
      <trkpt lat="48.72417" lon="7.33354">
        <ele>334.529541</ele>
        <time>2010-08-29T14:01:45Z</time>
      </trkpt>
      <trkpt lat="48.7241" lon="7.33351">
        <ele>334.881104</ele>
        <time>2010-08-29T14:01:46Z</time>
      </trkpt>
      <trkpt lat="48.72405" lon="7.33348">
        <ele>335.224854</ele>
        <time>2010-08-29T14:01:47Z</time>
      </trkpt>
      <trkpt lat="48.72401" lon="7.33344">
        <ele>335.029541</ele>
        <time>2010-08-29T14:01:49Z</time>
      </trkpt>
      <trkpt lat="48.72397" lon="7.33339">
        <ele>335.443604</ele>
        <time>2010-08-29T14:01:51Z</time>
      </trkpt>
      <trkpt lat="48.72393" lon="7.33335">
        <ele>335.193604</ele>
        <time>2010-08-29T14:01:53Z</time>
      </trkpt>
      <trkpt lat="48.72387" lon="7.3333">
        <ele>334.920166</ele>
        <time>2010-08-29T14:01:56Z</time>
      </trkpt>
      <trkpt lat="48.72382" lon="7.33325">
        <ele>334.927979</ele>
        <time>2010-08-29T14:01:58Z</time>
      </trkpt>
      <trkpt lat="48.72378" lon="7.3332">
        <ele>335.084229</ele>
        <time>2010-08-29T14:02:00Z</time>
      </trkpt>
      <trkpt lat="48.72374" lon="7.33317">
        <ele>335.115479</ele>
        <time>2010-08-29T14:02:02Z</time>
      </trkpt>
      <trkpt lat="48.72367" lon="7.33313">
        <ele>335.435791</ele>
        <time>2010-08-29T14:02:04Z</time>
      </trkpt>
      <trkpt lat="48.72361" lon="7.33309">
        <ele>335.592041</ele>
        <time>2010-08-29T14:02:06Z</time>
      </trkpt>
      <trkpt lat="48.72354" lon="7.33305">
        <ele>335.107666</ele>
        <time>2010-08-29T14:02:08Z</time>
      </trkpt>
      <trkpt lat="48.72348" lon="7.33299">
        <ele>333.990479</ele>
        <time>2010-08-29T14:02:10Z</time>
      </trkpt>
      <trkpt lat="48.72344" lon="7.33296">
        <ele>334.451416</ele>
        <time>2010-08-29T14:02:12Z</time>
      </trkpt>
      <trkpt lat="48.72339" lon="7.33291">
        <ele>334.427979</ele>
        <time>2010-08-29T14:02:14Z</time>
      </trkpt>
      <trkpt lat="48.72334" lon="7.33289">
        <ele>334.037354</ele>
        <time>2010-08-29T14:02:15Z</time>
      </trkpt>
      <trkpt lat="48.72327" lon="7.33285">
        <ele>333.302979</ele>
        <time>2010-08-29T14:02:17Z</time>
      </trkpt>
      <trkpt lat="48.72321" lon="7.33283">
        <ele>333.474854</ele>
        <time>2010-08-29T14:02:19Z</time>
      </trkpt>
      <trkpt lat="48.72316" lon="7.3328">
        <ele>334.099854</ele>
        <time>2010-08-29T14:02:21Z</time>
      </trkpt>
      <trkpt lat="48.72311" lon="7.33277">
        <ele>334.365479</ele>
        <time>2010-08-29T14:02:22Z</time>
      </trkpt>
      <trkpt lat="48.72305" lon="7.33274">
        <ele>334.677979</ele>
        <time>2010-08-29T14:02:24Z</time>
      </trkpt>
      <trkpt lat="48.72299" lon="7.33271">
        <ele>335.162354</ele>
        <time>2010-08-29T14:02:26Z</time>
      </trkpt>
      <trkpt lat="48.72295" lon="7.33268">
        <ele>335.209229</ele>
        <time>2010-08-29T14:02:28Z</time>
      </trkpt>
      <trkpt lat="48.72289" lon="7.33264">
        <ele>334.584229</ele>
        <time>2010-08-29T14:02:31Z</time>
      </trkpt>
      <trkpt lat="48.72283" lon="7.33263">
        <ele>334.498291</ele>
        <time>2010-08-29T14:02:34Z</time>
      </trkpt>
      <trkpt lat="48.72273" lon="7.33263">
        <ele>332.240479</ele>
        <time>2010-08-29T14:02:36Z</time>
      </trkpt>
      <trkpt lat="48.72267" lon="7.33262">
        <ele>331.631104</ele>
        <time>2010-08-29T14:02:38Z</time>
      </trkpt>
      <trkpt lat="48.72261" lon="7.33261">
        <ele>331.240479</ele>
        <time>2010-08-29T14:02:40Z</time>
      </trkpt>
      <trkpt lat="48.72257" lon="7.33258">
        <ele>330.201416</ele>
        <time>2010-08-29T14:02:42Z</time>
      </trkpt>
      <trkpt lat="48.72251" lon="7.33255">
        <ele>329.013916</ele>
        <time>2010-08-29T14:02:45Z</time>
      </trkpt>
      <trkpt lat="48.72245" lon="7.33253">
        <ele>328.092041</ele>
        <time>2010-08-29T14:02:48Z</time>
      </trkpt>
      <trkpt lat="48.72239" lon="7.33252">
        <ele>327.146729</ele>
        <time>2010-08-29T14:02:51Z</time>
      </trkpt>
      <trkpt lat="48.72234" lon="7.33251">
        <ele>326.138916</ele>
        <time>2010-08-29T14:02:57Z</time>
      </trkpt>
      <trkpt lat="48.72228" lon="7.3325">
        <ele>324.842041</ele>
        <time>2010-08-29T14:02:58Z</time>
      </trkpt>
      <trkpt lat="48.72224" lon="7.33247">
        <ele>322.920166</ele>
        <time>2010-08-29T14:03:10Z</time>
      </trkpt>
      <trkpt lat="48.7222" lon="7.33241">
        <ele>322.052979</ele>
        <time>2010-08-29T14:03:17Z</time>
      </trkpt>
      <trkpt lat="48.72216" lon="7.33238">
        <ele>320.467041</ele>
        <time>2010-08-29T14:03:23Z</time>
      </trkpt>
      <trkpt lat="48.72211" lon="7.33237">
        <ele>318.537354</ele>
        <time>2010-08-29T14:03:32Z</time>
      </trkpt>
      <trkpt lat="48.72207" lon="7.33232">
        <ele>317.599854</ele>
        <time>2010-08-29T14:03:36Z</time>
      </trkpt>
      <trkpt lat="48.72201" lon="7.33226">
        <ele>316.865479</ele>
        <time>2010-08-29T14:03:41Z</time>
      </trkpt>
      <trkpt lat="48.72199" lon="7.33217">
        <ele>315.982666</ele>
        <time>2010-08-29T14:03:47Z</time>
      </trkpt>
      <trkpt lat="48.72195" lon="7.33211">
        <ele>315.177979</ele>
        <time>2010-08-29T14:03:49Z</time>
      </trkpt>
      <trkpt lat="48.72191" lon="7.33207">
        <ele>315.045166</ele>
        <time>2010-08-29T14:03:50Z</time>
      </trkpt>
      <trkpt lat="48.72187" lon="7.33203">
        <ele>314.951416</ele>
        <time>2010-08-29T14:03:51Z</time>
      </trkpt>
      <trkpt lat="48.72183" lon="7.33198">
        <ele>314.654541</ele>
        <time>2010-08-29T14:03:52Z</time>
      </trkpt>
      <trkpt lat="48.72176" lon="7.33192">
        <ele>314.771729</ele>
        <time>2010-08-29T14:03:53Z</time>
      </trkpt>
      <trkpt lat="48.72173" lon="7.33184">
        <ele>314.420166</ele>
        <time>2010-08-29T14:03:55Z</time>
      </trkpt>
      <trkpt lat="48.72163" lon="7.33178">
        <ele>315.006104</ele>
        <time>2010-08-29T14:03:56Z</time>
      </trkpt>
      <trkpt lat="48.72166" lon="7.33172">
        <ele>314.982666</ele>
        <time>2010-08-29T14:03:57Z</time>
      </trkpt>
      <trkpt lat="48.7217" lon="7.33167">
        <ele>315.435791</ele>
        <time>2010-08-29T14:03:58Z</time>
      </trkpt>
      <trkpt lat="48.72175" lon="7.33157">
        <ele>315.381104</ele>
        <time>2010-08-29T14:04:00Z</time>
      </trkpt>
      <trkpt lat="48.72159" lon="7.33145">
        <ele>318.498291</ele>
        <time>2010-08-29T14:04:02Z</time>
      </trkpt>
      <trkpt lat="48.72154" lon="7.33139">
        <ele>319.357666</ele>
        <time>2010-08-29T14:04:03Z</time>
      </trkpt>
      <trkpt lat="48.72149" lon="7.33133">
        <ele>319.818604</ele>
        <time>2010-08-29T14:04:04Z</time>
      </trkpt>
      <trkpt lat="48.72142" lon="7.33123">
        <ele>321.451416</ele>
        <time>2010-08-29T14:04:06Z</time>
      </trkpt>
      <trkpt lat="48.72135" lon="7.33113">
        <ele>323.935791</ele>
        <time>2010-08-29T14:04:07Z</time>
      </trkpt>
      <trkpt lat="48.72135" lon="7.33103">
        <ele>325.709229</ele>
        <time>2010-08-29T14:04:09Z</time>
      </trkpt>
      <trkpt lat="48.72134" lon="7.33094">
        <ele>327.295166</ele>
        <time>2010-08-29T14:04:11Z</time>
      </trkpt>
      <trkpt lat="48.72134" lon="7.33082">
        <ele>328.506104</ele>
        <time>2010-08-29T14:04:13Z</time>
      </trkpt>
      <trkpt lat="48.72131" lon="7.33073">
        <ele>329.599854</ele>
        <time>2010-08-29T14:04:15Z</time>
      </trkpt>
      <trkpt lat="48.72131" lon="7.33062">
        <ele>331.232666</ele>
        <time>2010-08-29T14:04:17Z</time>
      </trkpt>
      <trkpt lat="48.7213" lon="7.33052">
        <ele>332.568604</ele>
        <time>2010-08-29T14:04:19Z</time>
      </trkpt>
      <trkpt lat="48.72131" lon="7.33042">
        <ele>334.318604</ele>
        <time>2010-08-29T14:04:21Z</time>
      </trkpt>
      <trkpt lat="48.72133" lon="7.33031">
        <ele>335.310791</ele>
        <time>2010-08-29T14:04:23Z</time>
      </trkpt>
      <trkpt lat="48.72134" lon="7.33021">
        <ele>336.146729</ele>
        <time>2010-08-29T14:04:25Z</time>
      </trkpt>
      <trkpt lat="48.72134" lon="7.3301">
        <ele>336.842041</ele>
        <time>2010-08-29T14:04:27Z</time>
      </trkpt>
      <trkpt lat="48.72135" lon="7.33">
        <ele>336.888916</ele>
        <time>2010-08-29T14:04:29Z</time>
      </trkpt>
      <trkpt lat="48.72135" lon="7.32989">
        <ele>337.427979</ele>
        <time>2010-08-29T14:04:31Z</time>
      </trkpt>
      <trkpt lat="48.72136" lon="7.32978">
        <ele>338.013916</ele>
        <time>2010-08-29T14:04:33Z</time>
      </trkpt>
      <trkpt lat="48.72136" lon="7.32967">
        <ele>339.263916</ele>
        <time>2010-08-29T14:04:35Z</time>
      </trkpt>
      <trkpt lat="48.72137" lon="7.32957">
        <ele>340.498291</ele>
        <time>2010-08-29T14:04:37Z</time>
      </trkpt>
      <trkpt lat="48.72137" lon="7.32947">
        <ele>340.748291</ele>
        <time>2010-08-29T14:04:39Z</time>
      </trkpt>
      <trkpt lat="48.72139" lon="7.32936">
        <ele>342.013916</ele>
        <time>2010-08-29T14:04:41Z</time>
      </trkpt>
      <trkpt lat="48.7214" lon="7.32925">
        <ele>342.740479</ele>
        <time>2010-08-29T14:04:43Z</time>
      </trkpt>
      <trkpt lat="48.72141" lon="7.32914">
        <ele>342.959229</ele>
        <time>2010-08-29T14:04:45Z</time>
      </trkpt>
      <trkpt lat="48.72141" lon="7.32903">
        <ele>343.365479</ele>
        <time>2010-08-29T14:04:47Z</time>
      </trkpt>
      <trkpt lat="48.72142" lon="7.32892">
        <ele>343.935791</ele>
        <time>2010-08-29T14:04:49Z</time>
      </trkpt>
      <trkpt lat="48.72142" lon="7.3288">
        <ele>344.967041</ele>
        <time>2010-08-29T14:04:51Z</time>
      </trkpt>
      <trkpt lat="48.72141" lon="7.32869">
        <ele>345.670166</ele>
        <time>2010-08-29T14:04:53Z</time>
      </trkpt>
      <trkpt lat="48.72141" lon="7.32857">
        <ele>346.435791</ele>
        <time>2010-08-29T14:04:55Z</time>
      </trkpt>
      <trkpt lat="48.72139" lon="7.32846">
        <ele>347.404541</ele>
        <time>2010-08-29T14:04:57Z</time>
      </trkpt>
      <trkpt lat="48.72137" lon="7.32835">
        <ele>348.529541</ele>
        <time>2010-08-29T14:04:59Z</time>
      </trkpt>
      <trkpt lat="48.72135" lon="7.32824">
        <ele>349.404541</ele>
        <time>2010-08-29T14:05:01Z</time>
      </trkpt>
      <trkpt lat="48.72133" lon="7.32815">
        <ele>349.412354</ele>
        <time>2010-08-29T14:05:03Z</time>
      </trkpt>
      <trkpt lat="48.72129" lon="7.32807">
        <ele>350.162354</ele>
        <time>2010-08-29T14:05:05Z</time>
      </trkpt>
      <trkpt lat="48.72126" lon="7.32798">
        <ele>350.537354</ele>
        <time>2010-08-29T14:05:07Z</time>
      </trkpt>
      <trkpt lat="48.72122" lon="7.32789">
        <ele>350.795166</ele>
        <time>2010-08-29T14:05:09Z</time>
      </trkpt>
      <trkpt lat="48.72118" lon="7.32779">
        <ele>351.123291</ele>
        <time>2010-08-29T14:05:11Z</time>
      </trkpt>
      <trkpt lat="48.72114" lon="7.32771">
        <ele>351.068604</ele>
        <time>2010-08-29T14:05:13Z</time>
      </trkpt>
      <trkpt lat="48.72109" lon="7.32764">
        <ele>350.818604</ele>
        <time>2010-08-29T14:05:15Z</time>
      </trkpt>
      <trkpt lat="48.72102" lon="7.32757">
        <ele>350.545166</ele>
        <time>2010-08-29T14:05:17Z</time>
      </trkpt>
      <trkpt lat="48.72094" lon="7.32753">
        <ele>349.560791</ele>
        <time>2010-08-29T14:05:19Z</time>
      </trkpt>
      <trkpt lat="48.72089" lon="7.32748">
        <ele>350.068604</ele>
        <time>2010-08-29T14:05:21Z</time>
      </trkpt>
      <trkpt lat="48.72083" lon="7.32743">
        <ele>350.693604</ele>
        <time>2010-08-29T14:05:23Z</time>
      </trkpt>
      <trkpt lat="48.72078" lon="7.32739">
        <ele>350.724854</ele>
        <time>2010-08-29T14:05:25Z</time>
      </trkpt>
      <trkpt lat="48.7207" lon="7.32735">
        <ele>350.646729</ele>
        <time>2010-08-29T14:05:27Z</time>
      </trkpt>
      <trkpt lat="48.72065" lon="7.32731">
        <ele>350.842041</ele>
        <time>2010-08-29T14:05:29Z</time>
      </trkpt>
      <trkpt lat="48.72059" lon="7.32729">
        <ele>350.787354</ele>
        <time>2010-08-29T14:05:32Z</time>
      </trkpt>
      <trkpt lat="48.72054" lon="7.32726">
        <ele>351.287354</ele>
        <time>2010-08-29T14:05:34Z</time>
      </trkpt>
      <trkpt lat="48.72048" lon="7.32724">
        <ele>351.115479</ele>
        <time>2010-08-29T14:05:36Z</time>
      </trkpt>
      <trkpt lat="48.72039" lon="7.32724">
        <ele>350.412354</ele>
        <time>2010-08-29T14:05:39Z</time>
      </trkpt>
      <trkpt lat="48.72033" lon="7.32722">
        <ele>350.185791</ele>
        <time>2010-08-29T14:05:41Z</time>
      </trkpt>
      <trkpt lat="48.72026" lon="7.3272">
        <ele>349.724854</ele>
        <time>2010-08-29T14:05:43Z</time>
      </trkpt>
      <trkpt lat="48.72021" lon="7.32718">
        <ele>349.342041</ele>
        <time>2010-08-29T14:05:45Z</time>
      </trkpt>
      <trkpt lat="48.72014" lon="7.32718">
        <ele>349.123291</ele>
        <time>2010-08-29T14:05:47Z</time>
      </trkpt>
      <trkpt lat="48.72009" lon="7.32717">
        <ele>349.271729</ele>
        <time>2010-08-29T14:05:49Z</time>
      </trkpt>
      <trkpt lat="48.72002" lon="7.32716">
        <ele>348.998291</ele>
        <time>2010-08-29T14:05:51Z</time>
      </trkpt>
      <trkpt lat="48.71995" lon="7.32716">
        <ele>348.615479</ele>
        <time>2010-08-29T14:05:53Z</time>
      </trkpt>
      <trkpt lat="48.71989" lon="7.32714">
        <ele>348.123291</ele>
        <time>2010-08-29T14:05:55Z</time>
      </trkpt>
      <trkpt lat="48.71982" lon="7.32714">
        <ele>348.310791</ele>
        <time>2010-08-29T14:05:57Z</time>
      </trkpt>
      <trkpt lat="48.71977" lon="7.32714">
        <ele>347.677979</ele>
        <time>2010-08-29T14:05:59Z</time>
      </trkpt>
      <trkpt lat="48.71971" lon="7.32714">
        <ele>347.295166</ele>
        <time>2010-08-29T14:06:01Z</time>
      </trkpt>
      <trkpt lat="48.71964" lon="7.32715">
        <ele>347.342041</ele>
        <time>2010-08-29T14:06:04Z</time>
      </trkpt>
      <trkpt lat="48.71957" lon="7.32716">
        <ele>347.084229</ele>
        <time>2010-08-29T14:06:07Z</time>
      </trkpt>
      <trkpt lat="48.71953" lon="7.32717">
        <ele>347.318604</ele>
        <time>2010-08-29T14:06:09Z</time>
      </trkpt>
      <trkpt lat="48.71948" lon="7.32719">
        <ele>346.927979</ele>
        <time>2010-08-29T14:06:11Z</time>
      </trkpt>
      <trkpt lat="48.71942" lon="7.32721">
        <ele>347.006104</ele>
        <time>2010-08-29T14:06:14Z</time>
      </trkpt>
      <trkpt lat="48.71936" lon="7.32723">
        <ele>346.623291</ele>
        <time>2010-08-29T14:06:17Z</time>
      </trkpt>
      <trkpt lat="48.71931" lon="7.32727">
        <ele>345.927979</ele>
        <time>2010-08-29T14:06:19Z</time>
      </trkpt>
      <trkpt lat="48.71926" lon="7.3273">
        <ele>344.896729</ele>
        <time>2010-08-29T14:06:21Z</time>
      </trkpt>
      <trkpt lat="48.71921" lon="7.32734">
        <ele>344.193604</ele>
        <time>2010-08-29T14:06:23Z</time>
      </trkpt>
      <trkpt lat="48.71914" lon="7.32738">
        <ele>343.248291</ele>
        <time>2010-08-29T14:06:25Z</time>
      </trkpt>
      <trkpt lat="48.71909" lon="7.32742">
        <ele>342.592041</ele>
        <time>2010-08-29T14:06:27Z</time>
      </trkpt>
      <trkpt lat="48.71903" lon="7.32747">
        <ele>341.826416</ele>
        <time>2010-08-29T14:06:29Z</time>
      </trkpt>
      <trkpt lat="48.71899" lon="7.32752">
        <ele>341.295166</ele>
        <time>2010-08-29T14:06:31Z</time>
      </trkpt>
      <trkpt lat="48.71895" lon="7.32757">
        <ele>340.974854</ele>
        <time>2010-08-29T14:06:33Z</time>
      </trkpt>
      <trkpt lat="48.7189" lon="7.32762">
        <ele>340.138916</ele>
        <time>2010-08-29T14:06:35Z</time>
      </trkpt>
      <trkpt lat="48.71885" lon="7.32767">
        <ele>340.326416</ele>
        <time>2010-08-29T14:06:37Z</time>
      </trkpt>
      <trkpt lat="48.71878" lon="7.32771">
        <ele>339.365479</ele>
        <time>2010-08-29T14:06:39Z</time>
      </trkpt>
      <trkpt lat="48.71874" lon="7.32777">
        <ele>338.740479</ele>
        <time>2010-08-29T14:06:41Z</time>
      </trkpt>
      <trkpt lat="48.7187" lon="7.32785">
        <ele>338.013916</ele>
        <time>2010-08-29T14:06:44Z</time>
      </trkpt>
      <trkpt lat="48.71865" lon="7.32791">
        <ele>336.818604</ele>
        <time>2010-08-29T14:06:47Z</time>
      </trkpt>
      <trkpt lat="48.71859" lon="7.32794">
        <ele>336.779541</ele>
        <time>2010-08-29T14:06:49Z</time>
      </trkpt>
      <trkpt lat="48.71855" lon="7.32797">
        <ele>336.092041</ele>
        <time>2010-08-29T14:06:51Z</time>
      </trkpt>
      <trkpt lat="48.71851" lon="7.32802">
        <ele>335.154541</ele>
        <time>2010-08-29T14:06:54Z</time>
      </trkpt>
      <trkpt lat="48.71847" lon="7.32806">
        <ele>334.420166</ele>
        <time>2010-08-29T14:06:57Z</time>
      </trkpt>
      <trkpt lat="48.71843" lon="7.32808">
        <ele>333.826416</ele>
        <time>2010-08-29T14:07:00Z</time>
      </trkpt>
      <trkpt lat="48.71837" lon="7.32812">
        <ele>333.248291</ele>
        <time>2010-08-29T14:07:03Z</time>
      </trkpt>
      <trkpt lat="48.71832" lon="7.32813">
        <ele>332.584229</ele>
        <time>2010-08-29T14:07:05Z</time>
      </trkpt>
      <trkpt lat="48.71826" lon="7.32814">
        <ele>331.287354</ele>
        <time>2010-08-29T14:07:08Z</time>
      </trkpt>
      <trkpt lat="48.71819" lon="7.32814">
        <ele>329.990479</ele>
        <time>2010-08-29T14:07:11Z</time>
      </trkpt>
      <trkpt lat="48.71814" lon="7.32813">
        <ele>329.177979</ele>
        <time>2010-08-29T14:07:13Z</time>
      </trkpt>
      <trkpt lat="48.71809" lon="7.32812">
        <ele>327.974854</ele>
        <time>2010-08-29T14:07:15Z</time>
      </trkpt>
      <trkpt lat="48.71804" lon="7.32811">
        <ele>327.138916</ele>
        <time>2010-08-29T14:07:17Z</time>
      </trkpt>
      <trkpt lat="48.71795" lon="7.32814">
        <ele>325.935791</ele>
        <time>2010-08-29T14:07:18Z</time>
      </trkpt>
      <trkpt lat="48.7179" lon="7.32814">
        <ele>325.021729</ele>
        <time>2010-08-29T14:07:20Z</time>
      </trkpt>
      <trkpt lat="48.71784" lon="7.32812">
        <ele>324.240479</ele>
        <time>2010-08-29T14:07:22Z</time>
      </trkpt>
      <trkpt lat="48.71777" lon="7.32809">
        <ele>322.849854</ele>
        <time>2010-08-29T14:07:24Z</time>
      </trkpt>
      <trkpt lat="48.71772" lon="7.32809">
        <ele>321.552979</ele>
        <time>2010-08-29T14:07:26Z</time>
      </trkpt>
      <trkpt lat="48.71767" lon="7.32808">
        <ele>320.638916</ele>
        <time>2010-08-29T14:07:28Z</time>
      </trkpt>
      <trkpt lat="48.71758" lon="7.3281">
        <ele>318.990479</ele>
        <time>2010-08-29T14:07:30Z</time>
      </trkpt>
      <trkpt lat="48.71753" lon="7.32814">
        <ele>317.474854</ele>
        <time>2010-08-29T14:07:33Z</time>
      </trkpt>
      <trkpt lat="48.71748" lon="7.32815">
        <ele>316.256104</ele>
        <time>2010-08-29T14:07:35Z</time>
      </trkpt>
      <trkpt lat="48.71744" lon="7.32818">
        <ele>315.060791</ele>
        <time>2010-08-29T14:07:37Z</time>
      </trkpt>
      <trkpt lat="48.71741" lon="7.32824">
        <ele>314.037354</ele>
        <time>2010-08-29T14:07:39Z</time>
      </trkpt>
      <trkpt lat="48.71736" lon="7.32826">
        <ele>313.420166</ele>
        <time>2010-08-29T14:07:40Z</time>
      </trkpt>
      <trkpt lat="48.71728" lon="7.32829">
        <ele>311.943604</ele>
        <time>2010-08-29T14:07:42Z</time>
      </trkpt>
      <trkpt lat="48.71722" lon="7.32834">
        <ele>311.607666</ele>
        <time>2010-08-29T14:07:44Z</time>
      </trkpt>
      <trkpt lat="48.71718" lon="7.32841">
        <ele>311.748291</ele>
        <time>2010-08-29T14:07:46Z</time>
      </trkpt>
      <trkpt lat="48.71713" lon="7.3285">
        <ele>311.131104</ele>
        <time>2010-08-29T14:07:48Z</time>
      </trkpt>
      <trkpt lat="48.71709" lon="7.32858">
        <ele>310.498291</ele>
        <time>2010-08-29T14:07:50Z</time>
      </trkpt>
      <trkpt lat="48.71707" lon="7.32866">
        <ele>310.263916</ele>
        <time>2010-08-29T14:07:52Z</time>
      </trkpt>
      <trkpt lat="48.71709" lon="7.32873">
        <ele>309.459229</ele>
        <time>2010-08-29T14:07:53Z</time>
      </trkpt>
      <trkpt lat="48.71707" lon="7.32881">
        <ele>308.935791</ele>
        <time>2010-08-29T14:07:55Z</time>
      </trkpt>
      <trkpt lat="48.71704" lon="7.32889">
        <ele>308.295166</ele>
        <time>2010-08-29T14:07:57Z</time>
      </trkpt>
      <trkpt lat="48.717" lon="7.32898">
        <ele>307.662354</ele>
        <time>2010-08-29T14:07:59Z</time>
      </trkpt>
      <trkpt lat="48.71695" lon="7.32904">
        <ele>307.420166</ele>
        <time>2010-08-29T14:08:01Z</time>
      </trkpt>
      <trkpt lat="48.71687" lon="7.32907">
        <ele>307.006104</ele>
        <time>2010-08-29T14:08:03Z</time>
      </trkpt>
      <trkpt lat="48.71689" lon="7.32916">
        <ele>305.146729</ele>
        <time>2010-08-29T14:08:06Z</time>
      </trkpt>
      <trkpt lat="48.71684" lon="7.32912">
        <ele>303.006104</ele>
        <time>2010-08-29T14:08:11Z</time>
      </trkpt>
      <trkpt lat="48.7168" lon="7.32908">
        <ele>301.935791</ele>
        <time>2010-08-29T14:08:13Z</time>
      </trkpt>
      <trkpt lat="48.71674" lon="7.32906">
        <ele>300.771729</ele>
        <time>2010-08-29T14:08:15Z</time>
      </trkpt>
      <trkpt lat="48.71669" lon="7.32904">
        <ele>299.467041</ele>
        <time>2010-08-29T14:08:17Z</time>
      </trkpt>
      <trkpt lat="48.71664" lon="7.32903">
        <ele>298.146729</ele>
        <time>2010-08-29T14:08:19Z</time>
      </trkpt>
      <trkpt lat="48.71658" lon="7.32899">
        <ele>296.787354</ele>
        <time>2010-08-29T14:08:21Z</time>
      </trkpt>
      <trkpt lat="48.71653" lon="7.329">
        <ele>296.068604</ele>
        <time>2010-08-29T14:08:22Z</time>
      </trkpt>
      <trkpt lat="48.71646" lon="7.329">
        <ele>294.490479</ele>
        <time>2010-08-29T14:08:25Z</time>
      </trkpt>
      <trkpt lat="48.71633" lon="7.32902">
        <ele>292.443604</ele>
        <time>2010-08-29T14:08:28Z</time>
      </trkpt>
      <trkpt lat="48.71624" lon="7.32897">
        <ele>291.912354</ele>
        <time>2010-08-29T14:08:30Z</time>
      </trkpt>
      <trkpt lat="48.71619" lon="7.32894">
        <ele>291.685791</ele>
        <time>2010-08-29T14:08:31Z</time>
      </trkpt>
      <trkpt lat="48.71614" lon="7.32894">
        <ele>291.256104</ele>
        <time>2010-08-29T14:08:33Z</time>
      </trkpt>
      <trkpt lat="48.71606" lon="7.32893">
        <ele>289.787354</ele>
        <time>2010-08-29T14:08:35Z</time>
      </trkpt>
      <trkpt lat="48.71601" lon="7.32892">
        <ele>289.263916</ele>
        <time>2010-08-29T14:08:37Z</time>
      </trkpt>
      <trkpt lat="48.71595" lon="7.32892">
        <ele>288.084229</ele>
        <time>2010-08-29T14:08:39Z</time>
      </trkpt>
      <trkpt lat="48.71589" lon="7.32891">
        <ele>287.123291</ele>
        <time>2010-08-29T14:08:41Z</time>
      </trkpt>
      <trkpt lat="48.71583" lon="7.3289">
        <ele>286.334229</ele>
        <time>2010-08-29T14:08:43Z</time>
      </trkpt>
      <trkpt lat="48.71577" lon="7.32888">
        <ele>285.021729</ele>
        <time>2010-08-29T14:08:45Z</time>
      </trkpt>
      <trkpt lat="48.71571" lon="7.32887">
        <ele>283.638916</ele>
        <time>2010-08-29T14:08:48Z</time>
      </trkpt>
      <trkpt lat="48.71563" lon="7.32888">
        <ele>282.365479</ele>
        <time>2010-08-29T14:08:50Z</time>
      </trkpt>
      <trkpt lat="48.71557" lon="7.32889">
        <ele>281.381104</ele>
        <time>2010-08-29T14:08:52Z</time>
      </trkpt>
      <trkpt lat="48.71552" lon="7.32889">
        <ele>280.209229</ele>
        <time>2010-08-29T14:08:54Z</time>
      </trkpt>
      <trkpt lat="48.71547" lon="7.3289">
        <ele>278.748291</ele>
        <time>2010-08-29T14:08:56Z</time>
      </trkpt>
      <trkpt lat="48.71542" lon="7.3289">
        <ele>277.490479</ele>
        <time>2010-08-29T14:08:58Z</time>
      </trkpt>
      <trkpt lat="48.71537" lon="7.32891">
        <ele>276.154541</ele>
        <time>2010-08-29T14:09:00Z</time>
      </trkpt>
      <trkpt lat="48.71531" lon="7.32891">
        <ele>274.967041</ele>
        <time>2010-08-29T14:09:03Z</time>
      </trkpt>
      <trkpt lat="48.71525" lon="7.32892">
        <ele>273.217041</ele>
        <time>2010-08-29T14:09:06Z</time>
      </trkpt>
      <trkpt lat="48.71519" lon="7.32893">
        <ele>272.310791</ele>
        <time>2010-08-29T14:09:08Z</time>
      </trkpt>
      <trkpt lat="48.71513" lon="7.32895">
        <ele>271.373291</ele>
        <time>2010-08-29T14:09:09Z</time>
      </trkpt>
      <trkpt lat="48.71508" lon="7.32898">
        <ele>269.990479</ele>
        <time>2010-08-29T14:09:11Z</time>
      </trkpt>
      <trkpt lat="48.71503" lon="7.32897">
        <ele>269.756104</ele>
        <time>2010-08-29T14:09:12Z</time>
      </trkpt>
      <trkpt lat="48.71498" lon="7.32896">
        <ele>268.896729</ele>
        <time>2010-08-29T14:09:14Z</time>
      </trkpt>
      <trkpt lat="48.71492" lon="7.32897">
        <ele>267.443604</ele>
        <time>2010-08-29T14:09:16Z</time>
      </trkpt>
      <trkpt lat="48.71487" lon="7.32901">
        <ele>265.326416</ele>
        <time>2010-08-29T14:09:20Z</time>
      </trkpt>
      <trkpt lat="48.71482" lon="7.32903">
        <ele>264.420166</ele>
        <time>2010-08-29T14:09:22Z</time>
      </trkpt>
      <trkpt lat="48.71476" lon="7.32905">
        <ele>263.193604</ele>
        <time>2010-08-29T14:09:24Z</time>
      </trkpt>
      <trkpt lat="48.7147" lon="7.32906">
        <ele>262.248291</ele>
        <time>2010-08-29T14:09:26Z</time>
      </trkpt>
      <trkpt lat="48.71465" lon="7.32906">
        <ele>261.334229</ele>
        <time>2010-08-29T14:09:28Z</time>
      </trkpt>
      <trkpt lat="48.71458" lon="7.32907">
        <ele>260.052979</ele>
        <time>2010-08-29T14:09:31Z</time>
      </trkpt>
      <trkpt lat="48.71452" lon="7.32907">
        <ele>258.802979</ele>
        <time>2010-08-29T14:09:33Z</time>
      </trkpt>
      <trkpt lat="48.71447" lon="7.32908">
        <ele>257.615479</ele>
        <time>2010-08-29T14:09:35Z</time>
      </trkpt>
      <trkpt lat="48.71442" lon="7.32909">
        <ele>256.420166</ele>
        <time>2010-08-29T14:09:37Z</time>
      </trkpt>
      <trkpt lat="48.71437" lon="7.32911">
        <ele>256.076416</ele>
        <time>2010-08-29T14:09:38Z</time>
      </trkpt>
      <trkpt lat="48.71431" lon="7.32911">
        <ele>254.799927</ele>
        <time>2010-08-29T14:09:40Z</time>
      </trkpt>
      <trkpt lat="48.71424" lon="7.32912">
        <ele>254.573364</ele>
        <time>2010-08-29T14:09:42Z</time>
      </trkpt>
      <trkpt lat="48.71419" lon="7.32913">
        <ele>253.155396</ele>
        <time>2010-08-29T14:09:44Z</time>
      </trkpt>
      <trkpt lat="48.71413" lon="7.3291">
        <ele>252.323364</ele>
        <time>2010-08-29T14:09:47Z</time>
      </trkpt>
      <trkpt lat="48.71406" lon="7.3291">
        <ele>251.104614</ele>
        <time>2010-08-29T14:09:49Z</time>
      </trkpt>
      <trkpt lat="48.71401" lon="7.32909">
        <ele>250.038208</ele>
        <time>2010-08-29T14:09:51Z</time>
      </trkpt>
      <trkpt lat="48.71396" lon="7.32907">
        <ele>248.944458</ele>
        <time>2010-08-29T14:09:54Z</time>
      </trkpt>
      <trkpt lat="48.7139" lon="7.32907">
        <ele>247.362427</ele>
        <time>2010-08-29T14:09:56Z</time>
      </trkpt>
      <trkpt lat="48.71385" lon="7.32907">
        <ele>246.143677</ele>
        <time>2010-08-29T14:09:58Z</time>
      </trkpt>
      <trkpt lat="48.7138" lon="7.32905">
        <ele>244.928833</ele>
        <time>2010-08-29T14:10:00Z</time>
      </trkpt>
      <trkpt lat="48.71375" lon="7.32901">
        <ele>244.385864</ele>
        <time>2010-08-29T14:10:02Z</time>
      </trkpt>
      <trkpt lat="48.71371" lon="7.32897">
        <ele>242.928833</ele>
        <time>2010-08-29T14:10:05Z</time>
      </trkpt>
      <trkpt lat="48.71366" lon="7.32891">
        <ele>241.440552</ele>
        <time>2010-08-29T14:10:08Z</time>
      </trkpt>
      <trkpt lat="48.71363" lon="7.32886">
        <ele>240.362427</ele>
        <time>2010-08-29T14:10:11Z</time>
      </trkpt>
      <trkpt lat="48.71358" lon="7.32878">
        <ele>240.858521</ele>
        <time>2010-08-29T14:10:12Z</time>
      </trkpt>
      <trkpt lat="48.71352" lon="7.32873">
        <ele>239.807739</ele>
        <time>2010-08-29T14:10:14Z</time>
      </trkpt>
      <trkpt lat="48.71348" lon="7.32866">
        <ele>239.030396</ele>
        <time>2010-08-29T14:10:16Z</time>
      </trkpt>
      <trkpt lat="48.71343" lon="7.3286">
        <ele>238.405396</ele>
        <time>2010-08-29T14:10:18Z</time>
      </trkpt>
      <trkpt lat="48.71338" lon="7.32853">
        <ele>237.772583</ele>
        <time>2010-08-29T14:10:20Z</time>
      </trkpt>
      <trkpt lat="48.71333" lon="7.32847">
        <ele>237.366333</ele>
        <time>2010-08-29T14:10:22Z</time>
      </trkpt>
      <trkpt lat="48.7133" lon="7.32842">
        <ele>237.213989</ele>
        <time>2010-08-29T14:10:24Z</time>
      </trkpt>
      <trkpt lat="48.71323" lon="7.32834">
        <ele>236.268677</ele>
        <time>2010-08-29T14:10:27Z</time>
      </trkpt>
      <trkpt lat="48.71317" lon="7.32826">
        <ele>235.885864</ele>
        <time>2010-08-29T14:10:29Z</time>
      </trkpt>
      <trkpt lat="48.71311" lon="7.32818">
        <ele>235.299927</ele>
        <time>2010-08-29T14:10:31Z</time>
      </trkpt>
      <trkpt lat="48.71307" lon="7.32813">
        <ele>234.909302</ele>
        <time>2010-08-29T14:10:33Z</time>
      </trkpt>
      <trkpt lat="48.71298" lon="7.32801">
        <ele>234.737427</ele>
        <time>2010-08-29T14:10:34Z</time>
      </trkpt>
      <trkpt lat="48.71294" lon="7.32797">
        <ele>234.397583</ele>
        <time>2010-08-29T14:10:37Z</time>
      </trkpt>
      <trkpt lat="48.71285" lon="7.32789">
        <ele>233.120239</ele>
        <time>2010-08-29T14:10:39Z</time>
      </trkpt>
      <trkpt lat="48.71281" lon="7.32783">
        <ele>232.389771</ele>
        <time>2010-08-29T14:10:41Z</time>
      </trkpt>
      <trkpt lat="48.71275" lon="7.32777">
        <ele>231.756958</ele>
        <time>2010-08-29T14:10:43Z</time>
      </trkpt>
      <trkpt lat="48.71271" lon="7.32773">
        <ele>231.674927</ele>
        <time>2010-08-29T14:10:45Z</time>
      </trkpt>
      <trkpt lat="48.71267" lon="7.32768">
        <ele>231.206177</ele>
        <time>2010-08-29T14:10:48Z</time>
      </trkpt>
      <trkpt lat="48.71262" lon="7.32764">
        <ele>231.538208</ele>
        <time>2010-08-29T14:10:52Z</time>
      </trkpt>
      <trkpt lat="48.71256" lon="7.32757">
        <ele>230.678833</ele>
        <time>2010-08-29T14:10:56Z</time>
      </trkpt>
      <trkpt lat="48.71252" lon="7.32754">
        <ele>229.835083</ele>
        <time>2010-08-29T14:10:58Z</time>
      </trkpt>
      <trkpt lat="48.71249" lon="7.32749">
        <ele>229.042114</ele>
        <time>2010-08-29T14:11:00Z</time>
      </trkpt>
      <trkpt lat="48.71246" lon="7.32742">
        <ele>228.268677</ele>
        <time>2010-08-29T14:11:04Z</time>
      </trkpt>
      <trkpt lat="48.71238" lon="7.3273">
        <ele>227.881958</ele>
        <time>2010-08-29T14:11:06Z</time>
      </trkpt>
      <trkpt lat="48.7123" lon="7.32715">
        <ele>227.858521</ele>
        <time>2010-08-29T14:11:07Z</time>
      </trkpt>
      <trkpt lat="48.71228" lon="7.32708">
        <ele>227.885864</ele>
        <time>2010-08-29T14:11:08Z</time>
      </trkpt>
      <trkpt lat="48.71225" lon="7.32701">
        <ele>227.792114</ele>
        <time>2010-08-29T14:11:09Z</time>
      </trkpt>
      <trkpt lat="48.71228" lon="7.32695">
        <ele>228.217896</ele>
        <time>2010-08-29T14:11:10Z</time>
      </trkpt>
      <trkpt lat="48.71229" lon="7.32685">
        <ele>228.604614</ele>
        <time>2010-08-29T14:11:12Z</time>
      </trkpt>
      <trkpt lat="48.71232" lon="7.32672">
        <ele>229.249146</ele>
        <time>2010-08-29T14:11:14Z</time>
      </trkpt>
      <trkpt lat="48.71231" lon="7.32665">
        <ele>229.452271</ele>
        <time>2010-08-29T14:11:15Z</time>
      </trkpt>
      <trkpt lat="48.71235" lon="7.32654">
        <ele>230.542114</ele>
        <time>2010-08-29T14:11:16Z</time>
      </trkpt>
      <trkpt lat="48.71237" lon="7.32646">
        <ele>231.385864</ele>
        <time>2010-08-29T14:11:17Z</time>
      </trkpt>
      <trkpt lat="48.71239" lon="7.3264">
        <ele>232.182739</ele>
        <time>2010-08-29T14:11:18Z</time>
      </trkpt>
      <trkpt lat="48.71246" lon="7.32632">
        <ele>233.901489</ele>
        <time>2010-08-29T14:11:20Z</time>
      </trkpt>
      <trkpt lat="48.7125" lon="7.32627">
        <ele>234.413208</ele>
        <time>2010-08-29T14:11:21Z</time>
      </trkpt>
      <trkpt lat="48.71254" lon="7.32615">
        <ele>236.440552</ele>
        <time>2010-08-29T14:11:23Z</time>
      </trkpt>
      <trkpt lat="48.71259" lon="7.32609">
        <ele>237.534302</ele>
        <time>2010-08-29T14:11:24Z</time>
      </trkpt>
      <trkpt lat="48.71263" lon="7.32603">
        <ele>238.819458</ele>
        <time>2010-08-29T14:11:25Z</time>
      </trkpt>
      <trkpt lat="48.7127" lon="7.32598">
        <ele>240.694458</ele>
        <time>2010-08-29T14:11:26Z</time>
      </trkpt>
      <trkpt lat="48.71276" lon="7.32589">
        <ele>242.585083</ele>
        <time>2010-08-29T14:11:27Z</time>
      </trkpt>
      <trkpt lat="48.7128" lon="7.32581">
        <ele>243.463989</ele>
        <time>2010-08-29T14:11:28Z</time>
      </trkpt>
      <trkpt lat="48.71285" lon="7.32576">
        <ele>243.999146</ele>
        <time>2010-08-29T14:11:29Z</time>
      </trkpt>
      <trkpt lat="48.71288" lon="7.3257">
        <ele>244.331177</ele>
        <time>2010-08-29T14:11:30Z</time>
      </trkpt>
      <trkpt lat="48.7129" lon="7.32562">
        <ele>244.639771</ele>
        <time>2010-08-29T14:11:32Z</time>
      </trkpt>
      <trkpt lat="48.71294" lon="7.32553">
        <ele>245.561646</ele>
        <time>2010-08-29T14:11:34Z</time>
      </trkpt>
      <trkpt lat="48.71299" lon="7.32548">
        <ele>245.651489</ele>
        <time>2010-08-29T14:11:35Z</time>
      </trkpt>
      <trkpt lat="48.71303" lon="7.32544">
        <ele>245.721802</ele>
        <time>2010-08-29T14:11:36Z</time>
      </trkpt>
      <trkpt lat="48.7131" lon="7.32535">
        <ele>246.522583</ele>
        <time>2010-08-29T14:11:38Z</time>
      </trkpt>
      <trkpt lat="48.71316" lon="7.32533">
        <ele>246.495239</ele>
        <time>2010-08-29T14:11:39Z</time>
      </trkpt>
      <trkpt lat="48.71326" lon="7.32531">
        <ele>249.667114</ele>
        <time>2010-08-29T14:11:40Z</time>
      </trkpt>
      <trkpt lat="48.71332" lon="7.32528">
        <ele>251.428833</ele>
        <time>2010-08-29T14:11:41Z</time>
      </trkpt>
      <trkpt lat="48.71352" lon="7.32517">
        <ele>255.792114</ele>
        <time>2010-08-29T14:11:42Z</time>
      </trkpt>
      <trkpt lat="48.71364" lon="7.32505">
        <ele>259.217041</ele>
        <time>2010-08-29T14:11:44Z</time>
      </trkpt>
      <trkpt lat="48.71363" lon="7.32499">
        <ele>260.435791</ele>
        <time>2010-08-29T14:11:45Z</time>
      </trkpt>
      <trkpt lat="48.71366" lon="7.32495">
        <ele>263.756104</ele>
        <time>2010-08-29T14:11:46Z</time>
      </trkpt>
      <trkpt lat="48.71367" lon="7.32486">
        <ele>265.365479</ele>
        <time>2010-08-29T14:11:48Z</time>
      </trkpt>
      <trkpt lat="48.71353" lon="7.32485">
        <ele>271.427979</ele>
        <time>2010-08-29T14:11:49Z</time>
      </trkpt>
      <trkpt lat="48.71354" lon="7.3248">
        <ele>274.248291</ele>
        <time>2010-08-29T14:11:51Z</time>
      </trkpt>
      <trkpt lat="48.71344" lon="7.3248">
        <ele>278.943604</ele>
        <time>2010-08-29T14:11:53Z</time>
      </trkpt>
      <trkpt lat="48.7134" lon="7.32482">
        <ele>280.802979</ele>
        <time>2010-08-29T14:11:55Z</time>
      </trkpt>
      <trkpt lat="48.71337" lon="7.32488">
        <ele>282.396729</ele>
        <time>2010-08-29T14:11:58Z</time>
      </trkpt>
      <trkpt lat="48.71332" lon="7.32491">
        <ele>283.623291</ele>
        <time>2010-08-29T14:12:00Z</time>
      </trkpt>
      <trkpt lat="48.71328" lon="7.32495">
        <ele>285.224854</ele>
        <time>2010-08-29T14:12:02Z</time>
      </trkpt>
      <trkpt lat="48.7132" lon="7.32499">
        <ele>289.224854</ele>
        <time>2010-08-29T14:12:05Z</time>
      </trkpt>
      <trkpt lat="48.71315" lon="7.32502">
        <ele>293.568604</ele>
        <time>2010-08-29T14:12:07Z</time>
      </trkpt>
      <trkpt lat="48.71308" lon="7.32505">
        <ele>296.951416</ele>
        <time>2010-08-29T14:12:08Z</time>
      </trkpt>
      <trkpt lat="48.71303" lon="7.32508">
        <ele>299.170166</ele>
        <time>2010-08-29T14:12:09Z</time>
      </trkpt>
      <trkpt lat="48.71296" lon="7.32514">
        <ele>301.709229</ele>
        <time>2010-08-29T14:12:11Z</time>
      </trkpt>
      <trkpt lat="48.71291" lon="7.32516">
        <ele>303.263916</ele>
        <time>2010-08-29T14:12:12Z</time>
      </trkpt>
      <trkpt lat="48.71286" lon="7.32518">
        <ele>305.146729</ele>
        <time>2010-08-29T14:12:13Z</time>
      </trkpt>
      <trkpt lat="48.71281" lon="7.32521">
        <ele>306.912354</ele>
        <time>2010-08-29T14:12:14Z</time>
      </trkpt>
      <trkpt lat="48.71277" lon="7.32524">
        <ele>308.763916</ele>
        <time>2010-08-29T14:12:15Z</time>
      </trkpt>
      <trkpt lat="48.71271" lon="7.32526">
        <ele>311.240479</ele>
        <time>2010-08-29T14:12:16Z</time>
      </trkpt>
      <trkpt lat="48.71264" lon="7.32529">
        <ele>312.552979</ele>
        <time>2010-08-29T14:12:18Z</time>
      </trkpt>
      <trkpt lat="48.71257" lon="7.32529">
        <ele>314.552979</ele>
        <time>2010-08-29T14:12:20Z</time>
      </trkpt>
      <trkpt lat="48.71252" lon="7.32531">
        <ele>316.967041</ele>
        <time>2010-08-29T14:12:22Z</time>
      </trkpt>
      <trkpt lat="48.71247" lon="7.32534">
        <ele>321.779541</ele>
        <time>2010-08-29T14:12:25Z</time>
      </trkpt>
      <trkpt lat="48.71243" lon="7.32538">
        <ele>324.373291</ele>
        <time>2010-08-29T14:12:27Z</time>
      </trkpt>
      <trkpt lat="48.71239" lon="7.32545">
        <ele>327.584229</ele>
        <time>2010-08-29T14:12:30Z</time>
      </trkpt>
      <trkpt lat="48.71234" lon="7.32549">
        <ele>329.435791</ele>
        <time>2010-08-29T14:12:32Z</time>
      </trkpt>
      <trkpt lat="48.71228" lon="7.32553">
        <ele>331.295166</ele>
        <time>2010-08-29T14:12:34Z</time>
      </trkpt>
      <trkpt lat="48.7122" lon="7.32555">
        <ele>334.420166</ele>
        <time>2010-08-29T14:12:36Z</time>
      </trkpt>
      <trkpt lat="48.71215" lon="7.32557">
        <ele>336.420166</ele>
        <time>2010-08-29T14:12:38Z</time>
      </trkpt>
      <trkpt lat="48.71204" lon="7.32556">
        <ele>339.927979</ele>
        <time>2010-08-29T14:12:40Z</time>
      </trkpt>
      <trkpt lat="48.71198" lon="7.32561">
        <ele>341.998291</ele>
        <time>2010-08-29T14:12:42Z</time>
      </trkpt>
      <trkpt lat="48.71193" lon="7.32565">
        <ele>342.810791</ele>
        <time>2010-08-29T14:12:44Z</time>
      </trkpt>
      <trkpt lat="48.7119" lon="7.32568">
        <ele>344.201416</ele>
        <time>2010-08-29T14:12:46Z</time>
      </trkpt>
      <trkpt lat="48.71183" lon="7.32573">
        <ele>346.537354</ele>
        <time>2010-08-29T14:12:48Z</time>
      </trkpt>
      <trkpt lat="48.71177" lon="7.32574">
        <ele>349.068604</ele>
        <time>2010-08-29T14:12:49Z</time>
      </trkpt>
      <trkpt lat="48.71173" lon="7.32579">
        <ele>349.873291</ele>
        <time>2010-08-29T14:12:51Z</time>
      </trkpt>
      <trkpt lat="48.71171" lon="7.32584">
        <ele>354.724854</ele>
        <time>2010-08-29T14:13:00Z</time>
      </trkpt>
      <trkpt lat="48.71166" lon="7.32587">
        <ele>355.834229</ele>
        <time>2010-08-29T14:13:02Z</time>
      </trkpt>
      <trkpt lat="48.71159" lon="7.32594">
        <ele>359.068604</ele>
        <time>2010-08-29T14:13:05Z</time>
      </trkpt>
      <trkpt lat="48.71154" lon="7.32594">
        <ele>361.506104</ele>
        <time>2010-08-29T14:13:07Z</time>
      </trkpt>
      <trkpt lat="48.71151" lon="7.32599">
        <ele>363.818604</ele>
        <time>2010-08-29T14:13:12Z</time>
      </trkpt>
      <trkpt lat="48.71147" lon="7.32599">
        <ele>367.967041</ele>
        <time>2010-08-29T14:13:15Z</time>
      </trkpt>
      <trkpt lat="48.7114" lon="7.32598">
        <ele>371.607666</ele>
        <time>2010-08-29T14:13:18Z</time>
      </trkpt>
      <trkpt lat="48.71134" lon="7.32595">
        <ele>373.873291</ele>
        <time>2010-08-29T14:13:24Z</time>
      </trkpt>
      <trkpt lat="48.71128" lon="7.32591">
        <ele>376.826416</ele>
        <time>2010-08-29T14:13:25Z</time>
      </trkpt>
      <trkpt lat="48.71122" lon="7.32588">
        <ele>379.451416</ele>
        <time>2010-08-29T14:13:27Z</time>
      </trkpt>
      <trkpt lat="48.71115" lon="7.32584">
        <ele>382.615479</ele>
        <time>2010-08-29T14:13:31Z</time>
      </trkpt>
      <trkpt lat="48.71109" lon="7.32581">
        <ele>385.763916</ele>
        <time>2010-08-29T14:13:34Z</time>
      </trkpt>
      <trkpt lat="48.71108" lon="7.32579">
        <ele>390.513916</ele>
        <time>2010-08-29T14:14:42Z</time>
      </trkpt>
      <trkpt lat="48.71105" lon="7.32589">
        <ele>392.709229</ele>
        <time>2010-08-29T14:15:28Z</time>
      </trkpt>
      <trkpt lat="48.71103" lon="7.32596">
        <ele>393.537354</ele>
        <time>2010-08-29T14:15:36Z</time>
      </trkpt>
      <trkpt lat="48.711" lon="7.32602">
        <ele>395.623291</ele>
        <time>2010-08-29T14:15:40Z</time>
      </trkpt>
      <trkpt lat="48.71096" lon="7.32604">
        <ele>398.802979</ele>
        <time>2010-08-29T14:15:46Z</time>
      </trkpt>
      <trkpt lat="48.71091" lon="7.32611">
        <ele>399.740479</ele>
        <time>2010-08-29T14:15:49Z</time>
      </trkpt>
      <trkpt lat="48.71087" lon="7.32615">
        <ele>400.092041</ele>
        <time>2010-08-29T14:15:50Z</time>
      </trkpt>
      <trkpt lat="48.71082" lon="7.32621">
        <ele>401.834229</ele>
        <time>2010-08-29T14:15:54Z</time>
      </trkpt>
      <trkpt lat="48.71079" lon="7.32625">
        <ele>403.170166</ele>
        <time>2010-08-29T14:15:57Z</time>
      </trkpt>
      <trkpt lat="48.71073" lon="7.32629">
        <ele>404.615479</ele>
        <time>2010-08-29T14:16:00Z</time>
      </trkpt>
      <trkpt lat="48.71069" lon="7.32634">
        <ele>405.256104</ele>
        <time>2010-08-29T14:16:02Z</time>
      </trkpt>
      <trkpt lat="48.71068" lon="7.32641">
        <ele>406.021729</ele>
        <time>2010-08-29T14:16:04Z</time>
      </trkpt>
      <trkpt lat="48.71067" lon="7.32648">
        <ele>406.357666</ele>
        <time>2010-08-29T14:16:06Z</time>
      </trkpt>
      <trkpt lat="48.71064" lon="7.32657">
        <ele>407.185791</ele>
        <time>2010-08-29T14:16:09Z</time>
      </trkpt>
      <trkpt lat="48.71063" lon="7.32666">
        <ele>407.607666</ele>
        <time>2010-08-29T14:16:12Z</time>
      </trkpt>
      <trkpt lat="48.71061" lon="7.32675">
        <ele>408.576416</ele>
        <time>2010-08-29T14:16:17Z</time>
      </trkpt>
      <trkpt lat="48.71068" lon="7.32691">
        <ele>410.638916</ele>
        <time>2010-08-29T14:16:20Z</time>
      </trkpt>
      <trkpt lat="48.71069" lon="7.32699">
        <ele>411.451416</ele>
        <time>2010-08-29T14:16:23Z</time>
      </trkpt>
      <trkpt lat="48.71071" lon="7.32705">
        <ele>412.513916</ele>
        <time>2010-08-29T14:16:25Z</time>
      </trkpt>
      <trkpt lat="48.71074" lon="7.32713">
        <ele>413.748291</ele>
        <time>2010-08-29T14:16:28Z</time>
      </trkpt>
      <trkpt lat="48.71078" lon="7.32723">
        <ele>416.521729</ele>
        <time>2010-08-29T14:16:32Z</time>
      </trkpt>
      <trkpt lat="48.71079" lon="7.32729">
        <ele>418.279541</ele>
        <time>2010-08-29T14:16:34Z</time>
      </trkpt>
      <trkpt lat="48.71083" lon="7.32737">
        <ele>419.490479</ele>
        <time>2010-08-29T14:16:36Z</time>
      </trkpt>
      <trkpt lat="48.71086" lon="7.32742">
        <ele>421.756104</ele>
        <time>2010-08-29T14:16:41Z</time>
      </trkpt>
      <trkpt lat="48.7109" lon="7.32748">
        <ele>423.677979</ele>
        <time>2010-08-29T14:16:45Z</time>
      </trkpt>
      <trkpt lat="48.71093" lon="7.32756">
        <ele>424.506104</ele>
        <time>2010-08-29T14:16:49Z</time>
      </trkpt>
      <trkpt lat="48.71095" lon="7.32762">
        <ele>425.388916</ele>
        <time>2010-08-29T14:16:52Z</time>
      </trkpt>
      <trkpt lat="48.71096" lon="7.32769">
        <ele>425.935791</ele>
        <time>2010-08-29T14:16:56Z</time>
      </trkpt>
      <trkpt lat="48.711" lon="7.32774">
        <ele>427.279541</ele>
        <time>2010-08-29T14:17:02Z</time>
      </trkpt>
      <trkpt lat="48.71103" lon="7.32779">
        <ele>427.607666</ele>
        <time>2010-08-29T14:17:07Z</time>
      </trkpt>
      <trkpt lat="48.71105" lon="7.32787">
        <ele>427.795166</ele>
        <time>2010-08-29T14:17:10Z</time>
      </trkpt>
      <trkpt lat="48.71109" lon="7.32792">
        <ele>428.756104</ele>
        <time>2010-08-29T14:17:14Z</time>
      </trkpt>
      <trkpt lat="48.71113" lon="7.32797">
        <ele>429.381104</ele>
        <time>2010-08-29T14:17:17Z</time>
      </trkpt>
      <trkpt lat="48.71116" lon="7.32803">
        <ele>429.763916</ele>
        <time>2010-08-29T14:17:19Z</time>
      </trkpt>
      <trkpt lat="48.7112" lon="7.32809">
        <ele>430.381104</ele>
        <time>2010-08-29T14:17:22Z</time>
      </trkpt>
      <trkpt lat="48.71124" lon="7.32814">
        <ele>432.545166</ele>
        <time>2010-08-29T14:17:25Z</time>
      </trkpt>
      <trkpt lat="48.71127" lon="7.3282">
        <ele>434.170166</ele>
        <time>2010-08-29T14:17:28Z</time>
      </trkpt>
      <trkpt lat="48.71131" lon="7.32825">
        <ele>435.209229</ele>
        <time>2010-08-29T14:17:31Z</time>
      </trkpt>
      <trkpt lat="48.71133" lon="7.32832">
        <ele>436.724854</ele>
        <time>2010-08-29T14:17:35Z</time>
      </trkpt>
      <trkpt lat="48.71137" lon="7.3284">
        <ele>437.131104</ele>
        <time>2010-08-29T14:17:38Z</time>
      </trkpt>
      <trkpt lat="48.71139" lon="7.32848">
        <ele>437.287354</ele>
        <time>2010-08-29T14:17:42Z</time>
      </trkpt>
      <trkpt lat="48.7114" lon="7.32855">
        <ele>437.185791</ele>
        <time>2010-08-29T14:17:45Z</time>
      </trkpt>
      <trkpt lat="48.71143" lon="7.3286">
        <ele>438.912354</ele>
        <time>2010-08-29T14:17:50Z</time>
      </trkpt>
      <trkpt lat="48.71145" lon="7.32865">
        <ele>439.162354</ele>
        <time>2010-08-29T14:17:53Z</time>
      </trkpt>
      <trkpt lat="48.71149" lon="7.32869">
        <ele>440.138916</ele>
        <time>2010-08-29T14:17:58Z</time>
      </trkpt>
      <trkpt lat="48.71148" lon="7.32878">
        <ele>441.560791</ele>
        <time>2010-08-29T14:18:02Z</time>
      </trkpt>
      <trkpt lat="48.71149" lon="7.32885">
        <ele>442.677979</ele>
        <time>2010-08-29T14:18:05Z</time>
      </trkpt>
      <trkpt lat="48.71153" lon="7.32892">
        <ele>444.107666</ele>
        <time>2010-08-29T14:18:08Z</time>
      </trkpt>
      <trkpt lat="48.71155" lon="7.32899">
        <ele>445.115479</ele>
        <time>2010-08-29T14:18:11Z</time>
      </trkpt>
      <trkpt lat="48.71158" lon="7.32907">
        <ele>446.263916</ele>
        <time>2010-08-29T14:18:14Z</time>
      </trkpt>
      <trkpt lat="48.71161" lon="7.32913">
        <ele>448.076416</ele>
        <time>2010-08-29T14:18:18Z</time>
      </trkpt>
      <trkpt lat="48.71164" lon="7.32919">
        <ele>449.037354</ele>
        <time>2010-08-29T14:18:21Z</time>
      </trkpt>
      <trkpt lat="48.71161" lon="7.32929">
        <ele>448.717041</ele>
        <time>2010-08-29T14:18:24Z</time>
      </trkpt>
      <trkpt lat="48.71164" lon="7.32935">
        <ele>449.318604</ele>
        <time>2010-08-29T14:18:27Z</time>
      </trkpt>
      <trkpt lat="48.71166" lon="7.32941">
        <ele>450.162354</ele>
        <time>2010-08-29T14:18:30Z</time>
      </trkpt>
      <trkpt lat="48.71169" lon="7.32947">
        <ele>451.287354</ele>
        <time>2010-08-29T14:18:33Z</time>
      </trkpt>
      <trkpt lat="48.71171" lon="7.32954">
        <ele>453.545166</ele>
        <time>2010-08-29T14:18:36Z</time>
      </trkpt>
      <trkpt lat="48.7117" lon="7.32962">
        <ele>454.631104</ele>
        <time>2010-08-29T14:18:39Z</time>
      </trkpt>
      <trkpt lat="48.71174" lon="7.32968">
        <ele>456.982666</ele>
        <time>2010-08-29T14:18:44Z</time>
      </trkpt>
      <trkpt lat="48.71177" lon="7.32972">
        <ele>457.607666</ele>
        <time>2010-08-29T14:18:47Z</time>
      </trkpt>
      <trkpt lat="48.71181" lon="7.32975">
        <ele>458.920166</ele>
        <time>2010-08-29T14:18:50Z</time>
      </trkpt>
      <trkpt lat="48.71186" lon="7.3298">
        <ele>459.435791</ele>
        <time>2010-08-29T14:18:53Z</time>
      </trkpt>
      <trkpt lat="48.7119" lon="7.32984">
        <ele>460.146729</ele>
        <time>2010-08-29T14:18:56Z</time>
      </trkpt>
      <trkpt lat="48.71195" lon="7.32988">
        <ele>461.334229</ele>
        <time>2010-08-29T14:18:59Z</time>
      </trkpt>
      <trkpt lat="48.71199" lon="7.32991">
        <ele>462.396729</ele>
        <time>2010-08-29T14:19:01Z</time>
      </trkpt>
      <trkpt lat="48.71205" lon="7.32995">
        <ele>464.076416</ele>
        <time>2010-08-29T14:19:04Z</time>
      </trkpt>
      <trkpt lat="48.7121" lon="7.32998">
        <ele>465.381104</ele>
        <time>2010-08-29T14:19:07Z</time>
      </trkpt>
      <trkpt lat="48.71214" lon="7.33001">
        <ele>467.123291</ele>
        <time>2010-08-29T14:19:11Z</time>
      </trkpt>
      <trkpt lat="48.71219" lon="7.33002">
        <ele>468.763916</ele>
        <time>2010-08-29T14:19:15Z</time>
      </trkpt>
      <trkpt lat="48.71225" lon="7.33006">
        <ele>469.810791</ele>
        <time>2010-08-29T14:19:18Z</time>
      </trkpt>
      <trkpt lat="48.7123" lon="7.33009">
        <ele>471.232666</ele>
        <time>2010-08-29T14:19:23Z</time>
      </trkpt>
      <trkpt lat="48.71234" lon="7.33012">
        <ele>471.701416</ele>
        <time>2010-08-29T14:19:26Z</time>
      </trkpt>
      <trkpt lat="48.71238" lon="7.33014">
        <ele>472.756104</ele>
        <time>2010-08-29T14:19:31Z</time>
      </trkpt>
      <trkpt lat="48.71245" lon="7.33016">
        <ele>473.896729</ele>
        <time>2010-08-29T14:19:35Z</time>
      </trkpt>
      <trkpt lat="48.7125" lon="7.33017">
        <ele>475.537354</ele>
        <time>2010-08-29T14:19:40Z</time>
      </trkpt>
      <trkpt lat="48.71254" lon="7.33022">
        <ele>476.834229</ele>
        <time>2010-08-29T14:19:44Z</time>
      </trkpt>
      <trkpt lat="48.71258" lon="7.33026">
        <ele>478.709229</ele>
        <time>2010-08-29T14:19:48Z</time>
      </trkpt>
      <trkpt lat="48.71264" lon="7.33029">
        <ele>480.170166</ele>
        <time>2010-08-29T14:19:51Z</time>
      </trkpt>
      <trkpt lat="48.71269" lon="7.33031">
        <ele>482.084229</ele>
        <time>2010-08-29T14:19:55Z</time>
      </trkpt>
      <trkpt lat="48.71273" lon="7.33033">
        <ele>483.943604</ele>
        <time>2010-08-29T14:19:58Z</time>
      </trkpt>
      <trkpt lat="48.71279" lon="7.33035">
        <ele>484.568604</ele>
        <time>2010-08-29T14:20:00Z</time>
      </trkpt>
      <trkpt lat="48.71283" lon="7.33036">
        <ele>485.912354</ele>
        <time>2010-08-29T14:20:03Z</time>
      </trkpt>
      <trkpt lat="48.71288" lon="7.33036">
        <ele>486.693604</ele>
        <time>2010-08-29T14:20:05Z</time>
      </trkpt>
      <trkpt lat="48.71293" lon="7.33037">
        <ele>487.584229</ele>
        <time>2010-08-29T14:20:07Z</time>
      </trkpt>
      <trkpt lat="48.71298" lon="7.33037">
        <ele>488.662354</ele>
        <time>2010-08-29T14:20:09Z</time>
      </trkpt>
      <trkpt lat="48.71303" lon="7.33038">
        <ele>489.951416</ele>
        <time>2010-08-29T14:20:11Z</time>
      </trkpt>
      <trkpt lat="48.7131" lon="7.3304">
        <ele>491.482666</ele>
        <time>2010-08-29T14:20:14Z</time>
      </trkpt>
      <trkpt lat="48.71316" lon="7.33039">
        <ele>492.709229</ele>
        <time>2010-08-29T14:20:17Z</time>
      </trkpt>
      <trkpt lat="48.71322" lon="7.33034">
        <ele>493.576416</ele>
        <time>2010-08-29T14:20:20Z</time>
      </trkpt>
      <trkpt lat="48.71328" lon="7.33034">
        <ele>495.748291</ele>
        <time>2010-08-29T14:20:23Z</time>
      </trkpt>
      <trkpt lat="48.71333" lon="7.33034">
        <ele>496.756104</ele>
        <time>2010-08-29T14:20:26Z</time>
      </trkpt>
      <trkpt lat="48.71338" lon="7.33033">
        <ele>492.935791</ele>
        <time>2010-08-29T14:20:30Z</time>
      </trkpt>
      <trkpt lat="48.71344" lon="7.33034">
        <ele>492.076416</ele>
        <time>2010-08-29T14:20:34Z</time>
      </trkpt>
      <trkpt lat="48.71349" lon="7.33035">
        <ele>492.974854</ele>
        <time>2010-08-29T14:20:38Z</time>
      </trkpt>
      <trkpt lat="48.71355" lon="7.33038">
        <ele>492.763916</ele>
        <time>2010-08-29T14:20:42Z</time>
      </trkpt>
      <trkpt lat="48.7136" lon="7.33036">
        <ele>494.381104</ele>
        <time>2010-08-29T14:20:47Z</time>
      </trkpt>
      <trkpt lat="48.71364" lon="7.33038">
        <ele>492.810791</ele>
        <time>2010-08-29T14:20:49Z</time>
      </trkpt>
      <trkpt lat="48.71369" lon="7.33038">
        <ele>494.185791</ele>
        <time>2010-08-29T14:20:53Z</time>
      </trkpt>
      <trkpt lat="48.71374" lon="7.3304">
        <ele>494.177979</ele>
        <time>2010-08-29T14:20:56Z</time>
      </trkpt>
      <trkpt lat="48.7138" lon="7.3304">
        <ele>494.232666</ele>
        <time>2010-08-29T14:20:59Z</time>
      </trkpt>
      <trkpt lat="48.71385" lon="7.33041">
        <ele>493.904541</ele>
        <time>2010-08-29T14:21:01Z</time>
      </trkpt>
      <trkpt lat="48.71392" lon="7.33041">
        <ele>493.318604</ele>
        <time>2010-08-29T14:21:04Z</time>
      </trkpt>
      <trkpt lat="48.71397" lon="7.33042">
        <ele>495.177979</ele>
        <time>2010-08-29T14:21:07Z</time>
      </trkpt>
      <trkpt lat="48.71402" lon="7.33042">
        <ele>497.732666</ele>
        <time>2010-08-29T14:21:10Z</time>
      </trkpt>
      <trkpt lat="48.71408" lon="7.33043">
        <ele>498.709229</ele>
        <time>2010-08-29T14:21:14Z</time>
      </trkpt>
      <trkpt lat="48.71412" lon="7.33044">
        <ele>498.287354</ele>
        <time>2010-08-29T14:21:16Z</time>
      </trkpt>
      <trkpt lat="48.71417" lon="7.33044">
        <ele>498.771729</ele>
        <time>2010-08-29T14:21:19Z</time>
      </trkpt>
      <trkpt lat="48.71423" lon="7.33046">
        <ele>497.990479</ele>
        <time>2010-08-29T14:21:22Z</time>
      </trkpt>
      <trkpt lat="48.71429" lon="7.33047">
        <ele>497.865479</ele>
        <time>2010-08-29T14:21:26Z</time>
      </trkpt>
      <trkpt lat="48.71434" lon="7.33048">
        <ele>496.998291</ele>
        <time>2010-08-29T14:21:31Z</time>
      </trkpt>
      <trkpt lat="48.71439" lon="7.33046">
        <ele>496.990479</ele>
        <time>2010-08-29T14:21:36Z</time>
      </trkpt>
      <trkpt lat="48.71444" lon="7.33047">
        <ele>496.623291</ele>
        <time>2010-08-29T14:21:38Z</time>
      </trkpt>
      <trkpt lat="48.71449" lon="7.33048">
        <ele>494.693604</ele>
        <time>2010-08-29T14:21:42Z</time>
      </trkpt>
      <trkpt lat="48.71454" lon="7.33047">
        <ele>494.076416</ele>
        <time>2010-08-29T14:21:46Z</time>
      </trkpt>
      <trkpt lat="48.71458" lon="7.33049">
        <ele>492.865479</ele>
        <time>2010-08-29T14:21:50Z</time>
      </trkpt>
      <trkpt lat="48.71463" lon="7.3305">
        <ele>492.131104</ele>
        <time>2010-08-29T14:21:53Z</time>
      </trkpt>
      <trkpt lat="48.71469" lon="7.33051">
        <ele>491.287354</ele>
        <time>2010-08-29T14:21:57Z</time>
      </trkpt>
      <trkpt lat="48.71473" lon="7.33053">
        <ele>490.881104</ele>
        <time>2010-08-29T14:22:00Z</time>
      </trkpt>
      <trkpt lat="48.71481" lon="7.33053">
        <ele>490.795166</ele>
        <time>2010-08-29T14:22:04Z</time>
      </trkpt>
      <trkpt lat="48.71486" lon="7.33056">
        <ele>490.373291</ele>
        <time>2010-08-29T14:22:07Z</time>
      </trkpt>
      <trkpt lat="48.71491" lon="7.33058">
        <ele>491.021729</ele>
        <time>2010-08-29T14:22:11Z</time>
      </trkpt>
      <trkpt lat="48.71497" lon="7.3306">
        <ele>490.334229</ele>
        <time>2010-08-29T14:22:14Z</time>
      </trkpt>
      <trkpt lat="48.71502" lon="7.33063">
        <ele>489.373291</ele>
        <time>2010-08-29T14:22:17Z</time>
      </trkpt>
      <trkpt lat="48.71506" lon="7.33065">
        <ele>488.545166</ele>
        <time>2010-08-29T14:22:20Z</time>
      </trkpt>
      <trkpt lat="48.7151" lon="7.33066">
        <ele>486.982666</ele>
        <time>2010-08-29T14:22:23Z</time>
      </trkpt>
      <trkpt lat="48.71516" lon="7.33067">
        <ele>485.654541</ele>
        <time>2010-08-29T14:22:27Z</time>
      </trkpt>
      <trkpt lat="48.71511" lon="7.33066">
        <ele>483.951416</ele>
        <time>2010-08-29T14:22:35Z</time>
      </trkpt>
      <trkpt lat="48.71504" lon="7.33063">
        <ele>484.381104</ele>
        <time>2010-08-29T14:22:38Z</time>
      </trkpt>
      <trkpt lat="48.71497" lon="7.33064">
        <ele>484.623291</ele>
        <time>2010-08-29T14:22:40Z</time>
      </trkpt>
      <trkpt lat="48.71492" lon="7.33062">
        <ele>484.068604</ele>
        <time>2010-08-29T14:22:42Z</time>
      </trkpt>
      <trkpt lat="48.71487" lon="7.33063">
        <ele>483.584229</ele>
        <time>2010-08-29T14:22:44Z</time>
      </trkpt>
      <trkpt lat="48.71482" lon="7.33063">
        <ele>482.451416</ele>
        <time>2010-08-29T14:22:46Z</time>
      </trkpt>
      <trkpt lat="48.71475" lon="7.33063">
        <ele>481.217041</ele>
        <time>2010-08-29T14:22:48Z</time>
      </trkpt>
      <trkpt lat="48.71469" lon="7.33063">
        <ele>480.162354</ele>
        <time>2010-08-29T14:22:50Z</time>
      </trkpt>
      <trkpt lat="48.71462" lon="7.33064">
        <ele>478.568604</ele>
        <time>2010-08-29T14:22:52Z</time>
      </trkpt>
      <trkpt lat="48.71456" lon="7.33065">
        <ele>477.560791</ele>
        <time>2010-08-29T14:22:54Z</time>
      </trkpt>
      <trkpt lat="48.71449" lon="7.33066">
        <ele>475.748291</ele>
        <time>2010-08-29T14:22:56Z</time>
      </trkpt>
      <trkpt lat="48.71443" lon="7.33067">
        <ele>475.138916</ele>
        <time>2010-08-29T14:22:58Z</time>
      </trkpt>
      <trkpt lat="48.71438" lon="7.33068">
        <ele>475.052979</ele>
        <time>2010-08-29T14:22:59Z</time>
      </trkpt>
      <trkpt lat="48.71431" lon="7.33069">
        <ele>474.365479</ele>
        <time>2010-08-29T14:23:01Z</time>
      </trkpt>
      <trkpt lat="48.71425" lon="7.3307">
        <ele>474.107666</ele>
        <time>2010-08-29T14:23:03Z</time>
      </trkpt>
      <trkpt lat="48.71419" lon="7.33071">
        <ele>473.052979</ele>
        <time>2010-08-29T14:23:05Z</time>
      </trkpt>
      <trkpt lat="48.71411" lon="7.33073">
        <ele>472.060791</ele>
        <time>2010-08-29T14:23:07Z</time>
      </trkpt>
      <trkpt lat="48.71405" lon="7.33074">
        <ele>471.232666</ele>
        <time>2010-08-29T14:23:09Z</time>
      </trkpt>
      <trkpt lat="48.71397" lon="7.33076">
        <ele>469.646729</ele>
        <time>2010-08-29T14:23:11Z</time>
      </trkpt>
      <trkpt lat="48.71391" lon="7.33079">
        <ele>468.654541</ele>
        <time>2010-08-29T14:23:13Z</time>
      </trkpt>
      <trkpt lat="48.71386" lon="7.33081">
        <ele>467.584229</ele>
        <time>2010-08-29T14:23:15Z</time>
      </trkpt>
      <trkpt lat="48.71379" lon="7.33084">
        <ele>466.146729</ele>
        <time>2010-08-29T14:23:17Z</time>
      </trkpt>
      <trkpt lat="48.71373" lon="7.33087">
        <ele>464.998291</ele>
        <time>2010-08-29T14:23:19Z</time>
      </trkpt>
      <trkpt lat="48.71364" lon="7.33087">
        <ele>464.060791</ele>
        <time>2010-08-29T14:23:20Z</time>
      </trkpt>
      <trkpt lat="48.71357" lon="7.33091">
        <ele>462.662354</ele>
        <time>2010-08-29T14:23:22Z</time>
      </trkpt>
      <trkpt lat="48.7135" lon="7.33095">
        <ele>461.357666</ele>
        <time>2010-08-29T14:23:24Z</time>
      </trkpt>
      <trkpt lat="48.71344" lon="7.33101">
        <ele>458.740479</ele>
        <time>2010-08-29T14:23:25Z</time>
      </trkpt>
      <trkpt lat="48.71336" lon="7.33104">
        <ele>457.013916</ele>
        <time>2010-08-29T14:23:27Z</time>
      </trkpt>
      <trkpt lat="48.71331" lon="7.33106">
        <ele>455.732666</ele>
        <time>2010-08-29T14:23:29Z</time>
      </trkpt>
      <trkpt lat="48.7132" lon="7.33112">
        <ele>453.818604</ele>
        <time>2010-08-29T14:23:31Z</time>
      </trkpt>
      <trkpt lat="48.71312" lon="7.33115">
        <ele>452.396729</ele>
        <time>2010-08-29T14:23:33Z</time>
      </trkpt>
      <trkpt lat="48.71307" lon="7.33115">
        <ele>451.927979</ele>
        <time>2010-08-29T14:23:34Z</time>
      </trkpt>
      <trkpt lat="48.71302" lon="7.33115">
        <ele>451.381104</ele>
        <time>2010-08-29T14:23:35Z</time>
      </trkpt>
      <trkpt lat="48.71293" lon="7.33115">
        <ele>449.717041</ele>
        <time>2010-08-29T14:23:37Z</time>
      </trkpt>
      <trkpt lat="48.71289" lon="7.33115">
        <ele>448.998291</ele>
        <time>2010-08-29T14:23:38Z</time>
      </trkpt>
      <trkpt lat="48.71284" lon="7.33115">
        <ele>448.302979</ele>
        <time>2010-08-29T14:23:39Z</time>
      </trkpt>
      <trkpt lat="48.71278" lon="7.33115">
        <ele>447.732666</ele>
        <time>2010-08-29T14:23:40Z</time>
      </trkpt>
      <trkpt lat="48.71274" lon="7.33112">
        <ele>447.209229</ele>
        <time>2010-08-29T14:23:41Z</time>
      </trkpt>
      <trkpt lat="48.7127" lon="7.33113">
        <ele>446.685791</ele>
        <time>2010-08-29T14:23:42Z</time>
      </trkpt>
      <trkpt lat="48.71265" lon="7.33112">
        <ele>446.177979</ele>
        <time>2010-08-29T14:23:43Z</time>
      </trkpt>
      <trkpt lat="48.71256" lon="7.33111">
        <ele>444.584229</ele>
        <time>2010-08-29T14:23:45Z</time>
      </trkpt>
      <trkpt lat="48.71251" lon="7.33111">
        <ele>443.951416</ele>
        <time>2010-08-29T14:23:46Z</time>
      </trkpt>
      <trkpt lat="48.71243" lon="7.33112">
        <ele>442.771729</ele>
        <time>2010-08-29T14:23:48Z</time>
      </trkpt>
      <trkpt lat="48.71238" lon="7.33115">
        <ele>442.771729</ele>
        <time>2010-08-29T14:23:49Z</time>
      </trkpt>
      <trkpt lat="48.71234" lon="7.33118">
        <ele>442.209229</ele>
        <time>2010-08-29T14:23:50Z</time>
      </trkpt>
      <trkpt lat="48.71229" lon="7.33121">
        <ele>441.951416</ele>
        <time>2010-08-29T14:23:51Z</time>
      </trkpt>
      <trkpt lat="48.71225" lon="7.33123">
        <ele>441.427979</ele>
        <time>2010-08-29T14:23:52Z</time>
      </trkpt>
      <trkpt lat="48.7122" lon="7.33125">
        <ele>443.584229</ele>
        <time>2010-08-29T14:23:53Z</time>
      </trkpt>
      <trkpt lat="48.71212" lon="7.33131">
        <ele>443.592041</ele>
        <time>2010-08-29T14:23:55Z</time>
      </trkpt>
      <trkpt lat="48.71207" lon="7.33135">
        <ele>443.388916</ele>
        <time>2010-08-29T14:23:56Z</time>
      </trkpt>
      <trkpt lat="48.71203" lon="7.33138">
        <ele>443.052979</ele>
        <time>2010-08-29T14:23:57Z</time>
      </trkpt>
      <trkpt lat="48.71198" lon="7.33141">
        <ele>443.037354</ele>
        <time>2010-08-29T14:23:58Z</time>
      </trkpt>
      <trkpt lat="48.71194" lon="7.33144">
        <ele>442.943604</ele>
        <time>2010-08-29T14:23:59Z</time>
      </trkpt>
      <trkpt lat="48.71188" lon="7.33147">
        <ele>442.638916</ele>
        <time>2010-08-29T14:24:01Z</time>
      </trkpt>
      <trkpt lat="48.71186" lon="7.33155">
        <ele>442.849854</ele>
        <time>2010-08-29T14:24:04Z</time>
      </trkpt>
      <trkpt lat="48.71189" lon="7.33161">
        <ele>440.677979</ele>
        <time>2010-08-29T14:24:07Z</time>
      </trkpt>
      <trkpt lat="48.71195" lon="7.33159">
        <ele>438.935791</ele>
        <time>2010-08-29T14:24:10Z</time>
      </trkpt>
      <trkpt lat="48.712" lon="7.33158">
        <ele>436.935791</ele>
        <time>2010-08-29T14:24:14Z</time>
      </trkpt>
      <trkpt lat="48.71205" lon="7.3316">
        <ele>436.599854</ele>
        <time>2010-08-29T14:24:18Z</time>
      </trkpt>
      <trkpt lat="48.71211" lon="7.33159">
        <ele>434.709229</ele>
        <time>2010-08-29T14:24:22Z</time>
      </trkpt>
      <trkpt lat="48.71216" lon="7.33154">
        <ele>433.748291</ele>
        <time>2010-08-29T14:24:26Z</time>
      </trkpt>
      <trkpt lat="48.71221" lon="7.3315">
        <ele>434.951416</ele>
        <time>2010-08-29T14:24:31Z</time>
      </trkpt>
      <trkpt lat="48.71225" lon="7.33147">
        <ele>434.834229</ele>
        <time>2010-08-29T14:24:34Z</time>
      </trkpt>
      <trkpt lat="48.71229" lon="7.33143">
        <ele>435.302979</ele>
        <time>2010-08-29T14:24:37Z</time>
      </trkpt>
      <trkpt lat="48.71232" lon="7.33138">
        <ele>436.162354</ele>
        <time>2010-08-29T14:24:39Z</time>
      </trkpt>
      <trkpt lat="48.71236" lon="7.33134">
        <ele>436.748291</ele>
        <time>2010-08-29T14:24:42Z</time>
      </trkpt>
      <trkpt lat="48.7124" lon="7.33131">
        <ele>437.521729</ele>
        <time>2010-08-29T14:24:44Z</time>
      </trkpt>
      <trkpt lat="48.71246" lon="7.33133">
        <ele>437.451416</ele>
        <time>2010-08-29T14:24:46Z</time>
      </trkpt>
      <trkpt lat="48.71252" lon="7.33132">
        <ele>438.498291</ele>
        <time>2010-08-29T14:24:50Z</time>
      </trkpt>
      <trkpt lat="48.71257" lon="7.33134">
        <ele>440.115479</ele>
        <time>2010-08-29T14:24:53Z</time>
      </trkpt>
      <trkpt lat="48.71262" lon="7.33135">
        <ele>441.607666</ele>
        <time>2010-08-29T14:24:56Z</time>
      </trkpt>
      <trkpt lat="48.71268" lon="7.33139">
        <ele>443.896729</ele>
        <time>2010-08-29T14:24:59Z</time>
      </trkpt>
      <trkpt lat="48.71275" lon="7.33144">
        <ele>445.240479</ele>
        <time>2010-08-29T14:25:01Z</time>
      </trkpt>
      <trkpt lat="48.71278" lon="7.33149">
        <ele>444.717041</ele>
        <time>2010-08-29T14:25:02Z</time>
      </trkpt>
      <trkpt lat="48.71283" lon="7.33154">
        <ele>444.498291</ele>
        <time>2010-08-29T14:25:05Z</time>
      </trkpt>
      <trkpt lat="48.71289" lon="7.33153">
        <ele>444.068604</ele>
        <time>2010-08-29T14:25:08Z</time>
      </trkpt>
      <trkpt lat="48.71294" lon="7.33152">
        <ele>445.506104</ele>
        <time>2010-08-29T14:25:10Z</time>
      </trkpt>
      <trkpt lat="48.71299" lon="7.33153">
        <ele>445.967041</ele>
        <time>2010-08-29T14:25:11Z</time>
      </trkpt>
      <trkpt lat="48.71303" lon="7.33155">
        <ele>447.498291</ele>
        <time>2010-08-29T14:25:13Z</time>
      </trkpt>
      <trkpt lat="48.71308" lon="7.33151">
        <ele>448.443604</ele>
        <time>2010-08-29T14:25:16Z</time>
      </trkpt>
      <trkpt lat="48.71313" lon="7.33151">
        <ele>450.334229</ele>
        <time>2010-08-29T14:25:18Z</time>
      </trkpt>
      <trkpt lat="48.71318" lon="7.33149">
        <ele>450.834229</ele>
        <time>2010-08-29T14:25:20Z</time>
      </trkpt>
      <trkpt lat="48.71325" lon="7.33148">
        <ele>452.576416</ele>
        <time>2010-08-29T14:25:22Z</time>
      </trkpt>
      <trkpt lat="48.71329" lon="7.33145">
        <ele>453.654541</ele>
        <time>2010-08-29T14:25:24Z</time>
      </trkpt>
      <trkpt lat="48.71335" lon="7.33142">
        <ele>454.912354</ele>
        <time>2010-08-29T14:25:26Z</time>
      </trkpt>
      <trkpt lat="48.7134" lon="7.3314">
        <ele>456.099854</ele>
        <time>2010-08-29T14:25:28Z</time>
      </trkpt>
      <trkpt lat="48.71345" lon="7.33138">
        <ele>457.279541</ele>
        <time>2010-08-29T14:25:30Z</time>
      </trkpt>
      <trkpt lat="48.71349" lon="7.33135">
        <ele>458.459229</ele>
        <time>2010-08-29T14:25:32Z</time>
      </trkpt>
      <trkpt lat="48.71355" lon="7.33131">
        <ele>459.115479</ele>
        <time>2010-08-29T14:25:34Z</time>
      </trkpt>
      <trkpt lat="48.71361" lon="7.33126">
        <ele>462.099854</ele>
        <time>2010-08-29T14:25:38Z</time>
      </trkpt>
      <trkpt lat="48.71366" lon="7.33124">
        <ele>463.513916</ele>
        <time>2010-08-29T14:25:40Z</time>
      </trkpt>
      <trkpt lat="48.71371" lon="7.33123">
        <ele>465.771729</ele>
        <time>2010-08-29T14:25:43Z</time>
      </trkpt>
      <trkpt lat="48.71375" lon="7.33125">
        <ele>468.263916</ele>
        <time>2010-08-29T14:25:47Z</time>
      </trkpt>
      <trkpt lat="48.7138" lon="7.33125">
        <ele>470.857666</ele>
        <time>2010-08-29T14:25:52Z</time>
      </trkpt>
      <trkpt lat="48.71385" lon="7.33125">
        <ele>472.935791</ele>
        <time>2010-08-29T14:25:55Z</time>
      </trkpt>
      <trkpt lat="48.71391" lon="7.33125">
        <ele>473.748291</ele>
        <time>2010-08-29T14:25:58Z</time>
      </trkpt>
      <trkpt lat="48.71396" lon="7.33125">
        <ele>474.873291</ele>
        <time>2010-08-29T14:26:01Z</time>
      </trkpt>
      <trkpt lat="48.71402" lon="7.33127">
        <ele>475.513916</ele>
        <time>2010-08-29T14:26:04Z</time>
      </trkpt>
      <trkpt lat="48.71409" lon="7.33124">
        <ele>476.849854</ele>
        <time>2010-08-29T14:26:07Z</time>
      </trkpt>
      <trkpt lat="48.71414" lon="7.33125">
        <ele>478.763916</ele>
        <time>2010-08-29T14:26:10Z</time>
      </trkpt>
      <trkpt lat="48.7142" lon="7.33125">
        <ele>481.482666</ele>
        <time>2010-08-29T14:26:15Z</time>
      </trkpt>
      <trkpt lat="48.71425" lon="7.33125">
        <ele>482.427979</ele>
        <time>2010-08-29T14:26:18Z</time>
      </trkpt>
      <trkpt lat="48.71431" lon="7.33124">
        <ele>484.295166</ele>
        <time>2010-08-29T14:26:20Z</time>
      </trkpt>
      <trkpt lat="48.71437" lon="7.33126">
        <ele>485.427979</ele>
        <time>2010-08-29T14:26:22Z</time>
      </trkpt>
      <trkpt lat="48.71442" lon="7.33126">
        <ele>486.146729</ele>
        <time>2010-08-29T14:26:24Z</time>
      </trkpt>
      <trkpt lat="48.71447" lon="7.33125">
        <ele>487.381104</ele>
        <time>2010-08-29T14:26:26Z</time>
      </trkpt>
      <trkpt lat="48.71451" lon="7.33126">
        <ele>488.482666</ele>
        <time>2010-08-29T14:26:28Z</time>
      </trkpt>
      <trkpt lat="48.71458" lon="7.33126">
        <ele>489.607666</ele>
        <time>2010-08-29T14:26:30Z</time>
      </trkpt>
      <trkpt lat="48.71463" lon="7.33126">
        <ele>490.576416</ele>
        <time>2010-08-29T14:26:32Z</time>
      </trkpt>
      <trkpt lat="48.71468" lon="7.33128">
        <ele>491.427979</ele>
        <time>2010-08-29T14:26:34Z</time>
      </trkpt>
      <trkpt lat="48.71473" lon="7.33126">
        <ele>492.763916</ele>
        <time>2010-08-29T14:26:36Z</time>
      </trkpt>
      <trkpt lat="48.71479" lon="7.33127">
        <ele>495.084229</ele>
        <time>2010-08-29T14:26:38Z</time>
      </trkpt>
      <trkpt lat="48.71487" lon="7.3313">
        <ele>496.599854</ele>
        <time>2010-08-29T14:26:40Z</time>
      </trkpt>
      <trkpt lat="48.71491" lon="7.33133">
        <ele>495.756104</ele>
        <time>2010-08-29T14:26:41Z</time>
      </trkpt>
      <trkpt lat="48.71496" lon="7.33135">
        <ele>496.459229</ele>
        <time>2010-08-29T14:26:42Z</time>
      </trkpt>
      <trkpt lat="48.71505" lon="7.33138">
        <ele>496.420166</ele>
        <time>2010-08-29T14:26:44Z</time>
      </trkpt>
      <trkpt lat="48.71513" lon="7.33142">
        <ele>495.256104</ele>
        <time>2010-08-29T14:26:46Z</time>
      </trkpt>
      <trkpt lat="48.71518" lon="7.33144">
        <ele>495.365479</ele>
        <time>2010-08-29T14:26:47Z</time>
      </trkpt>
      <trkpt lat="48.71524" lon="7.33146">
        <ele>495.568604</ele>
        <time>2010-08-29T14:26:49Z</time>
      </trkpt>
      <trkpt lat="48.7153" lon="7.33148">
        <ele>494.818604</ele>
        <time>2010-08-29T14:26:50Z</time>
      </trkpt>
      <trkpt lat="48.71535" lon="7.33149">
        <ele>494.193604</ele>
        <time>2010-08-29T14:26:51Z</time>
      </trkpt>
      <trkpt lat="48.71548" lon="7.33156">
        <ele>491.873291</ele>
        <time>2010-08-29T14:26:53Z</time>
      </trkpt>
      <trkpt lat="48.71553" lon="7.33159">
        <ele>491.545166</ele>
        <time>2010-08-29T14:26:54Z</time>
      </trkpt>
      <trkpt lat="48.71558" lon="7.33161">
        <ele>491.920166</ele>
        <time>2010-08-29T14:26:55Z</time>
      </trkpt>
      <trkpt lat="48.71565" lon="7.33166">
        <ele>491.646729</ele>
        <time>2010-08-29T14:26:57Z</time>
      </trkpt>
      <trkpt lat="48.71571" lon="7.33172">
        <ele>493.756104</ele>
        <time>2010-08-29T14:26:59Z</time>
      </trkpt>
      <trkpt lat="48.71577" lon="7.33174">
        <ele>493.388916</ele>
        <time>2010-08-29T14:27:00Z</time>
      </trkpt>
      <trkpt lat="48.71582" lon="7.33176">
        <ele>492.662354</ele>
        <time>2010-08-29T14:27:01Z</time>
      </trkpt>
      <trkpt lat="48.71589" lon="7.33181">
        <ele>492.568604</ele>
        <time>2010-08-29T14:27:02Z</time>
      </trkpt>
      <trkpt lat="48.71595" lon="7.33185">
        <ele>492.412354</ele>
        <time>2010-08-29T14:27:03Z</time>
      </trkpt>
      <trkpt lat="48.716" lon="7.33188">
        <ele>491.724854</ele>
        <time>2010-08-29T14:27:04Z</time>
      </trkpt>
      <trkpt lat="48.71605" lon="7.3319">
        <ele>491.982666</ele>
        <time>2010-08-29T14:27:05Z</time>
      </trkpt>
      <trkpt lat="48.71611" lon="7.33197">
        <ele>489.185791</ele>
        <time>2010-08-29T14:27:07Z</time>
      </trkpt>
      <trkpt lat="48.71615" lon="7.33201">
        <ele>487.677979</ele>
        <time>2010-08-29T14:27:08Z</time>
      </trkpt>
      <trkpt lat="48.71619" lon="7.33211">
        <ele>484.779541</ele>
        <time>2010-08-29T14:27:09Z</time>
      </trkpt>
      <trkpt lat="48.71624" lon="7.33216">
        <ele>484.037354</ele>
        <time>2010-08-29T14:27:10Z</time>
      </trkpt>
      <trkpt lat="48.71628" lon="7.33221">
        <ele>483.904541</ele>
        <time>2010-08-29T14:27:11Z</time>
      </trkpt>
      <trkpt lat="48.71632" lon="7.33229">
        <ele>478.560791</ele>
        <time>2010-08-29T14:27:13Z</time>
      </trkpt>
      <trkpt lat="48.71636" lon="7.33232">
        <ele>478.834229</ele>
        <time>2010-08-29T14:27:15Z</time>
      </trkpt>
      <trkpt lat="48.71641" lon="7.33236">
        <ele>477.099854</ele>
        <time>2010-08-29T14:27:16Z</time>
      </trkpt>
      <trkpt lat="48.71645" lon="7.33238">
        <ele>473.701416</ele>
        <time>2010-08-29T14:27:17Z</time>
      </trkpt>
      <trkpt lat="48.71649" lon="7.33244">
        <ele>474.576416</ele>
        <time>2010-08-29T14:27:20Z</time>
      </trkpt>
      <trkpt lat="48.71651" lon="7.33254">
        <ele>475.263916</ele>
        <time>2010-08-29T14:27:23Z</time>
      </trkpt>
      <trkpt lat="48.71653" lon="7.3326">
        <ele>473.006104</ele>
        <time>2010-08-29T14:27:25Z</time>
      </trkpt>
      <trkpt lat="48.71654" lon="7.33269">
        <ele>473.943604</ele>
        <time>2010-08-29T14:27:28Z</time>
      </trkpt>
      <trkpt lat="48.71656" lon="7.33276">
        <ele>471.427979</ele>
        <time>2010-08-29T14:27:30Z</time>
      </trkpt>
      <trkpt lat="48.71656" lon="7.33286">
        <ele>469.443604</ele>
        <time>2010-08-29T14:27:32Z</time>
      </trkpt>
      <trkpt lat="48.71657" lon="7.33294">
        <ele>465.779541</ele>
        <time>2010-08-29T14:27:35Z</time>
      </trkpt>
      <trkpt lat="48.71659" lon="7.33299">
        <ele>462.506104</ele>
        <time>2010-08-29T14:27:37Z</time>
      </trkpt>
      <trkpt lat="48.71664" lon="7.333">
        <ele>458.623291</ele>
        <time>2010-08-29T14:27:40Z</time>
      </trkpt>
      <trkpt lat="48.71671" lon="7.33299">
        <ele>456.193604</ele>
        <time>2010-08-29T14:27:42Z</time>
      </trkpt>
      <trkpt lat="48.71677" lon="7.33298">
        <ele>454.365479</ele>
        <time>2010-08-29T14:27:44Z</time>
      </trkpt>
      <trkpt lat="48.71683" lon="7.33301">
        <ele>453.896729</ele>
        <time>2010-08-29T14:27:47Z</time>
      </trkpt>
      <trkpt lat="48.71688" lon="7.33304">
        <ele>452.459229</ele>
        <time>2010-08-29T14:27:50Z</time>
      </trkpt>
      <trkpt lat="48.71691" lon="7.33302">
        <ele>448.092041</ele>
        <time>2010-08-29T14:27:53Z</time>
      </trkpt>
      <trkpt lat="48.71691" lon="7.33309">
        <ele>448.896729</ele>
        <time>2010-08-29T14:28:17Z</time>
      </trkpt>
      <trkpt lat="48.71689" lon="7.33315">
        <ele>449.170166</ele>
        <time>2010-08-29T14:28:32Z</time>
      </trkpt>
      <trkpt lat="48.71693" lon="7.33315">
        <ele>450.193604</ele>
        <time>2010-08-29T14:29:44Z</time>
      </trkpt>
      <trkpt lat="48.71699" lon="7.33319">
        <ele>450.740479</ele>
        <time>2010-08-29T14:30:22Z</time>
      </trkpt>
      <trkpt lat="48.71703" lon="7.3332">
        <ele>450.842041</ele>
        <time>2010-08-29T14:30:25Z</time>
      </trkpt>
      <trkpt lat="48.7171" lon="7.3332">
        <ele>451.217041</ele>
        <time>2010-08-29T14:30:28Z</time>
      </trkpt>
      <trkpt lat="48.71715" lon="7.33326">
        <ele>452.381104</ele>
        <time>2010-08-29T14:30:31Z</time>
      </trkpt>
      <trkpt lat="48.71718" lon="7.33335">
        <ele>453.342041</ele>
        <time>2010-08-29T14:30:34Z</time>
      </trkpt>
      <trkpt lat="48.71722" lon="7.33341">
        <ele>453.029541</ele>
        <time>2010-08-29T14:30:37Z</time>
      </trkpt>
      <trkpt lat="48.71727" lon="7.33345">
        <ele>451.185791</ele>
        <time>2010-08-29T14:30:40Z</time>
      </trkpt>
      <trkpt lat="48.7173" lon="7.33351">
        <ele>450.302979</ele>
        <time>2010-08-29T14:30:42Z</time>
      </trkpt>
      <trkpt lat="48.71733" lon="7.3336">
        <ele>449.795166</ele>
        <time>2010-08-29T14:30:45Z</time>
      </trkpt>
      <trkpt lat="48.71736" lon="7.33366">
        <ele>450.451416</ele>
        <time>2010-08-29T14:30:46Z</time>
      </trkpt>
      <trkpt lat="48.7174" lon="7.33372">
        <ele>450.974854</ele>
        <time>2010-08-29T14:30:47Z</time>
      </trkpt>
      <trkpt lat="48.71744" lon="7.33378">
        <ele>451.209229</ele>
        <time>2010-08-29T14:30:48Z</time>
      </trkpt>
      <trkpt lat="48.71749" lon="7.33383">
        <ele>451.467041</ele>
        <time>2010-08-29T14:30:50Z</time>
      </trkpt>
      <trkpt lat="48.71754" lon="7.3339">
        <ele>451.427979</ele>
        <time>2010-08-29T14:30:52Z</time>
      </trkpt>
      <trkpt lat="48.71759" lon="7.33399">
        <ele>450.412354</ele>
        <time>2010-08-29T14:30:54Z</time>
      </trkpt>
      <trkpt lat="48.71762" lon="7.33409">
        <ele>448.748291</ele>
        <time>2010-08-29T14:30:56Z</time>
      </trkpt>
      <trkpt lat="48.71765" lon="7.33415">
        <ele>447.513916</ele>
        <time>2010-08-29T14:30:57Z</time>
      </trkpt>
      <trkpt lat="48.71768" lon="7.33421">
        <ele>446.131104</ele>
        <time>2010-08-29T14:31:00Z</time>
      </trkpt>
      <trkpt lat="48.71767" lon="7.33418">
        <ele>441.607666</ele>
        <time>2010-08-29T14:31:08Z</time>
      </trkpt>
      <trkpt lat="48.71769" lon="7.33425">
        <ele>439.834229</ele>
        <time>2010-08-29T14:31:11Z</time>
      </trkpt>
      <trkpt lat="48.71771" lon="7.33428">
        <ele>435.974854</ele>
        <time>2010-08-29T14:31:15Z</time>
      </trkpt>
      <trkpt lat="48.71775" lon="7.33432">
        <ele>435.623291</ele>
        <time>2010-08-29T14:31:16Z</time>
      </trkpt>
      <trkpt lat="48.7178" lon="7.33435">
        <ele>434.177979</ele>
        <time>2010-08-29T14:31:18Z</time>
      </trkpt>
      <trkpt lat="48.71785" lon="7.3344">
        <ele>430.943604</ele>
        <time>2010-08-29T14:31:21Z</time>
      </trkpt>
      <trkpt lat="48.71788" lon="7.33445">
        <ele>428.474854</ele>
        <time>2010-08-29T14:31:23Z</time>
      </trkpt>
      <trkpt lat="48.71791" lon="7.33451">
        <ele>426.638916</ele>
        <time>2010-08-29T14:31:25Z</time>
      </trkpt>
      <trkpt lat="48.71794" lon="7.33456">
        <ele>425.576416</ele>
        <time>2010-08-29T14:31:27Z</time>
      </trkpt>
      <trkpt lat="48.71799" lon="7.3346">
        <ele>424.982666</ele>
        <time>2010-08-29T14:31:30Z</time>
      </trkpt>
      <trkpt lat="48.71803" lon="7.33467">
        <ele>423.443604</ele>
        <time>2010-08-29T14:31:33Z</time>
      </trkpt>
      <trkpt lat="48.71808" lon="7.33473">
        <ele>422.521729</ele>
        <time>2010-08-29T14:31:36Z</time>
      </trkpt>
      <trkpt lat="48.71814" lon="7.33483">
        <ele>421.560791</ele>
        <time>2010-08-29T14:31:38Z</time>
      </trkpt>
      <trkpt lat="48.71819" lon="7.33489">
        <ele>421.318604</ele>
        <time>2010-08-29T14:31:40Z</time>
      </trkpt>
      <trkpt lat="48.71824" lon="7.33498">
        <ele>420.459229</ele>
        <time>2010-08-29T14:31:42Z</time>
      </trkpt>
      <trkpt lat="48.71828" lon="7.33505">
        <ele>419.654541</ele>
        <time>2010-08-29T14:31:44Z</time>
      </trkpt>
      <trkpt lat="48.71834" lon="7.33513">
        <ele>417.521729</ele>
        <time>2010-08-29T14:31:46Z</time>
      </trkpt>
      <trkpt lat="48.71838" lon="7.33519">
        <ele>417.427979</ele>
        <time>2010-08-29T14:31:47Z</time>
      </trkpt>
      <trkpt lat="48.71846" lon="7.33534">
        <ele>417.912354</ele>
        <time>2010-08-29T14:31:49Z</time>
      </trkpt>
      <trkpt lat="48.71854" lon="7.33549">
        <ele>418.826416</ele>
        <time>2010-08-29T14:31:51Z</time>
      </trkpt>
      <trkpt lat="48.71857" lon="7.33555">
        <ele>418.795166</ele>
        <time>2010-08-29T14:31:52Z</time>
      </trkpt>
      <trkpt lat="48.71862" lon="7.33563">
        <ele>419.193604</ele>
        <time>2010-08-29T14:31:54Z</time>
      </trkpt>
      <trkpt lat="48.71868" lon="7.33569">
        <ele>418.896729</ele>
        <time>2010-08-29T14:31:55Z</time>
      </trkpt>
      <trkpt lat="48.71871" lon="7.33574">
        <ele>418.795166</ele>
        <time>2010-08-29T14:31:56Z</time>
      </trkpt>
      <trkpt lat="48.71874" lon="7.3358">
        <ele>418.834229</ele>
        <time>2010-08-29T14:31:57Z</time>
      </trkpt>
      <trkpt lat="48.71884" lon="7.33595">
        <ele>418.474854</ele>
        <time>2010-08-29T14:31:58Z</time>
      </trkpt>
      <trkpt lat="48.71887" lon="7.33604">
        <ele>418.396729</ele>
        <time>2010-08-29T14:31:59Z</time>
      </trkpt>
      <trkpt lat="48.71892" lon="7.3361">
        <ele>417.748291</ele>
        <time>2010-08-29T14:32:00Z</time>
      </trkpt>
      <trkpt lat="48.71896" lon="7.33617">
        <ele>417.474854</ele>
        <time>2010-08-29T14:32:01Z</time>
      </trkpt>
      <trkpt lat="48.71899" lon="7.33624">
        <ele>417.849854</ele>
        <time>2010-08-29T14:32:02Z</time>
      </trkpt>
      <trkpt lat="48.71906" lon="7.33633">
        <ele>418.193604</ele>
        <time>2010-08-29T14:32:03Z</time>
      </trkpt>
      <trkpt lat="48.71909" lon="7.33639">
        <ele>418.592041</ele>
        <time>2010-08-29T14:32:04Z</time>
      </trkpt>
      <trkpt lat="48.71913" lon="7.33646">
        <ele>418.920166</ele>
        <time>2010-08-29T14:32:05Z</time>
      </trkpt>
      <trkpt lat="48.71916" lon="7.33655">
        <ele>418.271729</ele>
        <time>2010-08-29T14:32:06Z</time>
      </trkpt>
      <trkpt lat="48.7192" lon="7.33659">
        <ele>418.248291</ele>
        <time>2010-08-29T14:32:07Z</time>
      </trkpt>
      <trkpt lat="48.71926" lon="7.33669">
        <ele>419.076416</ele>
        <time>2010-08-29T14:32:09Z</time>
      </trkpt>
      <trkpt lat="48.7193" lon="7.33676">
        <ele>419.545166</ele>
        <time>2010-08-29T14:32:10Z</time>
      </trkpt>
      <trkpt lat="48.71933" lon="7.33681">
        <ele>419.342041</ele>
        <time>2010-08-29T14:32:11Z</time>
      </trkpt>
      <trkpt lat="48.71938" lon="7.33687">
        <ele>419.201416</ele>
        <time>2010-08-29T14:32:12Z</time>
      </trkpt>
      <trkpt lat="48.71943" lon="7.33693">
        <ele>418.717041</ele>
        <time>2010-08-29T14:32:13Z</time>
      </trkpt>
      <trkpt lat="48.71947" lon="7.33697">
        <ele>419.295166</ele>
        <time>2010-08-29T14:32:14Z</time>
      </trkpt>
      <trkpt lat="48.71951" lon="7.33701">
        <ele>419.154541</ele>
        <time>2010-08-29T14:32:15Z</time>
      </trkpt>
      <trkpt lat="48.71955" lon="7.33707">
        <ele>419.279541</ele>
        <time>2010-08-29T14:32:16Z</time>
      </trkpt>
      <trkpt lat="48.71958" lon="7.33714">
        <ele>418.427979</ele>
        <time>2010-08-29T14:32:17Z</time>
      </trkpt>
      <trkpt lat="48.71963" lon="7.33723">
        <ele>418.420166</ele>
        <time>2010-08-29T14:32:18Z</time>
      </trkpt>
      <trkpt lat="48.71968" lon="7.33726">
        <ele>416.763916</ele>
        <time>2010-08-29T14:32:19Z</time>
      </trkpt>
      <trkpt lat="48.71973" lon="7.33732">
        <ele>416.826416</ele>
        <time>2010-08-29T14:32:20Z</time>
      </trkpt>
      <trkpt lat="48.71979" lon="7.33739">
        <ele>415.857666</ele>
        <time>2010-08-29T14:32:21Z</time>
      </trkpt>
      <trkpt lat="48.71983" lon="7.33746">
        <ele>414.748291</ele>
        <time>2010-08-29T14:32:22Z</time>
      </trkpt>
      <trkpt lat="48.71991" lon="7.33753">
        <ele>409.490479</ele>
        <time>2010-08-29T14:32:23Z</time>
      </trkpt>
      <trkpt lat="48.71998" lon="7.33759">
        <ele>406.506104</ele>
        <time>2010-08-29T14:32:24Z</time>
      </trkpt>
      <trkpt lat="48.72004" lon="7.33767">
        <ele>404.334229</ele>
        <time>2010-08-29T14:32:25Z</time>
      </trkpt>
      <trkpt lat="48.72009" lon="7.33774">
        <ele>403.193604</ele>
        <time>2010-08-29T14:32:26Z</time>
      </trkpt>
      <trkpt lat="48.72014" lon="7.3378">
        <ele>402.217041</ele>
        <time>2010-08-29T14:32:27Z</time>
      </trkpt>
      <trkpt lat="48.72017" lon="7.33787">
        <ele>400.920166</ele>
        <time>2010-08-29T14:32:28Z</time>
      </trkpt>
      <trkpt lat="48.72024" lon="7.33795">
        <ele>401.654541</ele>
        <time>2010-08-29T14:32:29Z</time>
      </trkpt>
      <trkpt lat="48.7203" lon="7.33801">
        <ele>402.076416</ele>
        <time>2010-08-29T14:32:30Z</time>
      </trkpt>
      <trkpt lat="48.72036" lon="7.33804">
        <ele>402.131104</ele>
        <time>2010-08-29T14:32:31Z</time>
      </trkpt>
      <trkpt lat="48.72039" lon="7.33809">
        <ele>401.998291</ele>
        <time>2010-08-29T14:32:32Z</time>
      </trkpt>
      <trkpt lat="48.72043" lon="7.33815">
        <ele>403.123291</ele>
        <time>2010-08-29T14:32:33Z</time>
      </trkpt>
      <trkpt lat="48.72048" lon="7.33819">
        <ele>401.396729</ele>
        <time>2010-08-29T14:32:34Z</time>
      </trkpt>
      <trkpt lat="48.72052" lon="7.33824">
        <ele>402.615479</ele>
        <time>2010-08-29T14:32:35Z</time>
      </trkpt>
      <trkpt lat="48.72057" lon="7.33828">
        <ele>403.084229</ele>
        <time>2010-08-29T14:32:36Z</time>
      </trkpt>
      <trkpt lat="48.72065" lon="7.33838">
        <ele>403.709229</ele>
        <time>2010-08-29T14:32:37Z</time>
      </trkpt>
      <trkpt lat="48.72072" lon="7.33847">
        <ele>401.943604</ele>
        <time>2010-08-29T14:32:38Z</time>
      </trkpt>
      <trkpt lat="48.72076" lon="7.33853">
        <ele>401.443604</ele>
        <time>2010-08-29T14:32:39Z</time>
      </trkpt>
      <trkpt lat="48.72081" lon="7.33856">
        <ele>401.615479</ele>
        <time>2010-08-29T14:32:40Z</time>
      </trkpt>
      <trkpt lat="48.72087" lon="7.3386">
        <ele>402.052979</ele>
        <time>2010-08-29T14:32:41Z</time>
      </trkpt>
      <trkpt lat="48.72092" lon="7.33865">
        <ele>402.107666</ele>
        <time>2010-08-29T14:32:42Z</time>
      </trkpt>
      <trkpt lat="48.72097" lon="7.33869">
        <ele>402.865479</ele>
        <time>2010-08-29T14:32:43Z</time>
      </trkpt>
      <trkpt lat="48.72103" lon="7.33875">
        <ele>403.646729</ele>
        <time>2010-08-29T14:32:44Z</time>
      </trkpt>
      <trkpt lat="48.72107" lon="7.33878">
        <ele>404.412354</ele>
        <time>2010-08-29T14:32:45Z</time>
      </trkpt>
      <trkpt lat="48.72111" lon="7.33882">
        <ele>404.881104</ele>
        <time>2010-08-29T14:32:46Z</time>
      </trkpt>
      <trkpt lat="48.72119" lon="7.33882">
        <ele>403.146729</ele>
        <time>2010-08-29T14:32:47Z</time>
      </trkpt>
      <trkpt lat="48.72128" lon="7.33891">
        <ele>403.834229</ele>
        <time>2010-08-29T14:32:48Z</time>
      </trkpt>
      <trkpt lat="48.72134" lon="7.33893">
        <ele>403.482666</ele>
        <time>2010-08-29T14:32:49Z</time>
      </trkpt>
      <trkpt lat="48.72139" lon="7.33895">
        <ele>404.818604</ele>
        <time>2010-08-29T14:32:50Z</time>
      </trkpt>
      <trkpt lat="48.72144" lon="7.33897">
        <ele>405.107666</ele>
        <time>2010-08-29T14:32:51Z</time>
      </trkpt>
      <trkpt lat="48.72149" lon="7.33903">
        <ele>404.302979</ele>
        <time>2010-08-29T14:32:52Z</time>
      </trkpt>
      <trkpt lat="48.72154" lon="7.33908">
        <ele>405.474854</ele>
        <time>2010-08-29T14:32:53Z</time>
      </trkpt>
      <trkpt lat="48.72159" lon="7.33912">
        <ele>406.920166</ele>
        <time>2010-08-29T14:32:54Z</time>
      </trkpt>
      <trkpt lat="48.72164" lon="7.33916">
        <ele>406.451416</ele>
        <time>2010-08-29T14:32:55Z</time>
      </trkpt>
      <trkpt lat="48.72168" lon="7.3392">
        <ele>407.459229</ele>
        <time>2010-08-29T14:32:56Z</time>
      </trkpt>
      <trkpt lat="48.72173" lon="7.33922">
        <ele>407.193604</ele>
        <time>2010-08-29T14:32:57Z</time>
      </trkpt>
      <trkpt lat="48.72178" lon="7.33923">
        <ele>407.459229</ele>
        <time>2010-08-29T14:32:58Z</time>
      </trkpt>
      <trkpt lat="48.72186" lon="7.3393">
        <ele>405.756104</ele>
        <time>2010-08-29T14:33:00Z</time>
      </trkpt>
      <trkpt lat="48.72191" lon="7.33936">
        <ele>406.193604</ele>
        <time>2010-08-29T14:33:01Z</time>
      </trkpt>
      <trkpt lat="48.72197" lon="7.33939">
        <ele>408.435791</ele>
        <time>2010-08-29T14:33:02Z</time>
      </trkpt>
      <trkpt lat="48.72207" lon="7.33949">
        <ele>410.873291</ele>
        <time>2010-08-29T14:33:03Z</time>
      </trkpt>
      <trkpt lat="48.72212" lon="7.33956">
        <ele>409.951416</ele>
        <time>2010-08-29T14:33:04Z</time>
      </trkpt>
      <trkpt lat="48.72217" lon="7.33965">
        <ele>406.802979</ele>
        <time>2010-08-29T14:33:05Z</time>
      </trkpt>
      <trkpt lat="48.72223" lon="7.33971">
        <ele>406.420166</ele>
        <time>2010-08-29T14:33:06Z</time>
      </trkpt>
      <trkpt lat="48.7223" lon="7.33975">
        <ele>407.146729</ele>
        <time>2010-08-29T14:33:07Z</time>
      </trkpt>
      <trkpt lat="48.72235" lon="7.3398">
        <ele>407.717041</ele>
        <time>2010-08-29T14:33:08Z</time>
      </trkpt>
      <trkpt lat="48.72239" lon="7.33985">
        <ele>406.365479</ele>
        <time>2010-08-29T14:33:09Z</time>
      </trkpt>
      <trkpt lat="48.72242" lon="7.33991">
        <ele>406.224854</ele>
        <time>2010-08-29T14:33:10Z</time>
      </trkpt>
      <trkpt lat="48.72247" lon="7.33996">
        <ele>406.287354</ele>
        <time>2010-08-29T14:33:11Z</time>
      </trkpt>
      <trkpt lat="48.72252" lon="7.34002">
        <ele>406.232666</ele>
        <time>2010-08-29T14:33:12Z</time>
      </trkpt>
      <trkpt lat="48.72257" lon="7.3401">
        <ele>405.521729</ele>
        <time>2010-08-29T14:33:13Z</time>
      </trkpt>
      <trkpt lat="48.7226" lon="7.34016">
        <ele>405.849854</ele>
        <time>2010-08-29T14:33:14Z</time>
      </trkpt>
      <trkpt lat="48.72265" lon="7.34024">
        <ele>406.021729</ele>
        <time>2010-08-29T14:33:15Z</time>
      </trkpt>
      <trkpt lat="48.72268" lon="7.34028">
        <ele>406.506104</ele>
        <time>2010-08-29T14:33:16Z</time>
      </trkpt>
      <trkpt lat="48.72275" lon="7.34035">
        <ele>404.873291</ele>
        <time>2010-08-29T14:33:17Z</time>
      </trkpt>
      <trkpt lat="48.72279" lon="7.34045">
        <ele>405.412354</ele>
        <time>2010-08-29T14:33:18Z</time>
      </trkpt>
      <trkpt lat="48.72282" lon="7.34053">
        <ele>406.545166</ele>
        <time>2010-08-29T14:33:19Z</time>
      </trkpt>
      <trkpt lat="48.72294" lon="7.34073">
        <ele>407.646729</ele>
        <time>2010-08-29T14:33:20Z</time>
      </trkpt>
      <trkpt lat="48.723" lon="7.34083">
        <ele>407.349854</ele>
        <time>2010-08-29T14:33:21Z</time>
      </trkpt>
      <trkpt lat="48.72306" lon="7.34091">
        <ele>407.420166</ele>
        <time>2010-08-29T14:33:22Z</time>
      </trkpt>
      <trkpt lat="48.72315" lon="7.34102">
        <ele>407.724854</ele>
        <time>2010-08-29T14:33:23Z</time>
      </trkpt>
      <trkpt lat="48.72322" lon="7.34111">
        <ele>407.849854</ele>
        <time>2010-08-29T14:33:24Z</time>
      </trkpt>
      <trkpt lat="48.7233" lon="7.3412">
        <ele>405.912354</ele>
        <time>2010-08-29T14:33:25Z</time>
      </trkpt>
      <trkpt lat="48.72336" lon="7.34127">
        <ele>405.818604</ele>
        <time>2010-08-29T14:33:26Z</time>
      </trkpt>
      <trkpt lat="48.72342" lon="7.34136">
        <ele>406.271729</ele>
        <time>2010-08-29T14:33:27Z</time>
      </trkpt>
      <trkpt lat="48.72348" lon="7.34144">
        <ele>406.834229</ele>
        <time>2010-08-29T14:33:28Z</time>
      </trkpt>
      <trkpt lat="48.72352" lon="7.34153">
        <ele>407.545166</ele>
        <time>2010-08-29T14:33:29Z</time>
      </trkpt>
      <trkpt lat="48.72361" lon="7.34166">
        <ele>407.381104</ele>
        <time>2010-08-29T14:33:30Z</time>
      </trkpt>
      <trkpt lat="48.72368" lon="7.34175">
        <ele>406.326416</ele>
        <time>2010-08-29T14:33:31Z</time>
      </trkpt>
      <trkpt lat="48.7238" lon="7.3418">
        <ele>399.717041</ele>
        <time>2010-08-29T14:33:32Z</time>
      </trkpt>
      <trkpt lat="48.72388" lon="7.34186">
        <ele>398.631104</ele>
        <time>2010-08-29T14:33:33Z</time>
      </trkpt>
      <trkpt lat="48.72396" lon="7.34195">
        <ele>395.982666</ele>
        <time>2010-08-29T14:33:34Z</time>
      </trkpt>
      <trkpt lat="48.72404" lon="7.34202">
        <ele>394.420166</ele>
        <time>2010-08-29T14:33:35Z</time>
      </trkpt>
      <trkpt lat="48.72414" lon="7.34206">
        <ele>389.045166</ele>
        <time>2010-08-29T14:33:36Z</time>
      </trkpt>
      <trkpt lat="48.72419" lon="7.34205">
        <ele>387.021729</ele>
        <time>2010-08-29T14:33:37Z</time>
      </trkpt>
      <trkpt lat="48.72425" lon="7.3421">
        <ele>387.396729</ele>
        <time>2010-08-29T14:33:38Z</time>
      </trkpt>
      <trkpt lat="48.7243" lon="7.34214">
        <ele>385.888916</ele>
        <time>2010-08-29T14:33:39Z</time>
      </trkpt>
      <trkpt lat="48.72435" lon="7.34219">
        <ele>385.217041</ele>
        <time>2010-08-29T14:33:40Z</time>
      </trkpt>
      <trkpt lat="48.7244" lon="7.34223">
        <ele>384.959229</ele>
        <time>2010-08-29T14:33:41Z</time>
      </trkpt>
      <trkpt lat="48.72446" lon="7.34228">
        <ele>384.334229</ele>
        <time>2010-08-29T14:33:42Z</time>
      </trkpt>
      <trkpt lat="48.72452" lon="7.3423">
        <ele>382.412354</ele>
        <time>2010-08-29T14:33:43Z</time>
      </trkpt>
      <trkpt lat="48.72458" lon="7.34235">
        <ele>380.654541</ele>
        <time>2010-08-29T14:33:44Z</time>
      </trkpt>
      <trkpt lat="48.72464" lon="7.34238">
        <ele>378.146729</ele>
        <time>2010-08-29T14:33:45Z</time>
      </trkpt>
      <trkpt lat="48.72471" lon="7.3424">
        <ele>373.404541</ele>
        <time>2010-08-29T14:33:46Z</time>
      </trkpt>
      <trkpt lat="48.72475" lon="7.34243">
        <ele>371.052979</ele>
        <time>2010-08-29T14:33:47Z</time>
      </trkpt>
      <trkpt lat="48.7248" lon="7.34245">
        <ele>369.302979</ele>
        <time>2010-08-29T14:33:48Z</time>
      </trkpt>
      <trkpt lat="48.72486" lon="7.34253">
        <ele>369.006104</ele>
        <time>2010-08-29T14:33:49Z</time>
      </trkpt>
      <trkpt lat="48.72491" lon="7.34256">
        <ele>369.185791</ele>
        <time>2010-08-29T14:33:50Z</time>
      </trkpt>
      <trkpt lat="48.72496" lon="7.3426">
        <ele>368.670166</ele>
        <time>2010-08-29T14:33:51Z</time>
      </trkpt>
      <trkpt lat="48.72501" lon="7.34264">
        <ele>367.552979</ele>
        <time>2010-08-29T14:33:52Z</time>
      </trkpt>
      <trkpt lat="48.72506" lon="7.34267">
        <ele>367.084229</ele>
        <time>2010-08-29T14:33:53Z</time>
      </trkpt>
      <trkpt lat="48.72509" lon="7.34272">
        <ele>367.474854</ele>
        <time>2010-08-29T14:33:54Z</time>
      </trkpt>
      <trkpt lat="48.72516" lon="7.34279">
        <ele>366.560791</ele>
        <time>2010-08-29T14:33:56Z</time>
      </trkpt>
      <trkpt lat="48.72523" lon="7.34286">
        <ele>366.631104</ele>
        <time>2010-08-29T14:33:58Z</time>
      </trkpt>
      <trkpt lat="48.72529" lon="7.34296">
        <ele>366.326416</ele>
        <time>2010-08-29T14:34:00Z</time>
      </trkpt>
      <trkpt lat="48.72537" lon="7.34304">
        <ele>365.560791</ele>
        <time>2010-08-29T14:34:02Z</time>
      </trkpt>
      <trkpt lat="48.72542" lon="7.34305">
        <ele>364.115479</ele>
        <time>2010-08-29T14:34:03Z</time>
      </trkpt>
      <trkpt lat="48.72548" lon="7.34308">
        <ele>364.123291</ele>
        <time>2010-08-29T14:34:05Z</time>
      </trkpt>
      <trkpt lat="48.72555" lon="7.34314">
        <ele>362.537354</ele>
        <time>2010-08-29T14:34:07Z</time>
      </trkpt>
      <trkpt lat="48.72561" lon="7.3432">
        <ele>362.584229</ele>
        <time>2010-08-29T14:34:08Z</time>
      </trkpt>
      <trkpt lat="48.72566" lon="7.34325">
        <ele>361.802979</ele>
        <time>2010-08-29T14:34:09Z</time>
      </trkpt>
      <trkpt lat="48.72572" lon="7.34334">
        <ele>362.084229</ele>
        <time>2010-08-29T14:34:10Z</time>
      </trkpt>
      <trkpt lat="48.72576" lon="7.3434">
        <ele>362.451416</ele>
        <time>2010-08-29T14:34:11Z</time>
      </trkpt>
      <trkpt lat="48.7258" lon="7.34346">
        <ele>362.349854</ele>
        <time>2010-08-29T14:34:12Z</time>
      </trkpt>
      <trkpt lat="48.72585" lon="7.34353">
        <ele>359.427979</ele>
        <time>2010-08-29T14:34:13Z</time>
      </trkpt>
      <trkpt lat="48.72588" lon="7.34358">
        <ele>359.076416</ele>
        <time>2010-08-29T14:34:14Z</time>
      </trkpt>
      <trkpt lat="48.72594" lon="7.34363">
        <ele>356.935791</ele>
        <time>2010-08-29T14:34:15Z</time>
      </trkpt>
      <trkpt lat="48.72598" lon="7.34368">
        <ele>356.498291</ele>
        <time>2010-08-29T14:34:16Z</time>
      </trkpt>
      <trkpt lat="48.72602" lon="7.34374">
        <ele>356.052979</ele>
        <time>2010-08-29T14:34:17Z</time>
      </trkpt>
      <trkpt lat="48.7261" lon="7.34385">
        <ele>356.967041</ele>
        <time>2010-08-29T14:34:18Z</time>
      </trkpt>
      <trkpt lat="48.72614" lon="7.3439">
        <ele>356.693604</ele>
        <time>2010-08-29T14:34:19Z</time>
      </trkpt>
      <trkpt lat="48.72618" lon="7.34395">
        <ele>356.170166</ele>
        <time>2010-08-29T14:34:20Z</time>
      </trkpt>
      <trkpt lat="48.72622" lon="7.34401">
        <ele>356.099854</ele>
        <time>2010-08-29T14:34:21Z</time>
      </trkpt>
      <trkpt lat="48.72628" lon="7.3441">
        <ele>355.857666</ele>
        <time>2010-08-29T14:34:22Z</time>
      </trkpt>
      <trkpt lat="48.72632" lon="7.34416">
        <ele>355.232666</ele>
        <time>2010-08-29T14:34:23Z</time>
      </trkpt>
      <trkpt lat="48.72637" lon="7.34419">
        <ele>354.381104</ele>
        <time>2010-08-29T14:34:24Z</time>
      </trkpt>
      <trkpt lat="48.72641" lon="7.34424">
        <ele>354.342041</ele>
        <time>2010-08-29T14:34:25Z</time>
      </trkpt>
      <trkpt lat="48.72646" lon="7.34432">
        <ele>354.334229</ele>
        <time>2010-08-29T14:34:26Z</time>
      </trkpt>
      <trkpt lat="48.72651" lon="7.34439">
        <ele>353.802979</ele>
        <time>2010-08-29T14:34:27Z</time>
      </trkpt>
      <trkpt lat="48.72656" lon="7.34445">
        <ele>353.248291</ele>
        <time>2010-08-29T14:34:28Z</time>
      </trkpt>
      <trkpt lat="48.7266" lon="7.34453">
        <ele>350.857666</ele>
        <time>2010-08-29T14:34:29Z</time>
      </trkpt>
      <trkpt lat="48.72664" lon="7.34459">
        <ele>350.826416</ele>
        <time>2010-08-29T14:34:30Z</time>
      </trkpt>
      <trkpt lat="48.72669" lon="7.34466">
        <ele>350.240479</ele>
        <time>2010-08-29T14:34:31Z</time>
      </trkpt>
      <trkpt lat="48.72675" lon="7.34471">
        <ele>347.771729</ele>
        <time>2010-08-29T14:34:32Z</time>
      </trkpt>
      <trkpt lat="48.7268" lon="7.34473">
        <ele>346.099854</ele>
        <time>2010-08-29T14:34:33Z</time>
      </trkpt>
      <trkpt lat="48.72689" lon="7.34481">
        <ele>345.224854</ele>
        <time>2010-08-29T14:34:35Z</time>
      </trkpt>
      <trkpt lat="48.72693" lon="7.34485">
        <ele>345.381104</ele>
        <time>2010-08-29T14:34:36Z</time>
      </trkpt>
      <trkpt lat="48.72699" lon="7.34491">
        <ele>342.670166</ele>
        <time>2010-08-29T14:34:37Z</time>
      </trkpt>
      <trkpt lat="48.72706" lon="7.34496">
        <ele>341.013916</ele>
        <time>2010-08-29T14:34:38Z</time>
      </trkpt>
      <trkpt lat="48.72711" lon="7.34503">
        <ele>340.857666</ele>
        <time>2010-08-29T14:34:39Z</time>
      </trkpt>
      <trkpt lat="48.72716" lon="7.34508">
        <ele>341.467041</ele>
        <time>2010-08-29T14:34:40Z</time>
      </trkpt>
      <trkpt lat="48.72721" lon="7.34515">
        <ele>341.982666</ele>
        <time>2010-08-29T14:34:41Z</time>
      </trkpt>
      <trkpt lat="48.72725" lon="7.34521">
        <ele>341.201416</ele>
        <time>2010-08-29T14:34:42Z</time>
      </trkpt>
      <trkpt lat="48.7273" lon="7.34527">
        <ele>341.834229</ele>
        <time>2010-08-29T14:34:43Z</time>
      </trkpt>
      <trkpt lat="48.72737" lon="7.34534">
        <ele>341.318604</ele>
        <time>2010-08-29T14:34:44Z</time>
      </trkpt>
      <trkpt lat="48.72743" lon="7.34539">
        <ele>339.607666</ele>
        <time>2010-08-29T14:34:45Z</time>
      </trkpt>
      <trkpt lat="48.7275" lon="7.34544">
        <ele>336.529541</ele>
        <time>2010-08-29T14:34:46Z</time>
      </trkpt>
      <trkpt lat="48.72757" lon="7.34549">
        <ele>336.177979</ele>
        <time>2010-08-29T14:34:47Z</time>
      </trkpt>
      <trkpt lat="48.72765" lon="7.34559">
        <ele>336.287354</ele>
        <time>2010-08-29T14:34:48Z</time>
      </trkpt>
      <trkpt lat="48.72771" lon="7.34563">
        <ele>336.474854</ele>
        <time>2010-08-29T14:34:49Z</time>
      </trkpt>
      <trkpt lat="48.72776" lon="7.34566">
        <ele>336.287354</ele>
        <time>2010-08-29T14:34:50Z</time>
      </trkpt>
      <trkpt lat="48.72783" lon="7.34568">
        <ele>335.638916</ele>
        <time>2010-08-29T14:34:52Z</time>
      </trkpt>
      <trkpt lat="48.7279" lon="7.34567">
        <ele>334.943604</ele>
        <time>2010-08-29T14:34:54Z</time>
      </trkpt>
      <trkpt lat="48.72795" lon="7.34571">
        <ele>335.006104</ele>
        <time>2010-08-29T14:34:55Z</time>
      </trkpt>
      <trkpt lat="48.72807" lon="7.34582">
        <ele>336.717041</ele>
        <time>2010-08-29T14:34:57Z</time>
      </trkpt>
      <trkpt lat="48.72812" lon="7.34586">
        <ele>336.779541</ele>
        <time>2010-08-29T14:34:58Z</time>
      </trkpt>
      <trkpt lat="48.72821" lon="7.34589">
        <ele>335.537354</ele>
        <time>2010-08-29T14:35:00Z</time>
      </trkpt>
      <trkpt lat="48.72827" lon="7.34596">
        <ele>337.295166</ele>
        <time>2010-08-29T14:35:01Z</time>
      </trkpt>
      <trkpt lat="48.72831" lon="7.346">
        <ele>337.810791</ele>
        <time>2010-08-29T14:35:02Z</time>
      </trkpt>
      <trkpt lat="48.72837" lon="7.34601">
        <ele>337.451416</ele>
        <time>2010-08-29T14:35:04Z</time>
      </trkpt>
      <trkpt lat="48.72843" lon="7.34601">
        <ele>336.576416</ele>
        <time>2010-08-29T14:35:06Z</time>
      </trkpt>
      <trkpt lat="48.72845" lon="7.34607">
        <ele>338.912354</ele>
        <time>2010-08-29T14:35:07Z</time>
      </trkpt>
      <trkpt lat="48.7285" lon="7.34609">
        <ele>339.451416</ele>
        <time>2010-08-29T14:35:09Z</time>
      </trkpt>
      <trkpt lat="48.72855" lon="7.3461">
        <ele>337.943604</ele>
        <time>2010-08-29T14:35:11Z</time>
      </trkpt>
      <trkpt lat="48.7286" lon="7.34614">
        <ele>338.529541</ele>
        <time>2010-08-29T14:35:13Z</time>
      </trkpt>
      <trkpt lat="48.72866" lon="7.34616">
        <ele>340.201416</ele>
        <time>2010-08-29T14:35:16Z</time>
      </trkpt>
      <trkpt lat="48.7287" lon="7.34618">
        <ele>340.717041</ele>
        <time>2010-08-29T14:35:19Z</time>
      </trkpt>
      <trkpt lat="48.72875" lon="7.34621">
        <ele>341.420166</ele>
        <time>2010-08-29T14:35:23Z</time>
      </trkpt>
      <trkpt lat="48.72879" lon="7.3462">
        <ele>340.263916</ele>
        <time>2010-08-29T14:35:28Z</time>
      </trkpt>
      <trkpt lat="48.72887" lon="7.34628">
        <ele>342.787354</ele>
        <time>2010-08-29T14:35:34Z</time>
      </trkpt>
      <trkpt lat="48.72893" lon="7.34634">
        <ele>343.943604</ele>
        <time>2010-08-29T14:35:36Z</time>
      </trkpt>
      <trkpt lat="48.72901" lon="7.34639">
        <ele>345.349854</ele>
        <time>2010-08-29T14:35:38Z</time>
      </trkpt>
      <trkpt lat="48.72908" lon="7.34643">
        <ele>346.912354</ele>
        <time>2010-08-29T14:35:40Z</time>
      </trkpt>
      <trkpt lat="48.72913" lon="7.34647">
        <ele>347.592041</ele>
        <time>2010-08-29T14:35:41Z</time>
      </trkpt>
      <trkpt lat="48.72918" lon="7.34653">
        <ele>348.115479</ele>
        <time>2010-08-29T14:35:42Z</time>
      </trkpt>
      <trkpt lat="48.72923" lon="7.34658">
        <ele>348.842041</ele>
        <time>2010-08-29T14:35:43Z</time>
      </trkpt>
      <trkpt lat="48.72927" lon="7.34663">
        <ele>348.943604</ele>
        <time>2010-08-29T14:35:44Z</time>
      </trkpt>
      <trkpt lat="48.72931" lon="7.34668">
        <ele>348.631104</ele>
        <time>2010-08-29T14:35:45Z</time>
      </trkpt>
      <trkpt lat="48.72935" lon="7.34673">
        <ele>348.349854</ele>
        <time>2010-08-29T14:35:46Z</time>
      </trkpt>
      <trkpt lat="48.72939" lon="7.34685">
        <ele>347.162354</ele>
        <time>2010-08-29T14:35:47Z</time>
      </trkpt>
      <trkpt lat="48.72946" lon="7.34698">
        <ele>348.756104</ele>
        <time>2010-08-29T14:35:49Z</time>
      </trkpt>
      <trkpt lat="48.72954" lon="7.34703">
        <ele>349.435791</ele>
        <time>2010-08-29T14:35:51Z</time>
      </trkpt>
      <trkpt lat="48.72961" lon="7.34711">
        <ele>349.763916</ele>
        <time>2010-08-29T14:35:53Z</time>
      </trkpt>
      <trkpt lat="48.72963" lon="7.34718">
        <ele>349.154541</ele>
        <time>2010-08-29T14:35:54Z</time>
      </trkpt>
      <trkpt lat="48.72969" lon="7.34733">
        <ele>346.787354</ele>
        <time>2010-08-29T14:35:56Z</time>
      </trkpt>
      <trkpt lat="48.72974" lon="7.34742">
        <ele>346.646729</ele>
        <time>2010-08-29T14:35:57Z</time>
      </trkpt>
      <trkpt lat="48.72978" lon="7.34747">
        <ele>345.599854</ele>
        <time>2010-08-29T14:35:58Z</time>
      </trkpt>
      <trkpt lat="48.72988" lon="7.34761">
        <ele>347.654541</ele>
        <time>2010-08-29T14:36:00Z</time>
      </trkpt>
      <trkpt lat="48.72992" lon="7.3477">
        <ele>347.170166</ele>
        <time>2010-08-29T14:36:02Z</time>
      </trkpt>
      <trkpt lat="48.72995" lon="7.34783">
        <ele>347.967041</ele>
        <time>2010-08-29T14:36:04Z</time>
      </trkpt>
      <trkpt lat="48.72999" lon="7.34792">
        <ele>347.357666</ele>
        <time>2010-08-29T14:36:06Z</time>
      </trkpt>
      <trkpt lat="48.73003" lon="7.34804">
        <ele>346.021729</ele>
        <time>2010-08-29T14:36:08Z</time>
      </trkpt>
      <trkpt lat="48.73009" lon="7.34811">
        <ele>341.357666</ele>
        <time>2010-08-29T14:36:09Z</time>
      </trkpt>
      <trkpt lat="48.73014" lon="7.34815">
        <ele>338.873291</ele>
        <time>2010-08-29T14:36:10Z</time>
      </trkpt>
      <trkpt lat="48.73018" lon="7.3482">
        <ele>337.599854</ele>
        <time>2010-08-29T14:36:11Z</time>
      </trkpt>
      <trkpt lat="48.73255" lon="7.34902">
        <ele>288.724854</ele>
        <time>2010-08-29T14:36:53Z</time>
      </trkpt>
    </trkseg>
  </trk>
</gpx>